[[{"header":{"parameterUnit":"m.s-1","parameterCategory":1,"la1":30.6,"la2":28.766,"lo1":-90.7593,"lo2":-88.6598,"dy":0.0162,"dx":0.0183,"nx":116,"ny":114,"refTime":"2023-06-02T06:00:00:Z","depth":0,"parameterNumber":2,"parameterNumberName":"U-component_of_WINDS"},"data":[0.0,0.0,0.0,0.0,0.0,0.0,0.0,0.0,0.0,0.0,0.0,0.0,0.0,0.0,0.0,0.0,0.0,0.0,0.0,0.0,0.0,0.0,0.0,0.0,0.0,0.0,0.0,0.0,0.0,0.0,0.0,0.0,0.0,0.0,0.0,0.0,0.0,0.0,0.0,0.0,0.0,0.0,0.0,0.0,0.0,0.0,0.0,0.0,0.0,0.0,0.0,0.0,0.0,0.0,0.0,0.0,0.0,0.0,0.0,0.0,0.0,0.0,0.0,0.0,0.0,0.0,0.0,0.0,0.0,0.0,0.0,0.0,0.0,0.0,0.0,0.0,0.0,0.0,0.0,0.0,0.0,0.0,0.0,0.0,0.0,0.0,0.0,0.0,0.0,0.0,0.0,0.0,0.0,0.0,0.0,0.0,0.0,0.0,0.0,0.0,0.0,0.0,0.0,0.0,0.0,0.0,0.0,0.0,0.0,0.0,0.0,0.0,0.0,0.0,0.0,0.0,0.0,0.0,0.0,0.0,0.0,0.0,0.0,0.0,0.0,0.0,0.0,0.0,0.0,0.0,0.0,0.0,0.0,0.0,0.0,0.0,0.0,0.0,0.0,0.0,0.0,0.0,0.0,0.0,0.0,0.0,0.0,0.0,0.0,0.0,0.0,0.0,0.0,0.0,0.0,0.0,0.0,0.0,0.0,0.0,0.0,0.0,0.0,0.0,0.0,0.0,0.0,0.0,0.0,0.0,0.0,0.0,0.0,0.0,0.0,0.0,0.0,0.0,0.0,0.0,0.0,0.0,0.0,0.0,0.0,0.0,0.0,0.0,0.0,0.0,0.0,0.0,0.0,0.0,0.0,0.0,0.0,0.0,0.0,0.0,0.0,0.0,0.0,0.0,0.0,0.0,0.0,0.0,0.0,0.0,0.0,0.0,0.0,0.0,0.0,0.0,0.0,0.0,0.0,0.0,0.0,0.0,0.0,0.0,0.0,0.0,0.0,0.0,0.0,0.0,0.0,0.0,0.0,0.0,0.0,0.0,0.0,0.0,0.0,0.0,0.0,0.0,0.0,0.0,0.0,0.0,0.0,0.0,0.0,0.0,0.0,0.0,0.0,0.0,0.0,0.0,0.0,0.0,0.0,0.0,0.0,0.0,0.0,0.0,0.0,0.0,0.0,0.0,0.0,0.0,0.0,0.0,0.0,0.0,0.0,0.0,0.0,0.0,0.0,0.0,0.0,0.0,0.0,0.0,0.0,0.0,0.0,0.0,0.0,0.0,0.0,0.0,0.0,0.0,0.0,0.0,0.0,0.0,0.0,0.0,0.0,0.0,0.0,0.0,0.0,0.0,0.0,0.0,0.0,0.0,0.0,0.0,0.0,0.0,0.0,0.0,0.0,0.0,0.0,0.0,0.0,0.0,0.0,0.0,0.0,0.0,0.0,0.0,0.0,0.0,0.0,0.0,0.0,0.0,0.0,0.0,0.0,0.0,0.0,0.0,0.0,0.0,0.0,0.0,0.0,0.0,0.0,0.0,0.0,0.0,0.0,0.0,0.0,0.0,0.0,0.0,0.0,0.0,0.0,0.0,0.0,0.0,0.0,0.0,0.0,0.0,0.0,0.0,0.0,0.0,0.0,0.0,0.0,0.0,0.0,0.0,0.0,0.0,0.0,0.0,0.0,0.0,0.0,0.0,0.0,0.0,0.0,0.0,0.0,0.0,0.0,0.0,0.0,0.0,0.0,0.0,0.0,0.0,0.0,0.0,0.0,0.0,0.0,0.0,0.0,0.0,0.0,0.0,0.0,0.0,0.0,0.0,0.0,0.0,0.0,0.0,0.0,0.0,0.0,0.0,0.0,0.0,0.0,0.0,0.0,0.0,0.0,0.0,0.0,0.0,0.0,0.0,0.0,0.0,0.0,0.0,0.0,0.0,0.0,0.0,0.0,0.0,0.0,0.0,0.0,0.0,0.0,0.0,0.0,0.0,0.0,0.0,0.0,0.0,0.0,0.0,0.0,0.0,0.0,0.0,0.0,0.0,0.0,0.0,0.0,0.0,0.0,0.0,0.0,0.0,0.0,0.0,0.0,0.0,0.0,0.0,0.0,0.0,0.0,0.0,0.0,0.0,0.0,0.0,0.0,0.0,0.0,0.0,0.0,0.0,0.0,0.0,0.0,0.0,0.0,0.0,0.0,0.0,0.0,0.0,0.0,0.0,0.0,0.0,0.0,0.0,0.0,0.0,0.0,0.0,0.0,0.0,0.0,0.0,0.0,0.0,0.0,0.0,0.0,0.0,0.0,0.0,0.0,0.0,0.0,0.0,0.0,0.0,0.0,0.0,0.0,0.0,0.0,0.0,0.0,0.0,0.0,0.0,0.0,0.0,0.0,0.0,0.0,0.0,0.0,0.0,0.0,0.0,0.0,0.0,0.0,0.0,0.0,0.0,0.0,0.0,0.0,0.0,0.0,0.0,0.0,0.0,0.0,0.0,0.0,0.0,0.0,0.0,0.0,0.0,0.0,0.0,0.0,0.0,0.0,0.0,0.0,0.0,0.0,0.0,0.0,0.0,0.0,0.0,0.0,0.0,0.0,0.0,0.0,0.0,0.0,0.0,0.0,0.0,0.0,0.0,0.0,0.0,0.0,0.0,0.0,0.0,0.0,0.0,0.0,0.0,0.0,0.0,0.0,0.0,0.0,0.0,0.0,0.0,0.0,0.0,0.0,0.0,0.0,0.0,0.0,0.0,0.0,0.0,0.0,0.0,0.0,0.0,0.0,0.0,0.0,0.0,0.0,0.0,0.0,0.0,0.0,0.0,0.0,0.0,0.0,0.0,0.0,0.0,0.0,0.0,0.0,0.0,0.0,0.0,0.0,0.0,0.0,0.0,0.0,0.0,0.0,0.0,0.0,0.0,0.0,0.0,0.0,0.0,0.0,0.0,0.0,0.0,0.0,0.0,0.0,0.0,0.0,0.0,0.0,0.0,0.0,0.0,0.0,0.0,0.0,0.0,0.0,0.0,0.0,0.0,0.0,0.0,0.0,0.0,0.0,0.0,0.0,0.0,0.0,0.0,0.0,0.0,0.0,0.0,0.0,0.0,0.0,0.0,0.0,0.0,0.0,0.0,0.0,0.0,0.0,0.0,0.0,0.0,0.0,0.0,0.0,0.0,0.0,0.0,0.0,0.0,0.0,0.0,0.0,0.0,0.0,0.0,0.0,0.0,0.0,0.0,0.0,0.0,0.0,0.0,0.0,0.0,0.0,0.0,0.0,0.0,0.0,0.0,0.0,0.0,0.0,0.0,0.0,0.0,0.0,0.0,0.0,0.0,0.0,0.0,0.0,0.0,0.0,0.0,0.0,0.0,0.0,0.0,0.0,0.0,0.0,0.0,0.0,0.0,0.0,0.0,0.0,0.0,0.0,0.0,0.0,0.0,0.0,0.0,0.0,0.0,0.0,0.0,0.0,0.0,0.0,0.0,0.0,0.0,0.0,0.0,0.0,0.0,0.0,0.0,0.0,0.0,0.0,0.0,0.0,0.0,0.0,0.0,0.0,0.0,0.0,0.0,0.0,0.0,0.0,0.0,0.0,0.0,0.0,0.0,0.0,0.0,0.0,0.0,0.0,0.0,0.0,0.0,0.0,0.0,0.0,0.0,0.0,0.0,0.0,0.0,0.0,0.0,0.0,0.0,0.0,0.0,0.0,0.0,0.0,0.0,0.0,0.0,0.0,0.0,0.0,0.0,0.0,0.0,0.0,0.0,0.0,0.0,0.0,0.0,0.0,0.0,0.0,0.0,0.0,0.0,0.0,0.0,0.0,0.0,0.0,0.0,0.0,0.0,0.0,0.0,0.0,0.0,0.0,0.0,0.0,0.0,0.0,0.0,0.0,0.0,0.0,0.0,0.0,0.0,0.0,0.0,0.0,0.0,0.0,0.0,0.0,0.0,0.0,0.0,0.0,0.0,0.0,0.0,0.0,0.0,0.0,0.0,0.0,0.0,0.0,0.0,0.0,0.0,0.0,0.0,0.0,0.0,0.0,0.0,0.0,0.0,0.0,0.0,0.0,0.0,0.0,0.0,0.0,0.0,0.0,0.0,0.0,0.0,0.0,0.0,0.0,0.0,0.0,0.0,0.0,0.0,0.0,0.0,0.0,0.0,0.0,0.0,0.0,0.0,0.0,0.0,0.0,0.0,0.0,0.0,0.0,0.0,0.0,0.0,0.0,0.0,0.0,0.0,0.0,0.0,0.0,0.0,0.0,0.0,0.0,0.0,0.0,0.0,0.0,0.0,0.0,0.0,0.0,0.0,0.0,0.0,0.0,0.0,0.0,0.0,0.0,0.0,0.0,0.0,0.0,0.0,0.0,0.0,0.0,0.0,0.0,0.0,0.0,0.0,0.0,0.0,0.0,0.0,0.0,0.0,0.0,0.0,0.0,0.0,0.0,0.0,0.0,0.0,0.0,0.0,0.0,0.0,0.0,0.0,0.0,0.0,0.0,0.0,0.0,0.0,0.0,0.0,0.0,0.0,0.0,0.0,0.0,0.0,0.0,0.0,0.0,0.0,0.0,0.0,0.0,0.0,0.0,0.0,0.0,0.0,0.0,0.0,0.0,0.0,0.0,0.0,0.0,0.0,0.0,0.0,0.0,0.0,0.0,0.0,0.0,0.0,0.0,0.0,0.0,0.0,0.0,0.0,0.0,0.0,0.0,0.0,0.0,0.0,0.0,0.0,0.0,0.0,0.0,0.0,0.0,0.0,0.0,0.0,0.0,0.0,0.0,0.0,0.0,0.0,0.0,0.0,0.0,0.0,0.0,0.0,0.0,0.0,0.0,0.0,0.0,0.0,0.0,0.0,0.0,0.0,0.0,0.0,0.0,0.0,0.0,0.0,0.0,0.0,0.0,0.0,0.0,0.0,0.0,0.0,0.0,0.0,0.0,0.0,0.0,0.0,0.0,0.0,0.0,0.0,0.0,0.0,0.0,0.0,0.0,0.0,0.0,0.0,0.0,0.0,0.0,0.0,0.0,0.0,0.0,0.0,0.0,0.0,0.0,0.0,0.0,0.0,0.0,0.0,0.0,0.0,0.0,0.0,0.0,0.0,0.0,0.0,0.0,0.0,0.0,0.0,0.0,0.0,0.0,0.0,0.0,0.0,0.0,0.0,0.0,0.0,0.0,0.0,0.0,0.0,0.0,0.0,0.0,0.0,0.0,0.0,0.0,0.0,0.0,0.0,0.0,0.0,0.0,0.0,0.0,0.0,0.0,0.0,0.0,0.0,0.0,0.0,0.0,0.0,0.0,0.0,0.0,0.0,0.0,0.0,0.0,0.0,0.0,0.0,0.0,0.0,0.0,0.0,0.0,0.0,0.0,0.0,0.0,0.0,0.0,0.0,0.0,0.0,0.0,0.0,0.0,0.0,0.0,0.0,0.0,0.0,0.0,0.0,0.0,0.0,0.0,0.0,0.0,0.0,0.0,0.0,0.0,0.0,0.0,0.0,0.0,0.0,0.0,0.0,0.0,0.0,0.0,0.0,0.0,0.0,0.0,0.0,0.0,0.0,0.0,0.0,0.0,0.0,0.0,0.0,0.0,0.0,0.0,0.0,0.0,0.0,0.0,0.0,0.0,0.0,0.0,0.0,0.0,0.0,0.0,0.0,0.0,0.0,0.0,0.0,0.0,0.0,0.0,0.0,0.0,0.0,0.0,0.0,0.0,0.0,0.0,0.0,0.0,0.0,0.0,0.0,0.0,0.0,0.0,0.0,0.0,0.0,0.0,0.0,0.0,0.0,0.0,0.0,0.0,0.0,0.0,0.0,0.0,0.0,0.0,0.0,0.0,0.0,0.0,0.0,0.0,0.0,0.0,0.0,0.0,0.0,0.0,0.0,0.0,0.0,0.0,0.0,0.0,0.0,0.0,0.0,0.0,0.0,0.0,0.0,0.0,0.0,0.0,0.0,0.0,0.0,0.0,0.0,0.0,0.0,0.0,0.0,0.0,0.0,0.0,0.0,0.0,0.0,0.0,0.0,0.0,0.0,0.0,0.0,0.0,0.0,0.0,0.0,0.0,0.0,0.0,0.0,0.0,0.0,1.969,1.9989,0.0,0.0,0.0,0.0,0.0,0.0,0.0,0.0,0.0,0.0,0.0,0.0,0.0,0.0,0.0,0.0,0.0,0.0,0.0,0.0,0.0,0.0,0.0,0.0,0.0,0.0,0.0,0.0,0.0,0.0,0.0,0.0,0.0,0.0,0.0,0.0,0.0,0.0,1.6258,1.5844,1.5316,1.5869,1.612,1.6132,0.0,0.0,0.0,0.0,0.0,0.0,0.0,0.0,0.0,0.0,0.0,0.0,0.0,0.0,0.0,0.0,0.0,0.0,0.0,0.0,0.0,0.0,0.0,0.0,0.0,0.0,0.0,0.0,0.0,0.0,0.0,0.0,0.0,0.0,0.0,0.0,0.0,0.0,0.0,0.0,0.0,0.0,0.0,0.0,0.0,0.0,0.0,0.0,0.0,0.0,0.0,0.0,0.0,0.0,0.0,0.0,0.0,0.0,0.0,0.0,0.0,0.0,0.0,0.0,0.0,0.0,0.0,0.0,0.0,0.0,2.0228,1.9884,0.0,0.0,0.0,0.0,0.0,0.0,0.0,0.0,0.0,0.0,0.0,0.0,0.0,0.0,0.0,0.0,0.0,0.0,0.0,0.0,0.0,0.0,0.0,1.3634,1.3795,1.3408,1.3248,1.3471,0.0,0.0,0.0,0.0,0.0,0.0,0.0,1.6471,1.6471,1.6371,1.5819,1.5367,1.5067,1.548,1.5693,1.5718,1.617,0.0,0.0,0.0,0.0,0.0,0.0,0.0,0.0,0.0,0.0,0.0,0.0,0.0,0.0,0.0,0.0,0.0,0.0,0.0,0.0,0.0,0.0,0.0,0.0,0.0,0.0,0.0,0.0,0.0,0.0,0.0,0.0,0.0,0.0,0.0,0.0,0.0,0.0,0.0,0.0,0.0,0.0,0.0,0.0,0.0,0.0,0.0,0.0,0.0,0.0,0.0,0.0,0.0,0.0,0.0,0.0,0.0,0.0,0.0,0.0,0.0,0.0,0.0,2.3295,2.3565,2.3954,2.3954,2.3954,2.3819,2.1545,2.0423,2.0183,1.9959,0.0,0.0,0.0,0.0,0.0,0.0,0.0,0.0,0.0,0.0,0.0,0.0,0.0,0.0,0.0,0.0,0.0,0.0,0.0,0.0,0.0,1.3261,1.3509,1.3946,1.3509,1.3471,1.4047,0.0,0.0,0.0,0.0,0.0,1.5806,1.6271,1.6283,1.5806,1.5254,1.523,1.5593,1.5668,1.5693,1.5693,1.5768,1.607,1.6484,0.0,0.0,0.0,0.0,0.0,0.0,0.0,0.0,0.0,0.0,0.0,0.0,0.0,0.0,0.0,0.0,0.0,0.0,0.0,0.0,0.0,0.0,0.0,0.0,0.0,0.0,0.0,0.0,0.0,0.0,0.0,0.0,0.0,0.0,0.0,0.0,0.0,0.0,0.0,0.0,0.0,1.8496,1.8968,0.0,0.0,0.0,0.0,0.0,0.0,0.0,0.0,0.0,0.0,0.0,0.0,0.0,2.1858,2.3034,2.4323,2.5046,2.5226,2.5794,2.5824,2.5345,2.5345,2.5345,2.5285,2.4373,0.0,2.2188,2.1051,0.0,0.0,0.0,0.0,0.0,0.0,0.0,0.0,0.0,0.0,0.0,0.0,0.0,0.0,0.0,0.0,0.0,0.0,0.0,0.0,0.0,1.3697,1.3946,1.45,1.4299,1.4124,1.4085,1.4085,0.0,0.0,0.0,1.5045,1.5693,1.5598,1.545,1.5229,1.5304,1.5304,1.5241,1.5542,1.5693,1.5693,1.5693,1.5831,1.6057,1.6132,0.0,0.0,0.0,0.0,0.0,0.0,0.0,0.0,0.0,0.0,0.0,0.0,0.0,0.0,0.0,0.0,0.0,0.0,0.0,0.0,0.0,0.0,0.0,0.0,0.0,0.0,0.0,0.0,0.0,0.0,0.0,0.0,0.0,0.0,0.0,0.0,0.0,0.0,0.0,1.8968,1.9095,1.9332,1.9369,1.9332,0.0,0.0,0.0,0.0,0.0,0.0,0.0,0.0,0.0,2.1401,2.2733,2.4057,2.5315,2.5878,2.6722,2.7844,2.8128,2.8308,2.8353,2.8353,2.8353,2.8308,2.7305,2.5886,2.4122,2.2103,2.1119,2.0811,0.0,0.0,0.0,0.0,1.9416,1.9499,0.0,0.0,0.0,0.0,0.0,0.0,0.0,0.0,0.0,0.0,0.0,0.0,1.4236,1.4299,1.4525,1.5079,1.4991,1.4713,1.4286,1.4051,1.3877,1.3813,1.397,1.4478,1.5435,1.5186,1.522,1.5558,1.5781,1.5844,1.5731,1.6145,1.6271,1.612,1.612,1.6045,1.5919,1.6045,1.5944,1.5731,0.0,0.0,0.0,0.0,0.0,0.0,0.0,0.0,0.0,0.0,0.0,0.0,0.0,0.0,0.0,0.0,0.0,0.0,0.0,0.0,0.0,0.0,0.0,0.0,0.0,0.0,0.0,0.0,0.0,0.0,0.0,0.0,0.0,0.0,0.0,0.0,0.0,1.9263,1.9546,1.9508,1.9664,1.9593,0.0,0.0,0.0,0.0,0.0,0.0,2.0427,2.1835,2.2922,2.3573,2.5189,2.6672,2.7952,2.8062,2.8936,3.0582,3.0582,3.0821,3.1255,3.1091,3.1016,3.0941,2.9654,2.8066,2.628,2.354,2.2008,2.1321,2.053,2.0133,2.007,2.0447,2.0832,2.1322,0.0,0.0,0.0,0.0,0.0,0.0,0.0,0.0,0.0,0.0,0.0,1.4261,1.4815,1.4865,1.5092,1.5605,1.5178,1.4841,1.4785,1.3879,1.3252,1.307,1.3714,1.432,1.4839,1.5406,1.6208,1.725,1.6735,1.7011,1.8041,1.8066,1.7802,1.73,1.73,1.6999,1.6409,1.5392,1.5241,1.5734,1.6283,0.0,0.0,0.0,0.0,0.0,0.0,0.0,0.0,0.0,0.0,0.0,0.0,0.0,0.0,0.0,0.0,0.0,0.0,0.0,0.0,0.0,0.0,0.0,0.0,0.0,0.0,0.0,0.0,0.0,0.0,0.0,0.0,0.0,0.0,0.0,0.0,0.0,0.0,1.8965,1.9486,0.0,0.0,0.0,0.0,2.0489,2.1033,2.159,2.2166,2.3628,2.4958,2.6008,2.8205,2.9943,3.1145,3.1856,3.2587,3.329,3.329,3.332,3.332,3.2706,3.2407,3.2332,3.0986,2.9894,2.8886,2.5681,2.2895,2.0709,2.1235,2.1108,2.08,2.2141,2.2258,2.1971,0.0,0.0,0.0,0.0,0.0,0.0,0.0,0.0,1.3433,1.4009,1.4085,1.4563,1.5793,1.5618,1.5781,1.6697,1.5893,1.5205,1.482,1.4108,1.3459,1.3001,1.3606,1.4217,1.4808,1.6108,1.6798,1.6823,1.735,1.7802,1.8204,1.8204,1.8103,1.7903,1.7903,1.7802,1.7526,1.6409,1.6036,1.6257,1.6823,1.7554,0.0,0.0,0.0,0.0,0.0,0.0,0.0,0.0,0.0,0.0,0.0,0.0,0.0,0.0,0.0,0.0,0.0,0.0,0.0,0.0,0.0,0.0,0.0,0.0,0.0,0.0,0.0,0.0,0.0,0.0,0.0,0.0,0.0,0.0,0.0,0.0,0.0,2.0624,2.1182,0.0,2.0914,2.1028,2.1312,2.165,2.2201,2.2929,2.387,2.6203,2.7817,2.8639,3.0863,3.2539,3.3365,3.3227,3.3469,3.4128,3.4128,3.4128,3.4098,3.344,3.314,3.3066,3.1749,3.0178,2.8507,2.7339,2.5545,2.3424,2.2801,2.2647,2.2942,2.3948,2.4453,2.4778,0.0,0.0,0.0,0.0,0.0,0.0,0.0,0.0,1.3496,1.4274,1.4362,1.4991,1.6635,1.6308,1.6358,1.73,1.647,1.5588,1.4821,1.4245,1.3761,1.3282,1.4227,1.5043,1.5659,1.6995,1.7564,1.7363,1.8292,1.8844,1.9032,1.9032,1.9032,1.902,1.8832,1.8744,1.8681,1.7765,1.7102,1.6798,1.7183,1.7834,1.8531,0.0,0.0,0.0,0.0,0.0,0.0,0.0,0.0,0.0,0.0,0.0,0.0,0.0,0.0,0.0,0.0,0.0,0.0,0.0,0.0,0.0,0.0,0.0,0.0,0.0,0.0,0.0,0.0,0.0,0.0,0.0,0.0,0.0,0.0,2.2102,2.2904,2.256,2.3249,2.3354,2.2403,2.2635,2.3019,2.3364,2.4404,2.5422,2.6317,2.8961,3.0763,3.1331,3.3182,3.4382,3.4816,3.4397,3.4397,3.4816,3.4816,3.4816,3.4801,3.3799,3.3376,3.3303,3.1827,3.0083,2.832,2.832,2.7373,2.5818,2.4289,2.4115,2.4818,2.5868,2.6517,2.7045,0.0,0.0,0.0,0.0,0.0,0.0,0.0,1.348,1.3599,1.4765,1.4916,1.5558,1.72,1.6861,1.6748,1.7338,1.6848,1.5976,1.4789,1.4317,1.3994,1.3862,1.5486,1.6733,1.7426,1.7978,1.853,1.9033,1.9597,2.0137,2.0743,2.0743,2.0743,2.0718,2.01,1.9849,1.9823,1.9296,1.8444,1.7432,1.7372,1.7647,1.812,0.0,0.0,0.0,0.0,0.0,0.0,0.0,0.0,0.0,0.0,0.0,0.0,0.0,0.0,0.0,0.0,0.0,0.0,0.0,0.0,0.0,0.0,0.0,0.0,0.0,0.0,0.0,0.0,0.0,0.0,0.0,0.0,0.0,2.2954,2.4507,2.5372,2.4512,2.5507,2.5697,2.4158,2.5001,2.5728,2.5766,2.7611,2.9035,2.9548,3.1895,3.346,3.3998,3.4986,3.5504,3.5504,3.5504,3.5504,3.5424,3.5424,3.5439,3.5344,3.3769,3.3068,3.2958,3.1277,2.9781,2.8512,2.8581,2.8264,2.7551,2.5664,2.5409,2.6374,2.7728,2.833,2.8552,0.0,0.0,0.0,0.0,0.0,0.0,0.0,1.3301,1.3599,1.4765,1.4916,1.5558,1.72,1.6861,1.6748,1.7338,1.647,1.5511,1.4744,1.4209,1.4212,1.5023,1.5916,1.7084,1.8507,1.9095,1.9648,2.0213,2.0765,2.1104,2.1267,2.1267,2.1267,2.1255,2.1091,2.1029,2.1046,2.0887,2.0614,2.021,1.8605,1.8261,1.8577,0.0,0.0,0.0,0.0,0.0,0.0,0.0,0.0,0.0,0.0,0.0,0.0,0.0,0.0,0.0,0.0,0.0,0.0,0.0,0.0,0.0,0.0,0.0,0.0,0.0,0.0,0.0,0.0,0.0,0.0,0.0,2.439,2.5857,2.6225,2.753,2.8145,2.7083,2.7737,2.7741,2.6493,2.7253,2.8203,2.8995,3.021,3.1199,3.173,3.3041,3.384,3.4013,3.4986,3.5504,3.5504,3.5504,3.5133,3.4394,3.4394,3.4041,3.338,3.2415,3.1999,3.1957,3.0992,3.0024,2.9201,2.9875,2.9713,2.8871,2.7458,2.7442,2.8332,2.9318,2.9827,2.987,0.0,0.0,0.0,0.0,0.0,0.0,0.0,1.3584,1.3973,1.5078,1.5255,1.5768,1.7225,1.6861,1.6748,1.7338,1.628,1.532,1.4744,1.4562,1.5034,1.6215,1.7267,1.8425,1.9698,2.0238,2.0677,2.1016,2.1556,2.1945,2.2184,2.2184,2.2435,2.2874,2.2648,2.2661,2.2849,2.2617,2.2403,2.2018,2.0283,1.9729,1.9825,1.8283,1.797,1.8261,1.7465,1.7652,1.8103,1.7451,0.0,0.0,0.0,0.0,0.0,0.0,0.0,0.0,0.0,0.0,0.0,0.0,0.0,0.0,0.0,0.0,0.0,0.0,0.0,0.0,0.0,0.0,0.0,0.0,2.7,2.9068,3.0332,3.0657,3.0557,2.986,3.0305,3.0287,2.928,2.9867,3.0575,3.1276,3.2458,3.3255,3.3607,3.4744,3.5385,3.5385,3.6,3.6178,3.5923,3.5466,3.4873,3.4027,3.3602,3.3101,3.2579,3.1809,3.1446,3.1361,3.061,2.9843,2.9202,2.9821,3.0014,2.9996,0.0,0.0,0.0,0.0,3.1073,3.0881,0.0,0.0,0.0,0.0,0.0,0.0,0.0,1.4121,1.4525,1.5623,1.5815,1.622,1.7251,1.691,1.6766,1.7237,1.6333,1.5478,1.4914,1.5389,1.6249,1.7434,1.9031,2.02,2.0894,2.1393,2.1681,2.1681,2.2297,2.2811,2.3226,2.3228,2.3866,2.4808,2.4368,2.4443,2.4883,2.4456,2.3979,2.3414,2.2309,2.1699,2.1199,1.9154,1.8982,1.9673,1.8731,1.8468,1.8555,1.843,0.0,0.0,0.0,0.0,0.0,0.0,0.0,0.0,0.0,0.0,0.0,0.0,0.0,0.0,0.0,0.0,0.0,0.0,0.0,0.0,0.0,0.0,0.0,0.0,2.9943,3.2376,3.4439,3.3694,3.2773,3.24,3.2901,3.2854,3.1916,3.2457,3.2846,3.2846,3.4284,3.5215,3.5288,3.6635,0.0,0.0,0.0,3.6886,3.6193,3.527,3.4438,3.3671,3.282,3.2393,3.2249,3.1389,3.1044,3.097,3.0139,2.9503,2.9026,2.9089,2.9968,3.1193,3.1254,3.1738,3.2353,3.257,3.2258,3.1764,0.0,0.0,0.0,0.0,0.0,0.0,0.0,1.4326,1.4624,1.6153,1.6336,1.6598,1.7251,1.7225,1.7002,1.6716,1.6442,1.6235,1.6102,1.6622,1.7442,1.855,1.9809,2.0966,2.197,2.2535,2.2811,2.2811,2.3841,2.4167,2.3841,2.4293,2.4607,2.4833,2.5146,2.5347,2.5473,2.5824,2.5912,2.5711,2.4619,2.282,2.0724,1.9837,1.9623,1.9773,1.9572,2.0075,2.0715,1.9798,2.0024,2.0464,1.9133,1.8329,0.0,0.0,0.0,0.0,0.0,0.0,0.0,0.0,0.0,0.0,0.0,0.0,0.0,0.0,0.0,0.0,0.0,0.0,0.0,2.8497,3.0797,3.3132,3.5753,3.5878,3.5104,3.3395,3.3737,3.3537,3.211,3.3545,3.4566,3.4566,3.5585,3.6401,3.6891,3.7261,3.7045,3.6243,3.6171,3.5483,3.4026,3.3796,3.3056,3.1742,3.1536,0.0,3.0368,3.0139,3.0075,3.0075,2.9869,2.9729,2.9693,3.0452,3.1789,3.335,3.3089,3.3084,3.327,3.3289,3.3215,3.311,0.0,0.0,0.0,0.0,0.0,0.0,0.0,1.492,1.5322,1.6731,1.6917,1.6995,1.7272,1.7312,1.7076,1.6552,1.6238,1.6304,1.6824,1.7374,1.8464,2.0146,2.1026,2.2008,2.3138,2.3427,2.3703,2.3979,2.4544,2.4808,2.4808,2.5071,2.5511,2.6063,2.6327,2.659,2.6866,2.7155,2.713,2.6816,2.6276,2.5059,2.3475,2.2008,2.1644,2.1832,2.1267,2.1418,2.1769,2.0928,2.1029,2.1292,2.0188,1.966,1.9221,0.0,0.0,0.0,0.0,0.0,0.0,0.0,0.0,0.0,0.0,0.0,0.0,0.0,0.0,2.239,2.3981,0.0,2.8229,3.0843,3.2759,3.4549,3.6231,3.5883,3.5396,3.5367,3.5712,3.5554,3.4794,3.558,3.6182,3.6182,3.7005,3.7569,3.7883,3.8227,3.8195,3.7665,3.7128,3.6268,3.5085,3.3827,3.264,3.1602,3.0825,3.0279,2.9792,2.9792,2.9792,2.9792,2.9792,2.9792,2.9856,3.0833,3.1742,3.2609,3.2905,3.3644,3.4457,3.4113,3.3978,3.3933,0.0,0.0,0.0,0.0,0.0,0.0,0.0,1.5628,1.6066,1.7277,1.7518,1.7585,1.7463,1.7463,1.7188,1.6552,1.6149,1.6435,1.7569,1.8331,1.9674,2.1732,2.2447,2.3226,2.4142,2.4255,2.4481,2.482,2.5146,2.5398,2.5598,2.5824,2.6414,2.7293,2.7394,2.7745,2.8273,2.8386,2.8172,2.7758,2.7645,2.7331,2.6716,2.4707,2.4092,2.4167,2.3037,2.2498,2.2259,2.192,2.1669,2.1443,2.1217,2.0991,2.0592,1.9108,1.907,0.0,0.0,0.0,0.0,0.0,0.0,0.0,0.0,2.0552,2.1091,2.2221,2.2899,2.4149,2.7075,2.8794,3.0558,3.3005,3.4669,3.5923,3.6567,3.5569,3.5487,3.7246,3.7119,3.699,3.7238,3.7292,3.7377,3.7599,3.8093,3.8452,3.8586,3.9125,3.9192,3.8782,3.7904,3.6954,3.5925,3.3856,3.245,3.1744,3.052,2.9892,2.9792,2.9792,2.9792,2.9792,2.9792,2.9792,2.9856,3.0833,3.118,3.1315,3.2249,3.3685,3.5139,3.4589,3.4524,3.4607,0.0,0.0,0.0,0.0,0.0,0.0,0.0,0.0,1.6617,1.7703,1.8346,1.8535,1.8066,1.8027,1.7585,1.6595,1.6942,1.7647,1.8758,2.0245,2.1675,2.284,2.3979,2.4594,2.472,2.5184,2.5222,2.482,2.6289,2.6527,2.5624,2.6628,2.7168,2.7306,2.7795,2.8323,2.8875,2.9377,2.9566,2.9465,2.895,2.8712,2.8511,2.7293,2.6239,2.5272,2.4205,2.3163,2.2372,2.2811,2.2297,2.1644,2.2573,2.2184,2.1267,2.0643,1.9434,1.8329,1.8091,1.8154,1.8756,2.0639,2.084,2.1317,0.0,2.4556,2.4569,2.5686,2.6339,2.7278,2.8891,3.0528,3.2052,3.3647,3.5266,3.6596,3.7225,3.6879,3.6802,3.763,3.6124,3.5511,3.6718,3.6895,3.7273,3.8202,3.8347,3.8661,3.9275,3.9379,3.8531,3.6604,3.6448,3.5209,3.2759,3.246,3.1763,3.0754,3.0624,3.0269,2.9792,2.9792,2.9792,2.9792,2.9792,2.9792,2.9856,3.0833,3.118,3.1315,3.2249,3.3241,3.4163,3.409,3.4655,3.5385,0.0,0.0,0.0,0.0,0.0,0.0,0.0,0.0,0.0,1.7741,1.8136,1.8252,1.8104,1.7544,1.6993,1.6552,1.7049,1.8211,2.0067,2.0996,2.235,2.4193,2.4633,2.5121,2.5762,2.5988,2.6302,2.6728,2.7419,2.7519,2.7067,2.7544,2.7934,2.8247,2.8486,2.89,2.9453,2.9691,2.9792,2.9779,2.9528,2.9227,2.88,2.7708,2.6578,2.5448,2.4381,2.3477,0.0,2.2309,2.2083,2.2046,2.251,2.2121,2.138,2.0882,2.0401,2.0112,2.0112,2.0351,2.0815,2.1732,2.2761,2.3904,2.5285,2.5686,2.6176,2.7607,2.8348,2.9487,3.1936,3.2887,3.3858,3.5663,3.655,3.702,3.7051,3.691,3.6713,3.6471,3.594,3.605,3.729,3.7411,3.7972,3.9457,3.92,3.9275,3.9963,3.9634,3.8694,3.7175,3.6526,3.5385,3.3662,3.2688,3.1989,3.1537,3.1223,3.0947,3.0721,3.0721,3.0557,3.0256,2.993,2.9792,2.9869,3.0203,3.0419,3.0495,3.1402,3.2393,3.3241,3.3808,3.4624,3.5504,0.0,0.0,0.0,0.0,0.0,0.0,0.0,0.0,0.0,0.0,1.8179,1.8301,1.8129,1.7146,1.6522,1.6522,1.7049,1.8375,2.0598,2.1393,2.2768,2.4951,2.5253,2.5734,2.6735,2.6691,2.7155,2.8109,2.826,2.8247,2.8109,2.826,2.8549,2.8925,2.8925,2.9252,2.9792,2.9792,2.9792,2.9792,2.9792,2.9352,2.8586,2.7469,2.6163,2.4795,2.3866,2.3075,2.2309,2.1343,2.1192,2.1455,2.1913,2.1579,2.1058,2.112,2.1331,2.1493,2.1493,2.1995,2.2648,2.31,2.4657,2.6138,2.644,2.708,2.7984,2.934,3.0163,3.1383,3.3731,3.4516,3.5321,3.6877,3.7449,3.7545,3.7317,3.6996,3.6465,3.5495,3.5329,3.5627,3.6599,3.7334,3.8423,4.0009,3.9372,3.9225,3.9876,3.9299,3.8396,3.7211,3.6712,3.575,3.4275,3.3204,3.2528,3.2202,3.1813,3.1537,3.1386,3.1386,3.1022,3.0382,3.0131,2.993,2.9792,2.9792,2.9792,2.9869,3.0558,3.1536,3.2664,3.338,3.4394,3.5504,0.0,0.0,0.0,0.0,0.0,0.0,0.0,0.0,0.0,0.0,0.0,0.0,0.0,1.7146,1.6522,1.6522,1.7049,1.8162,1.9932,2.1625,2.3303,2.4865,2.6018,2.6854,2.7301,2.7256,2.7544,2.8109,2.8637,2.8637,2.8109,2.8649,2.8913,2.8925,2.8925,2.9252,2.9792,2.9792,2.9792,2.9792,2.9792,2.9126,2.8009,2.6904,2.5121,2.3078,2.2573,2.1656,2.0706,2.0049,1.9535,1.9409,2.1017,2.0759,2.0166,2.1755,2.1886,2.1493,2.1493,2.2284,2.3489,2.5096,2.6377,2.7507,2.8586,2.9691,3.0645,3.1198,3.2184,3.3021,3.3348,3.4822,3.6081,3.6462,3.7554,3.8362,3.8377,3.7462,3.6465,3.5495,3.3907,3.3172,3.3887,3.6283,3.8234,3.9367,3.8472,3.8102,3.8736,3.8174,3.7161,3.565,3.6552,3.5801,3.3167,3.3583,3.3294,3.2215,3.219,3.1901,3.1386,3.1386,3.0821,2.9842,3.0369,3.0281,2.9792,2.9792,2.9792,2.9792,2.9869,3.0996,3.2593,3.2593,3.3837,3.5504,0.0,0.0,0.0,0.0,0.0,0.0,0.0,0.0,0.0,0.0,0.0,0.0,0.0,0.0,0.0,0.0,1.7579,1.8671,2.0468,2.2185,2.3351,2.3892,2.5349,2.6194,2.6151,2.654,2.718,2.8109,2.8298,2.8473,2.8649,2.8837,2.9139,2.9503,2.9503,2.9616,2.9792,2.9792,2.9792,2.9806,2.9535,2.8635,2.7427,2.6077,2.4128,2.187,0.0,1.9899,1.9497,1.8932,1.8846,1.9107,1.9671,1.9566,1.9533,2.0859,2.1622,2.2196,2.2949,2.4217,2.5649,2.6942,2.8109,2.9227,3.0319,3.0859,3.1173,3.1348,3.142,3.1785,3.3178,3.3963,3.4982,3.6841,3.7823,3.815,3.7462,3.7387,3.641,3.3522,3.4486,3.4851,3.3383,3.5055,3.7011,3.8876,3.9341,3.9455,3.9276,3.9104,3.8106,3.6089,3.6346,3.5654,3.3633,3.3809,3.352,3.278,3.278,3.2692,3.2491,3.2114,3.1537,3.0846,3.0683,3.0306,2.9792,2.9792,2.9792,2.9934,3.1206,3.2046,3.2749,3.4056,3.492,3.5504,0.0,0.0,0.0,0.0,0.0,0.0,0.0,0.0,0.0,0.0,0.0,0.0,0.0,0.0,0.0,0.0,0.0,1.8851,2.0448,2.1801,2.2651,2.3034,2.4327,2.4911,2.4696,2.509,2.5709,2.664,2.6841,2.7318,2.8047,2.8247,2.875,2.9478,2.9478,2.9603,2.9779,2.9566,2.9202,2.8867,2.8672,2.7475,2.5728,2.4797,2.2941,0.0,1.9246,1.8606,1.8355,1.779,1.8083,1.8719,1.8699,1.9283,2.0025,2.079,2.2033,2.354,2.5059,2.6389,2.7657,2.895,2.9829,3.0595,3.1486,3.1537,3.1518,3.2115,3.1647,3.1641,3.3301,3.3508,3.407,3.6067,3.6716,3.7005,3.7023,3.6707,3.5807,3.3998,3.5102,3.5555,3.4319,3.5515,3.6935,3.8376,3.8895,3.9131,3.9017,3.8625,3.7656,3.6106,3.6162,3.5535,3.3909,3.4098,3.3922,3.337,3.3169,3.2968,3.2767,3.2591,3.2001,3.111,3.0959,3.047,2.9792,2.9792,2.9792,2.9934,3.1476,3.2321,3.282,3.4409,3.5213,3.5504,0.0,0.0,0.0,0.0,0.0,0.0,0.0,0.0,0.0,0.0,0.0,0.0,0.0,0.0,0.0,0.0,0.0,0.0,1.9825,2.0544,2.1341,2.2221,2.2979,2.3247,2.3014,2.3067,2.3367,2.3928,2.4482,2.53,2.6425,2.6924,2.7754,2.8787,2.8787,2.9101,2.9567,2.9013,2.813,2.7154,2.7248,2.5605,2.3154,2.3218,2.1779,1.966,1.8631,1.789,1.7338,1.676,1.7325,1.8298,1.8422,1.9874,2.1628,2.1711,2.3301,2.5498,2.762,2.8649,2.9515,3.1047,3.1449,3.1612,3.2185,3.187,3.1919,3.3341,3.275,3.2422,3.3573,3.3422,3.3405,3.4375,3.4592,3.528,3.7195,3.5561,3.492,3.6764,3.5741,3.5266,3.6341,3.7477,3.8052,3.7929,3.7512,3.7454,3.7896,3.6962,3.6145,3.5567,3.6005,3.5538,3.3985,3.4449,3.4399,3.3847,3.3319,3.2792,3.2277,3.283,3.219,3.0683,3.1173,3.0783,2.9792,2.9792,2.9792,2.9856,3.0833,3.1742,3.2749,3.3671,3.4624,3.5504,0.0,0.0,0.0,0.0,0.0,0.0,0.0,0.0,0.0,0.0,0.0,0.0,0.0,0.0,0.0,0.0,0.0,0.0,1.9694,2.0842,2.1175,2.0439,2.1883,2.2432,2.1847,2.2277,2.2764,2.3349,2.3436,2.4145,2.5316,2.5436,2.6151,2.7232,2.7232,2.7324,2.7457,2.7298,2.7093,2.6787,2.6067,2.4967,2.3712,2.259,2.1186,1.971,1.9058,1.8455,1.7903,1.735,1.8154,1.9687,2.1355,2.224,2.3027,2.4721,2.6465,2.8097,2.9089,3.067,3.2014,3.2001,3.2328,3.2819,3.3234,3.2823,3.2424,3.2766,3.1368,3.0422,3.1574,3.1701,3.2359,3.4862,3.6043,3.7,3.8003,3.7784,3.7397,3.7024,3.7419,3.7544,3.7209,3.8779,3.962,3.9289,3.9053,3.883,3.8684,3.8041,3.7222,3.6238,3.6273,3.5932,3.5127,3.4449,3.3834,3.3282,3.3144,3.3006,3.2867,3.3006,3.2378,3.1198,3.1336,3.0783,2.9792,2.9792,2.9792,2.9856,3.0833,3.1742,3.2749,3.3671,3.4624,3.5504,0.0,0.0,0.0,0.0,0.0,0.0,0.0,0.0,0.0,0.0,0.0,0.0,0.0,0.0,0.0,0.0,0.0,0.0,0.0,2.0393,2.048,1.9724,2.0691,2.0967,2.0325,2.0938,2.1227,2.1274,2.1797,2.2521,2.3363,2.3647,2.4383,2.549,2.549,2.5625,2.581,2.5869,2.5652,0.0,0.0,2.3715,2.259,2.1701,2.0732,1.9736,1.9221,1.9145,1.9309,1.9484,2.015,2.1247,2.3216,2.4189,2.4983,2.6967,2.8549,3.002,3.1829,3.3263,3.425,3.4389,3.4432,3.4291,3.3672,3.2841,3.2112,3.1833,3.0079,2.904,3.0545,3.0438,3.0898,3.3372,3.4846,3.6133,3.7375,3.7579,3.7794,3.8414,3.899,3.9376,3.9571,4.0595,4.1275,4.1336,4.0532,3.9694,3.8932,3.8403,3.7586,3.6452,3.6119,3.5742,3.519,3.4324,3.3746,3.3432,3.3194,3.3081,3.3081,3.3081,3.2591,3.175,3.175,3.1148,3.0156,3.0156,3.0018,2.9934,3.1267,3.2177,3.2749,3.4177,3.5163,3.5893,0.0,0.0,0.0,0.0,0.0,0.0,0.0,0.0,0.0,0.0,0.0,0.0,0.0,0.0,0.0,0.0,0.0,0.0,0.0,0.0,1.9782,1.9782,1.9782,1.9551,1.9103,1.9609,1.9569,1.9002,2.0126,2.0882,2.1313,2.1856,2.2643,2.3589,2.3589,2.3876,2.4314,2.4422,2.3881,2.3018,2.3053,2.2152,2.0772,0.0,2.0295,1.9748,1.9296,1.9798,2.092,2.2196,2.2736,2.315,2.4845,2.6126,2.7402,2.9126,3.0441,3.1924,3.5116,3.6071,3.632,3.7043,3.6681,3.5714,3.3776,3.2329,3.1251,3.0813,2.9118,2.8211,2.9925,2.9574,2.9662,3.15,3.2826,3.4352,3.6447,3.6678,3.755,4.0233,4.0444,4.1013,4.2339,4.2491,4.2731,4.3284,4.1858,4.0356,3.907,3.8443,3.7586,3.6452,3.5893,3.5353,3.4726,3.4248,3.3935,3.3784,3.3307,3.3081,3.3081,3.3081,3.2754,3.2215,3.2215,3.1637,3.0721,3.0721,3.0432,3.0136,3.1696,3.2485,3.2828,3.4481,3.5629,3.6239,0.0,0.0,0.0,0.0,0.0,0.0,0.0,0.0,0.0,0.0,1.9966,2.0193,0.0,0.0,0.0,0.0,0.0,0.0,0.0,0.0,0.0,2.0193,2.0193,2.0143,2.0058,1.9837,1.9657,1.9568,1.98,2.0191,2.0808,2.0939,2.1355,2.2085,2.2085,2.2144,2.2204,2.2261,2.2155,2.1904,2.144,2.1084,2.0726,2.0176,0.0,0.0,1.9698,2.01,2.1108,2.3552,2.4983,2.6025,2.7695,2.8988,3.0441,3.3023,3.4222,3.5169,3.7221,3.8473,3.88,3.7524,3.6695,3.5709,3.4172,3.2326,3.0771,2.988,2.8883,2.831,2.8697,2.9045,3.0129,3.275,3.3799,3.5175,3.7704,3.8952,4.004,4.11,4.2097,4.2872,4.315,4.3165,4.321,4.3329,4.2971,4.1951,3.982,3.8671,3.7586,3.6452,3.627,3.5742,3.4726,3.4625,3.4123,3.3219,3.3119,3.3081,3.3081,3.3081,3.2754,3.2215,3.2215,3.1851,3.1248,3.1248,3.1198,3.1153,3.1004,3.1682,3.2781,3.3052,3.4014,3.5212,0.0,0.0,0.0,0.0,0.0,0.0,0.0,2.1124,2.1559,2.1242,2.1064,2.0797,2.0348,2.0124,0.0,0.0,0.0,0.0,0.0,0.0,0.0,0.0,2.0,2.0,2.0,2.0128,2.0049,1.969,0.0,2.0218,2.0183,2.0188,2.0336,2.0647,2.0647,2.0647,2.0677,2.1036,2.1186,2.1143,2.0879,2.0809,2.0726,0.0,0.0,0.0,1.9798,2.0363,2.1343,2.2975,2.5319,2.7842,2.8987,3.0292,3.1759,3.3699,3.5303,3.6838,3.8849,4.0124,4.0476,3.9176,3.8045,3.6562,3.3769,3.186,3.0251,2.8792,2.8086,2.7818,2.7935,2.8681,2.9871,3.1662,3.2781,3.4382,3.703,3.8527,3.9858,4.122,4.2536,4.3329,4.3329,4.3329,4.3329,4.3329,4.3329,4.2548,4.0831,3.9081,3.7586,3.6452,3.6358,3.583,3.4726,3.4726,3.4173,3.3081,3.3081,3.3081,3.3081,3.3081,3.2918,3.2667,3.2667,3.234,3.1813,3.1813,3.1965,3.2303,3.2463,3.3338,3.4441,3.4582,3.5296,3.6148,0.0,0.0,0.0,0.0,0.0,0.0,0.0,2.2061,2.231,2.231,2.1974,2.146,2.0667,2.0416,2.0158,0.0,0.0,0.0,0.0,0.0,0.0,0.0,0.0,0.0,2.0104,0.0,0.0,1.9854,2.0361,0.0,0.0,0.0,0.0,0.0,1.969,1.969,1.972,2.0258,2.0498,0.0,0.0,2.057,2.0502,0.0,0.0,0.0,0.0,2.0666,2.1655,2.2462,2.4975,2.7934,2.9014,3.0833,3.2688,3.3695,3.5661,3.7952,4.0147,4.125,4.1565,4.0606,3.9185,3.703,3.335,3.1375,2.9734,2.778,2.7363,2.738,2.7343,2.8228,2.9258,3.0321,3.139,3.311,3.6073,3.7584,3.914,4.1145,4.2536,4.3329,4.3329,4.3329,4.3329,4.3329,4.3329,4.2725,4.1337,3.9244,3.7586,3.6452,3.6245,3.578,3.4901,3.4663,3.411,3.3257,3.3131,3.3081,3.3081,3.3081,3.3081,3.3081,3.3081,3.2817,3.239,3.239,3.2625,3.3066,3.3977,3.4905,3.5764,3.6226,3.6698,3.6951,0.0,0.0,0.0,0.0,0.0,0.0,0.0,2.2282,2.231,2.231,2.2254,2.2032,2.1521,2.0765,2.0158,0.0,0.0,0.0,0.0,0.0,0.0,0.0,0.0,0.0,0.0,0.0,0.0,2.0246,2.0323,0.0,0.0,0.0,0.0,0.0,0.0,1.969,1.969,1.975,0.0,0.0,0.0,0.0,0.0,0.0,0.0,0.0,0.0,2.1131,2.1944,2.3511,2.43,2.498,2.7223,3.0732,3.4203,3.4652,3.6656,3.9001,4.0855,4.1784,4.2025,4.0741,3.8512,3.5938,3.3155,3.1031,2.9104,2.705,2.713,2.7365,2.6736,2.7233,2.8375,3.0208,3.0612,3.2048,3.5938,3.7584,3.914,4.1145,4.2536,4.3329,4.3329,4.3329,4.3329,4.3329,4.3329,4.2386,4.0159,3.8827,3.7586,3.6452,3.5881,3.5567,3.5466,3.4474,3.3922,3.3822,3.3319,3.3081,3.3081,3.3081,3.3081,3.3081,3.3081,3.3056,3.3006,3.3006,3.3054,3.311,3.3668,3.4246,3.4915,3.5747,3.6028,3.607,0.0,0.0,0.0,0.0,0.0,0.0,2.2192,2.231,2.2377,2.2527,2.2398,2.2192,2.1931,2.1411,2.0813,0.0,0.0,0.0,0.0,0.0,0.0,0.0,0.0,0.0,0.0,0.0,2.0764,2.0314,2.0314,0.0,0.0,0.0,0.0,0.0,0.0,1.969,1.969,1.969,0.0,0.0,0.0,0.0,0.0,0.0,0.0,0.0,0.0,0.0,2.1876,2.2945,2.4347,2.5756,2.6299,2.9326,3.2782,3.3542,3.5499,3.7895,4.0203,4.1564,4.1953,4.0232,3.8422,3.6148,3.2706,3.0717,2.9152,2.7469,2.7408,2.7524,2.7203,2.7408,2.815,2.9684,2.9624,3.0746,3.4726,3.5714,3.721,4.0412,4.1594,4.2476,4.3254,4.3329,4.3329,4.3329,4.3329,4.2644,4.1,4.0476,3.9067,3.6452,3.6852,3.657,3.5554,3.4776,3.4223,3.3884,3.3345,3.3081,3.3081,3.3081,3.3484,3.4037,3.3398,3.3471,3.4037,3.3398,3.3869,3.4926,3.4468,3.5637,3.741,3.6733,3.6619,3.6792,0.0,0.0,0.0,0.0,0.0,2.1701,2.2226,2.236,2.249,2.2686,2.2537,2.2392,2.2307,2.1874,2.1352,2.0732,0.0,0.0,0.0,0.0,0.0,0.0,0.0,0.0,0.0,0.0,2.115,2.0667,2.0905,2.0933,0.0,0.0,2.0375,2.0624,0.0,0.0,0.0,0.0,0.0,0.0,0.0,0.0,0.0,0.0,0.0,0.0,0.0,0.0,0.0,0.0,0.0,2.5696,2.5666,2.7528,3.0041,3.1626,3.4056,3.6641,3.8691,4.0352,4.1115,3.9514,3.7823,3.5669,3.2243,3.0372,2.8966,2.7865,2.7625,2.7625,2.7625,2.7739,2.8248,2.9385,2.952,3.0642,3.4008,3.4816,3.6252,3.9424,4.0397,4.1324,4.2626,4.3105,4.3329,4.3329,4.3329,4.2805,4.167,4.1758,4.0449,3.7507,3.8039,3.7648,3.6297,3.5417,3.4692,3.4135,3.342,3.3081,3.3081,3.3081,3.3471,3.4191,3.3797,3.3797,3.4191,3.4095,3.4719,3.5748,3.5682,3.6958,3.8782,3.7711,3.747,3.7674,0.0,0.0,0.0,0.0,0.0,0.0,0.0,2.2527,2.2695,2.2695,2.2695,2.2695,2.2695,2.2046,2.1598,2.1582,0.0,0.0,0.0,0.0,0.0,0.0,0.0,0.0,0.0,0.0,2.2061,2.1582,2.232,2.2459,2.2082,2.1686,2.147,2.1439,0.0,0.0,0.0,0.0,0.0,0.0,0.0,0.0,0.0,0.0,0.0,0.0,0.0,0.0,0.0,0.0,0.0,0.0,0.0,2.5644,2.6198,2.8846,3.2422,3.5669,3.6342,3.7958,3.929,3.8571,3.6432,3.3978,3.1988,3.0013,2.8412,2.7724,2.7625,2.7625,2.7625,2.8128,2.8801,2.9475,3.0657,3.2198,3.4188,3.5624,3.6956,3.8257,3.902,3.9963,4.1265,4.2566,4.3329,4.3329,4.3329,4.2805,4.167,4.2104,4.1646,3.9885,3.9291,3.8733,3.8094,3.6392,3.5336,3.47,3.3608,3.3081,3.3081,3.3081,3.3081,3.3154,3.4191,3.4108,3.3326,3.5346,3.5588,3.491,3.6958,3.7753,3.7832,3.8246,3.8392,3.8287,0.0,0.0,0.0,0.0,0.0,0.0,0.0,2.2527,2.2772,2.3021,2.2848,2.2797,2.3021,2.2483,2.2077,2.2077,0.0,0.0,0.0,0.0,0.0,0.0,0.0,0.0,0.0,0.0,2.2077,2.1582,2.1842,2.188,2.1725,2.1014,2.0861,2.1096,2.0142,1.969,0.0,0.0,0.0,0.0,0.0,0.0,2.2392,0.0,0.0,0.0,0.0,0.0,0.0,0.0,0.0,0.0,0.0,0.0,0.0,2.7771,3.0031,3.2541,3.4516,3.5858,3.6529,3.5843,3.4698,3.316,3.0754,2.937,2.8547,2.8323,2.8278,2.8278,2.8278,2.8457,2.8951,3.0043,3.0552,3.1689,3.4128,3.525,3.6626,3.8826,4.0876,4.2252,4.2671,4.309,4.3329,4.3329,4.3329,4.3155,4.2805,4.2962,4.2099,3.9986,4.0055,3.9845,3.936,3.8365,3.7596,3.6967,3.6273,3.5681,3.5183,3.5183,3.5601,3.6332,3.5908,3.5908,3.6332,3.6212,3.6462,3.6802,3.6774,3.7572,3.8841,3.8223,3.8163,3.8422,0.0,0.0,0.0,0.0,0.0,0.0,0.0,2.2643,2.2923,2.2996,2.2947,2.2923,2.2996,2.2598,2.231,2.231,0.0,0.0,0.0,0.0,0.0,0.0,0.0,0.0,0.0,2.2209,2.2077,2.1582,2.2059,2.2269,2.2269,2.1391,2.1144,2.1359,2.0227,1.969,0.0,0.0,0.0,0.0,0.0,0.0,2.2747,0.0,0.0,0.0,0.0,0.0,0.0,0.0,0.0,0.0,0.0,0.0,0.0,0.0,2.8192,3.0007,3.2858,3.4275,3.4841,3.4191,3.3332,3.2087,3.0072,2.8876,2.8203,2.8203,2.8203,2.8293,2.8547,2.8801,2.931,3.0328,3.1135,3.2213,3.3873,3.513,3.6656,3.8781,4.1145,4.2596,4.2596,4.3045,4.324,4.2985,4.3195,4.312,4.2626,4.2596,4.1922,4.0485,4.1227,4.1179,4.0139,3.9831,3.9145,3.7951,3.7441,3.6819,3.6198,3.6198,3.6526,3.7175,3.693,3.693,0.0,3.7329,3.7572,3.7753,3.7496,3.8204,3.9307,3.8341,3.8368,3.8796,0.0,0.0,0.0,0.0,0.0,0.0,0.0,0.0,2.3069,2.2746,2.2996,2.3069,2.2746,2.2463,2.231,2.231,0.0,0.0,0.0,0.0,0.0,0.0,0.0,0.0,0.0,2.2128,2.2157,2.1658,2.2828,2.3376,2.3308,2.2426,2.2018,2.1952,2.038,1.969,0.0,0.0,0.0,0.0,0.0,0.0,0.0,0.0,0.0,0.0,0.0,0.0,0.0,0.0,0.0,0.0,0.0,0.0,0.0,0.0,0.0,0.0,0.0,3.2997,3.382,3.3246,3.2145,3.0874,2.9696,2.8472,0.0,2.7634,2.7685,2.7859,2.8547,2.916,2.9804,3.0477,3.2183,3.3455,3.3559,3.537,3.7135,3.8317,4.0277,4.1459,4.1324,4.2536,4.3045,4.2342,4.2895,4.2716,4.1444,4.1384,4.1354,4.1309,4.2536,4.2391,4.0674,4.0799,3.9967,3.8145,3.7671,3.7059,3.6448,3.6448,3.6448,3.6448,3.7496,3.7343,3.6604,3.862,3.8782,3.7994,3.9017,3.9424,3.9334,3.8691,3.8871,3.9334,0.0,0.0,0.0,0.0,0.0,0.0,0.0,0.0,0.0,0.0,2.2996,2.3069,2.2746,2.2463,2.231,0.0,0.0,0.0,0.0,0.0,0.0,0.0,0.0,0.0,0.0,2.2794,2.2794,2.2135,2.2962,2.3105,2.2535,2.1676,2.1263,2.1198,2.0181,1.969,0.0,0.0,0.0,0.0,0.0,0.0,0.0,0.0,0.0,0.0,2.2712,2.2892,0.0,0.0,0.0,0.0,0.0,0.0,0.0,0.0,2.6824,2.7721,2.9343,0.0,3.0401,3.0354,2.9689,2.8873,0.0,2.785,2.7775,2.8248,2.8353,2.8562,2.922,2.9475,2.9968,3.1106,3.2108,3.3095,3.4098,3.6836,3.8841,3.914,4.1369,4.2282,4.0771,4.2267,4.2851,4.1698,4.2222,4.2237,4.1429,4.1384,4.1145,4.0651,4.1414,4.1682,4.1196,4.1763,4.1266,3.9809,3.9738,3.9326,3.862,3.862,3.862,3.8694,3.8943,3.8855,3.8694,3.9177,3.9265,3.9031,3.9265,3.9424,3.9394,3.923,3.9275,3.9394,0.0,0.0,0.0,0.0,0.0,0.0,0.0,0.0,0.0,0.0,0.0,0.0,0.0,0.0,0.0,0.0,0.0,0.0,0.0,0.0,0.0,0.0,0.0,0.0,2.1974,2.2916,2.2933,2.1974,2.3253,2.3342,2.2282,2.1944,2.1488,2.0959,2.0085,1.9854,0.0,0.0,0.0,0.0,2.2652,0.0,0.0,0.0,0.0,0.0,2.2443,2.2488,0.0,2.2951,2.3176,2.3176,0.0,0.0,0.0,0.0,2.6294,2.7018,2.7886,2.8666,2.9165,2.8962,2.8656,2.8264,2.772,2.7625,2.773,2.8053,2.8128,2.8427,2.94,2.9579,3.0103,3.1719,3.2542,3.3529,3.5175,3.718,3.8841,3.9768,4.1384,4.2147,4.1369,4.2536,4.2671,4.1055,4.1818,4.1818,4.0546,4.0771,4.0621,3.9963,4.0591,4.107,4.1384,4.1728,4.1549,4.0846,4.0546,4.0053,3.9424,3.9424,3.9424,3.9424,3.9424,3.9424,3.9424,3.9424,3.9424,3.9424,3.9424,3.9424,3.9424,3.9424,3.9424,3.9424,0.0,0.0,0.0,0.0,0.0,0.0,0.0,0.0,0.0,0.0,0.0,0.0,0.0,0.0,0.0,0.0,0.0,0.0,0.0,0.0,0.0,0.0,0.0,2.2106,2.1718,2.2811,2.2858,2.1718,2.3463,2.363,2.2299,2.2455,2.1938,2.0862,2.0104,2.0077,0.0,0.0,0.0,0.0,2.2143,0.0,0.0,0.0,0.0,0.0,0.0,0.0,0.0,2.2428,2.2724,2.2739,2.2787,0.0,0.0,0.0,0.0,0.0,2.6918,2.8024,2.8885,2.8334,2.8276,2.8196,2.7695,2.7625,2.7625,2.7625,2.77,2.8113,2.9355,2.9744,3.0462,3.2228,3.332,3.4651,3.6656,3.7554,3.8616,4.0217,4.116,4.1788,4.2043,4.2746,4.2417,4.0546,4.1429,4.1294,3.9514,3.9948,3.9993,3.9439,3.9963,4.0561,4.122,4.1235,4.1235,4.122,4.0561,3.9963,3.9424,3.9424,3.9424,3.9424,3.9424,3.9424,3.9424,3.9424,3.9424,3.9424,3.9424,3.9424,3.9424,3.9424,3.9424,3.9424,0.0,0.0,0.0,0.0,0.0,0.0,0.0,0.0,0.0,0.0,0.0,0.0,0.0,0.0,0.0,0.0,0.0,0.0,0.0,0.0,0.0,0.0,2.231,2.2282,2.218,2.2992,2.3009,2.218,2.311,2.3122,2.2282,2.194,2.1294,2.0416,2.0246,2.0096,1.9929,0.0,0.0,0.0,2.2143,0.0,0.0,0.0,0.0,0.0,0.0,0.0,0.0,2.2263,2.2724,2.2813,2.3295,0.0,0.0,0.0,0.0,0.0,2.6792,2.7575,2.8172,2.7715,2.7596,2.7564,2.759,2.7625,2.7625,2.7625,2.8038,2.8667,2.9445,3.0492,3.1509,3.2377,3.4487,3.6716,3.8691,4.0008,4.0681,4.0427,4.1953,4.2417,4.0861,4.1803,4.1923,4.0502,4.0591,4.0322,3.9469,3.9514,3.9529,3.9424,3.9514,3.9888,4.0546,4.0546,4.0546,4.0546,3.9888,3.9514,3.9424,3.9424,3.9424,3.9424,3.9424,3.9424,3.9424,3.9424,3.9424,3.9424,3.9424,3.9424,3.9424,3.9424,3.9424,3.9424,0.0,0.0,0.0,0.0,0.0,0.0,0.0,0.0,0.0,0.0,0.0,0.0,0.0,0.0,0.0,0.0,0.0,0.0,0.0,0.0,0.0,2.231,2.2061,2.1928,2.1928,2.2887,2.2916,2.1928,2.3321,2.341,2.2282,2.1823,2.1259,2.0698,2.1094,2.1089,2.0865,2.2085,2.2288,2.1829,0.0,0.0,0.0,0.0,0.0,0.0,0.0,0.0,0.0,0.0,2.2217,2.2646,2.3173,0.0,0.0,0.0,0.0,0.0,2.6336,2.7222,2.8065,2.8005,2.8294,2.8531,2.8195,2.8128,2.8233,2.8592,2.8622,2.9026,3.0387,3.142,3.2736,3.4816,3.6492,3.7958,3.9245,3.9933,4.0472,4.0876,4.1414,4.1534,4.098,4.1474,4.128,3.9963,4.0202,4.0113,3.9454,3.9424,3.9424,3.9424,3.9424,3.9738,4.0382,4.0053,4.0053,4.0382,3.9738,3.9424,3.9424,3.9424,3.9424,3.9394,3.9035,3.8856,3.8856,3.8856,3.8856,3.8901,3.9275,3.9424,3.9424,3.9424,3.9424,3.9424,0.0,0.0,0.0,0.0,0.0,0.0,0.0,0.0,0.0,0.0,0.0,0.0,0.0,0.0,0.0,0.0,0.0,0.0,0.0,0.0,2.231,2.231,2.1853,2.1582,2.1582,2.2508,2.2525,2.1582,2.3197,2.341,2.2282,2.1928,2.1538,2.1182,2.173,2.1831,2.1665,2.2717,2.2867,2.2484,0.0,0.0,0.0,0.0,0.0,0.0,0.0,0.0,0.0,0.0,0.0,0.0,0.0,0.0,0.0,2.5888,2.6085,2.6189,2.6211,2.724,2.8298,2.8361,2.8855,2.935,2.932,2.9042,2.9056,2.9879,2.9759,2.9983,3.148,3.2557,3.4188,3.715,3.8332,3.9155,3.9993,4.0232,4.0711,4.1713,4.1265,4.1115,4.1773,4.1414,4.0801,3.9948,4.0053,3.9948,3.9454,3.9424,3.9424,3.9424,3.9424,3.9664,4.0172,3.9679,3.9753,4.0382,3.9738,3.9424,3.9424,3.9424,3.9424,3.9379,3.8691,3.8392,3.8377,3.8227,3.8257,3.8437,3.8975,3.9275,3.9424,3.9424,3.9424,3.9424,0.0,0.0,0.0,0.0,0.0,0.0,0.0,0.0,0.0,0.0,0.0,0.0,0.0,0.0,0.0,0.0,0.0,0.0,0.0,0.0,2.231,2.231,2.1853,2.1582,2.1582,2.1678,2.1678,2.1582,2.2178,2.2412,2.231,2.2282,2.2003,2.1568,2.1617,2.1536,2.1389,2.2084,2.214,2.1769,2.1769,0.0,0.0,0.0,0.0,0.0,0.0,0.0,0.0,0.0,0.0,0.0,0.0,0.0,2.5961,2.5977,2.6297,2.669,2.6805,2.7869,2.8845,2.8405,2.8418,2.9049,3.0969,3.0396,2.9864,3.1135,3.1839,3.2273,3.2422,3.4008,3.5953,3.7988,3.9409,4.0696,4.1968,4.2671,4.309,4.318,4.2626,4.2476,4.312,4.1534,4.0681,4.1205,4.0157,3.9469,3.9424,3.9424,3.9424,3.9424,3.9424,3.9439,3.9484,3.9439,3.9753,4.0382,3.9738,3.9424,3.9424,3.9424,3.9424,3.9379,3.8691,3.8392,3.8347,3.7734,3.7838,3.8392,3.8437,3.8856,3.9424,3.9424,3.9424,3.9424,0.0,0.0,0.0,0.0,0.0,0.0,0.0,0.0,0.0,0.0,0.0,0.0,0.0,0.0,0.0,0.0,0.0,0.0,0.0,0.0,2.231,2.231,2.1853,2.1582,2.1582,2.1582,2.1582,2.1582,2.2248,2.2537,2.2537,2.2537,2.222,2.1628,2.2395,2.2198,2.1383,2.2373,2.26,2.2308,2.2308,2.1919,0.0,0.0,0.0,0.0,0.0,0.0,0.0,0.0,2.2351,2.3032,2.3835,2.4846,2.5732,2.5732,2.5882,2.6134,2.6654,2.8189,2.9638,2.944,2.9868,3.0525,3.1301,3.1125,3.1046,3.1958,3.2991,3.3993,3.4831,3.5923,3.7345,3.932,4.0412,4.1474,4.2776,4.2821,4.2731,4.2731,4.1788,4.1235,4.1474,4.0457,3.9888,4.0142,3.9709,3.9424,3.9424,3.9424,3.9424,3.9424,3.9424,3.9424,3.9424,3.9424,3.9334,3.9155,3.9334,3.9424,3.9424,3.9424,3.9185,3.8736,3.8078,3.7569,3.7195,3.6941,3.721,3.7853,3.8706,3.9185,3.9424,3.9424,3.9424,3.9424,0.0,0.0,0.0,0.0,0.0,0.0,0.0,0.0,0.0,0.0,0.0,0.0,0.0,0.0,0.0,0.0,0.0,0.0,2.231,2.231,2.231,2.231,2.1853,2.1702,2.1931,2.1816,2.1774,2.1774,2.2495,2.2797,2.2695,2.2712,2.2412,2.1857,2.2685,2.2564,2.1774,2.2577,2.2786,2.2566,2.2339,2.1928,0.0,0.0,0.0,0.0,0.0,0.0,0.0,0.0,2.2442,2.316,2.3854,2.4797,2.5609,2.5609,2.5761,2.6015,2.6285,2.801,2.9803,3.004,3.0924,3.1896,3.2596,3.2376,3.246,3.3804,3.4645,3.54,3.6312,3.6985,3.7928,3.9514,4.0681,4.1683,4.2596,4.2506,4.2282,4.2073,4.107,4.0487,4.0696,3.9933,3.9514,3.9709,3.9544,3.9424,3.9424,3.9424,3.9424,3.9424,3.9424,3.932,3.9095,3.9095,3.8751,3.8078,3.8766,3.899,3.8796,3.9005,3.8721,3.8063,3.7823,3.724,3.6492,3.6701,3.715,3.7808,3.8736,3.923,3.9424,3.9424,3.9424,3.9424,0.0,0.0,0.0,0.0,0.0,0.0,0.0,0.0,0.0,0.0,0.0,0.0,0.0,0.0,0.0,0.0,0.0,0.0,2.231,2.231,2.231,2.231,2.1853,2.1948,2.2695,2.2317,2.2124,2.2124,2.2838,2.3021,2.2721,2.2773,2.2615,2.231,2.231,2.2404,2.2588,2.2588,2.2499,2.2238,2.1579,2.1057,2.0632,0.0,0.0,0.0,0.0,0.0,0.0,0.0,2.2698,2.3025,2.4974,2.5592,2.5592,2.5592,2.6116,2.6522,2.5812,2.7249,2.9161,2.9922,3.1324,3.3073,3.5169,3.4494,3.4179,3.7018,3.6995,3.6492,3.6507,3.7,3.7629,3.8287,4.0083,4.1369,4.1384,4.1938,4.2102,4.1444,4.0786,4.0651,4.1294,4.0187,3.9694,4.0337,3.9783,3.9424,3.9409,3.9424,3.9424,3.9409,3.9424,3.9095,3.8407,3.8392,3.8063,3.7404,3.8063,3.8033,3.7434,3.8093,3.8033,3.7449,3.8093,3.7644,3.6522,3.715,3.7808,3.8392,3.8407,3.8811,3.9424,3.9424,3.9424,3.9424,0.0,0.0,0.0,0.0,0.0,0.0,0.0,0.0,0.0,0.0,0.0,0.0,0.0,0.0,0.0,0.0,0.0,0.0,2.231,2.231,2.231,2.231,2.218,2.2281,2.2695,2.3052,2.3218,2.3218,2.3212,2.3141,2.3045,2.284,2.2581,2.231,2.231,2.2149,2.1911,2.1911,2.1973,2.2071,2.203,2.1639,2.1109,0.0,0.0,0.0,0.0,0.0,0.0,0.0,0.0,0.0,2.3762,2.4408,2.4814,2.4814,2.5355,2.5879,2.5659,2.7249,2.9279,3.0548,3.2015,3.3839,3.6609,3.5727,3.4919,3.7001,3.6962,3.6761,3.7659,3.7973,3.8317,3.9005,4.0008,4.0846,4.1309,4.1145,4.0905,4.0711,4.0113,3.9783,3.9978,3.9649,3.9499,3.9694,3.9529,3.92,3.8721,3.9155,3.92,3.8706,3.917,3.9095,3.8407,3.8392,3.7838,3.6761,3.6956,3.7419,3.8108,3.8302,3.8033,3.7404,3.715,3.6567,3.5878,3.6971,3.7808,3.8437,3.8931,3.923,3.9424,3.9424,3.9424,3.9424,0.0,0.0,0.0,0.0,0.0,0.0,0.0,0.0,0.0,0.0,0.0,0.0,0.0,0.0,0.0,0.0,0.0,0.0,0.0,2.231,2.231,2.231,2.2398,2.2669,2.3093,2.361,2.3837,2.3692,2.35,2.3346,2.3189,2.2873,2.2563,2.231,2.231,2.2135,2.1899,2.1899,2.1861,2.1827,2.1787,2.1412,2.093,0.0,0.0,0.0,0.0,0.0,0.0,0.0,0.0,0.0,2.3755,2.415,2.4506,2.4506,2.4797,2.5287,2.5879,2.7486,2.9482,3.1562,3.3423,3.5324,3.7465,3.7297,3.7015,3.805,3.7752,3.7479,3.8242,3.8711,3.9039,3.9464,4.0582,4.1509,4.1648,4.1229,4.0846,4.0557,3.9851,3.9424,3.9424,3.917,3.9125,3.9394,3.8931,3.8556,3.8407,3.8542,3.8437,3.8018,3.8407,3.8302,3.7644,3.7629,3.712,3.6103,3.6357,3.6896,3.7629,3.7629,3.727,3.6626,3.6252,3.6312,3.6671,3.6926,3.7749,3.8811,3.896,3.9005,3.905,3.932,3.9245,3.905,0.0,0.0,0.0,0.0,0.0,0.0,0.0,0.0,0.0,0.0,0.0,0.0,0.0,0.0,0.0,0.0,0.0,0.0,0.0,0.0,2.231,2.2349,2.2616,2.3045,2.3692,2.4016,2.4054,2.3692,2.3671,2.3482,2.3141,2.2822,2.2537,2.231,2.231,2.231,2.231,2.231,2.2032,2.1628,2.1294,2.0844,2.0416,2.0444,0.0,0.0,0.0,0.0,0.0,0.0,0.0,0.0,2.4591,2.4557,2.4523,2.4591,2.4557,2.4845,2.637,2.7875,2.9719,3.2831,3.5351,3.7273,3.8017,3.9032,3.9736,3.9361,3.8804,3.8302,3.8427,3.9115,3.9734,3.98,4.1494,4.2588,4.2077,4.1783,4.1395,4.0811,4.0085,3.9565,3.9444,3.8847,3.8757,3.9257,3.8093,3.7644,3.8182,3.7704,3.7375,3.733,3.7375,3.7105,3.6492,3.6492,3.6148,3.5519,3.6118,3.6402,3.6402,3.6462,3.6133,3.5504,3.5504,3.6537,3.8123,3.6971,3.7569,3.9185,3.8616,3.8392,3.8467,3.917,3.902,3.8571,0.0,0.0,0.0,0.0,0.0,0.0,0.0,0.0,0.0,0.0,0.0,0.0,0.0,0.0,0.0,0.0,0.0,0.0,0.0,0.0,2.2371,2.2599,2.2923,2.3282,2.3692,2.4016,2.4054,2.3692,2.3455,2.3141,2.2797,2.2527,2.2349,2.231,2.231,2.231,2.231,2.231,2.2237,2.2157,2.2223,2.1873,2.1355,2.1566,2.1649,0.0,0.0,0.0,0.0,0.0,0.0,0.0,2.5169,2.4966,2.4625,2.5186,2.4949,2.4932,2.7012,2.8264,2.9973,3.4117,3.728,3.9445,3.9598,3.979,3.9395,3.7592,3.7451,3.7805,3.8448,3.9195,3.9932,4.0515,4.1024,4.1486,4.1949,4.147,4.1055,4.0896,4.1227,4.1002,3.985,3.9517,3.9262,3.876,3.7896,3.727,3.6911,3.7225,3.718,3.6701,3.715,3.7105,3.6492,3.6492,3.6148,3.5504,3.5654,3.5714,3.5729,3.6252,3.6133,3.5504,3.5504,3.6043,3.6881,3.6596,3.703,3.7883,3.8242,3.8392,3.8467,3.917,3.9334,3.923,0.0,0.0,0.0,0.0,0.0,0.0,0.0,0.0,0.0,0.0,0.0,0.0,0.0,0.0,0.0,0.0,0.0,0.0,0.0,0.0,2.2643,2.2923,2.3259,2.3606,2.3917,2.3937,2.3795,2.3459,2.3117,2.2873,2.2695,2.2426,2.231,2.231,2.231,2.231,2.231,2.231,2.231,2.2288,2.2178,2.1927,2.1631,2.176,2.1937,2.2203,2.2831,0.0,0.0,0.0,0.0,0.0,0.0,0.0,2.5033,2.505,2.478,2.4929,2.6776,2.8383,3.0683,3.5504,3.8413,4.007,4.007,3.9737,3.9061,3.7953,3.8167,3.866,3.9109,3.9818,4.0491,4.0873,4.1308,4.1674,4.2111,4.1477,4.0934,4.0934,4.0968,4.0639,3.9859,3.9125,3.8691,3.8611,3.7288,3.6492,3.6492,3.6492,3.6357,3.6028,3.6327,3.6342,3.6013,3.6013,3.5848,3.5504,3.5504,3.5504,3.5519,3.5863,3.5833,3.5504,3.5504,3.5878,3.6507,3.6806,3.712,3.7509,3.8497,3.8497,3.8033,3.905,3.9215,3.8975,0.0,0.0,0.0,0.0,0.0,0.0,0.0,0.0,0.0,0.0,0.0,0.0,0.0,0.0,0.0,0.0,0.0,0.0,0.0,0.0,0.0,2.3259,2.3544,2.3876,2.419,2.3876,2.3544,2.3189,2.2923,2.2772,2.2695,2.2426,2.231,2.231,2.231,2.231,2.231,2.231,2.231,2.2282,2.1899,2.1718,2.1718,2.1718,2.2082,2.272,2.3207,2.3782,2.4408,2.5152,0.0,0.0,0.0,0.0,2.5338,2.4966,2.4709,2.4862,2.6437,2.8738,3.1833,3.6705,3.8903,3.9918,4.0054,3.961,3.9086,3.9086,3.93,3.9473,3.9594,4.0284,4.0901,4.1014,4.1619,4.2151,4.2269,4.1577,4.1014,4.1014,4.0538,4.0107,3.9865,3.8618,3.7997,3.8416,3.6645,3.5744,3.6297,3.5804,3.5504,3.5504,3.5504,3.5504,3.5504,3.5504,3.5504,3.5504,3.5504,3.5504,3.5504,3.5504,3.5504,3.5504,3.5504,3.5878,3.6522,3.6911,3.715,3.736,3.8482,3.8302,3.7554,3.8796,3.896,3.8631,0.0,0.0,0.0,0.0,0.0,0.0,0.0,0.0,0.0,0.0,2.419,0.0,0.0,0.0,0.0,0.0,0.0,0.0,2.3631,0.0,0.0,2.3631,2.3671,2.3876,2.419,2.3876,2.3544,2.3189,2.3165,2.2996,2.2695,2.2426,2.231,2.231,2.231,2.231,2.231,2.231,2.231,2.2282,2.2237,2.2209,2.2209,2.2209,2.2276,2.2445,2.3144,2.346,2.3646,2.4421,2.4659,0.0,0.0,0.0,2.4864,2.6048,2.549,2.4949,2.7097,3.026,3.3761,3.7077,3.8531,3.9292,3.9935,4.002,3.9952,3.9952,3.8925,3.8251,3.8913,3.9676,4.0415,4.1059,4.1287,4.1576,4.2202,4.1639,4.1165,4.1165,4.1668,4.148,4.0202,3.9235,3.8503,3.795,3.6413,3.5549,3.5624,3.5549,3.5504,3.5504,3.5504,3.5504,3.5504,3.5504,3.5504,3.5504,3.5504,3.5504,3.5504,3.5504,3.5504,3.5504,3.5504,3.5878,3.6447,3.5968,3.6103,3.6626,3.6806,3.709,3.7494,3.8242,3.8841,3.9215,0.0,0.0,0.0,0.0,0.0,0.0,0.0,0.0,0.0,0.0,0.0,2.419,0.0,0.0,0.0,2.3996,2.3976,2.3896,2.3714,2.3876,2.3896,2.3714,2.3692,2.3774,2.3917,2.3414,2.3165,2.3189,2.3021,2.2947,2.2972,2.2857,2.2937,2.3179,2.2733,2.2675,2.2885,2.2496,2.231,2.231,2.231,2.231,2.231,2.231,2.231,2.2344,2.2682,2.2784,2.2902,2.363,2.3866,2.4002,2.4746,0.0,0.0,0.0,2.4983,2.5693,2.8383,3.0598,3.2882,3.5876,3.7516,3.8582,3.9309,3.9783,4.007,4.007,3.9558,3.9172,3.9489,3.9878,4.0234,4.051,4.0578,4.0679,4.1001,4.0781,4.0578,4.0578,4.0849,4.0798,4.0138,3.9384,3.8755,3.8446,3.7397,3.6784,3.6784,3.6352,3.6117,3.6117,3.5733,3.5504,3.5504,3.5504,3.5504,3.5504,3.5504,3.5504,3.5504,3.5504,3.5504,3.5504,3.5504,3.5669,3.5953,3.6028,3.6013,3.6013,3.6731,3.7165,3.7479,3.8138,3.8586,3.8796,0.0,0.0,0.0,0.0,0.0,0.0,0.0,0.0,0.0,0.0,0.0,0.0,0.0,0.0,0.0,0.0,2.419,2.4094,2.3837,2.4074,2.4094,2.3837,2.3816,2.3795,2.3692,2.3212,2.3045,2.3189,2.3045,2.3069,2.3346,2.3414,2.3697,2.4086,2.3345,2.3035,2.3105,2.2733,2.2479,2.231,2.231,2.231,2.231,2.231,2.231,2.231,2.231,2.231,2.2395,2.2936,2.3122,2.3241,2.3985,2.4205,0.0,0.0,0.0,2.5896,2.8518,2.9922,3.1292,3.4083,3.6062,3.7516,3.8261,3.914,3.98,3.98,3.9952,4.007,4.007,4.007,4.007,4.007,4.007,4.007,4.007,4.007,4.007,4.007,4.007,4.007,4.007,3.9368,3.8908,3.8908,3.8206,3.7822,3.7822,3.7219,3.6783,3.6615,3.6054,3.5668,3.5504,3.5504,3.5504,3.5504,3.5504,3.5504,3.5504,3.5504,3.5504,3.5504,3.5504,3.5609,3.5774,3.6103,3.6043,3.5833,3.6611,3.703,3.724,3.7719,3.8003,3.8123,0.0,0.0,0.0,0.0,0.0,0.0,0.0,0.0,0.0,0.0,0.0,0.0,2.419,2.419,2.419,2.419,2.419,2.419,2.417,2.419,2.419,2.417,2.417,0.0,2.3714,2.3671,2.35,2.3189,2.35,2.3671,2.3692,2.3996,2.4353,2.4723,2.4121,2.3292,2.2412,2.3054,2.2936,2.231,2.231,2.231,2.231,2.231,2.231,2.231,2.231,2.231,2.231,2.2344,2.2361,2.2496,2.3224,2.346,2.3579,0.0,0.0,0.0,2.6437,2.796,2.9634,3.1884,3.4117,3.5943,3.6721,3.8007,3.9056,3.9056,3.9597,4.007,4.007,4.007,4.007,4.007,4.007,4.007,4.007,4.007,4.007,4.007,4.007,4.007,4.007,3.9368,3.8908,3.8908,3.8206,3.7822,3.7822,3.7748,3.7397,3.66,3.6554,3.6228,3.5504,3.5504,3.5504,3.5504,3.5504,3.5504,3.5504,3.5504,3.5504,3.5504,3.5504,3.5863,3.6387,3.5804,3.5908,3.6372,3.5818,3.5983,3.6537,3.6567,3.6956,3.7375,0.0,0.0,0.0,0.0,0.0,0.0,0.0,0.0,0.0,0.0,0.0,0.0,0.0,2.419,2.419,2.419,2.419,2.419,2.419,2.419,2.419,2.419,2.3996,2.3816,2.3692,2.35,2.3414,2.3522,2.3649,2.3816,2.4016,2.4151,2.416,2.4082,2.3631,2.3397,2.3309,2.2852,2.2818,2.297,2.2496,2.2581,2.2953,2.2496,2.2598,2.3004,2.3004,2.3308,2.3697,2.3697,2.3393,2.3054,2.3308,2.3071,2.2835,2.3579,2.3782,2.4205,2.6167,2.7097,2.8163,3.0903,3.2544,3.3795,3.503,3.6096,3.6958,3.7466,3.7787,3.8108,3.8599,3.9445,4.007,4.007,4.007,4.007,4.007,4.007,4.007,4.007,4.007,4.007,4.007,3.9833,3.9662,3.9662,3.9454,3.9279,3.9279,3.8816,3.8342,3.8101,3.7616,3.698,3.6228,3.5718,3.5504,3.5504,3.5504,3.5504,3.5504,3.5504,3.5504,3.5504,3.5504,3.5639,3.5833,3.5609,3.5639,3.5833,3.5594,3.5908,3.6492,3.6492,3.6626,3.6791,0.0,0.0,0.0,0.0,0.0,0.0,0.0,0.0,0.0,0.0,0.0,0.0,0.0,0.0,2.419,2.419,2.419,2.419,2.419,2.419,2.419,2.419,2.3996,2.3816,2.3692,2.3588,2.3588,2.3692,2.3816,2.3976,2.419,2.419,2.4074,2.3837,2.3522,2.3435,2.3482,2.3288,2.3272,2.3376,2.3139,2.3325,2.3714,2.3224,2.3342,2.3765,2.3765,2.4069,2.4506,2.4506,2.4002,2.3393,2.3393,2.2885,2.2412,2.2885,2.3207,2.3714,2.5186,2.6116,2.7232,2.9499,3.0987,3.2171,3.3169,3.4353,3.5318,3.5588,3.6045,3.662,3.7381,3.8311,3.9056,3.9309,3.9343,3.9343,3.9343,3.9343,3.9343,3.9343,3.9563,3.9715,3.9715,3.9935,4.007,4.007,4.007,4.007,4.007,3.961,3.9193,3.8908,3.8189,3.7397,3.6615,3.6102,3.5718,3.5504,3.5504,3.5504,3.5504,3.5504,3.5504,3.5504,3.5504,3.5504,3.5504,3.5504,3.5504,3.5504,3.5504,3.5774,3.6148,3.6148,3.6148,3.6193,0.0,0.0,0.0,0.0,0.0,0.0,0.0,0.0,0.0,2.419,0.0,0.0,0.0,0.0,0.0,2.419,2.419,2.419,2.419,2.419,2.419,2.419,2.419,2.4054,2.3714,2.4036,2.4036,2.3714,2.4036,2.419,2.419,2.419,2.419,2.419,2.3876,2.3346,2.2825,2.4323,2.4385,2.3507,2.4232,2.4537,2.454,2.4523,2.4523,2.454,2.454,2.4557,2.4574,2.4574,2.4052,2.346,2.341,2.2919,2.2344,2.231,2.2818,2.3359,0.0,0.0,0.0,2.7588,2.9465,3.1106,3.1157,3.2831,3.4167,3.3491,3.4506,3.5757,3.6502,3.6654,3.6924,3.7652,3.7855,3.7905,3.7905,3.7905,3.7905,3.7905,3.8531,3.8971,3.8988,3.9631,4.0054,4.007,4.007,4.007,4.007,4.007,3.9731,3.8962,3.8206,3.7456,3.6661,3.66,3.6275,3.5569,3.5554,3.5554,3.5569,3.5569,3.5569,3.5569,3.5569,3.5504,3.5504,3.5504,3.5504,3.5504,3.5504,3.5504,3.5504,3.5504,3.5504,3.5609,0.0,0.0,0.0,0.0,0.0,0.0,0.0,0.0,2.419,0.0,0.0,0.0,2.419,2.419,2.419,2.419,2.419,2.419,2.419,2.419,2.419,2.419,2.419,2.4151,2.4074,2.4151,2.4151,2.4074,2.4151,2.419,2.419,2.419,2.419,2.4208,2.4094,2.3816,2.345,2.3618,2.4173,2.4882,2.455,2.4955,2.5665,2.5143,2.5073,2.5304,2.5304,2.5642,2.6082,2.6082,2.5592,2.4814,2.3731,2.3257,2.2987,2.2462,2.2446,2.2733,2.3257,0.0,0.0,0.0,0.0,0.0,3.0159,3.0886,3.141,3.1732,3.2544,3.3271,3.3474,3.3964,3.4404,3.4624,3.6485,3.7905,3.7905,3.7905,3.7905,3.7905,3.8091,3.8413,3.8937,3.9174,3.9512,4.0037,4.007,4.007,4.007,4.007,4.002,3.9782,3.8978,3.8509,3.8286,3.7188,3.6798,3.7175,3.6569,3.6569,3.7175,3.7175,3.7175,3.7115,3.6585,3.6275,3.6275,3.5733,3.5504,3.5504,3.5504,3.5504,3.5504,3.5504,3.5504,3.5609,0.0,0.0,0.0,0.0,0.0,0.0,2.419,2.419,2.419,0.0,0.0,0.0,2.419,2.419,2.419,2.419,2.419,2.419,2.419,2.419,2.419,2.419,2.419,2.419,2.419,2.419,2.419,2.419,2.419,2.419,2.419,2.419,2.419,2.419,2.419,2.4094,2.3896,2.3692,2.4349,2.549,2.5401,2.5975,2.686,2.6433,2.6294,2.629,2.629,2.6687,2.7114,2.6793,2.6201,2.5406,2.4222,2.3849,2.3697,2.2987,2.2987,2.3241,2.3359,2.4154,2.5236,2.6404,0.0,0.0,2.8958,2.9527,2.9875,2.9994,3.0609,3.1206,3.1513,3.1817,3.2222,3.2831,3.4421,3.5673,3.5994,3.6299,3.6485,3.6485,3.7043,3.7601,3.8024,3.8345,3.8717,3.914,3.9462,3.9766,4.0054,4.007,4.007,4.007,3.9662,3.9262,3.8908,3.7987,3.7658,3.7806,3.7322,3.7338,3.7822,3.7822,3.7822,3.7764,3.6964,3.6615,3.6554,3.5782,3.5504,3.5504,3.5504,3.5504,3.5504,3.5504,3.5504,3.5609,0.0,0.0,0.0,2.4247,2.4209,2.419,2.419,2.419,2.419,0.0,2.419,2.419,2.419,2.419,2.419,2.419,2.419,2.419,2.419,2.419,2.419,2.419,2.419,2.419,2.419,2.419,2.419,2.419,2.419,2.419,2.419,2.419,2.419,2.419,2.419,2.419,2.419,2.419,2.4708,2.5557,2.6366,2.7138,2.783,2.7918,2.7707,2.7365,2.7365,2.7545,2.7709,2.7012,2.635,2.572,2.4879,2.4655,2.455,2.3761,2.3985,2.4371,2.3697,2.4594,2.5862,2.6437,2.7334,0.0,2.7823,2.8767,2.9454,2.8572,2.9092,2.9834,3.0387,3.0338,3.0649,3.1952,3.2195,3.2476,3.3406,3.4083,3.4523,3.4607,3.5825,3.6688,3.6772,3.7381,3.7821,3.7905,3.8514,3.9225,4.0037,4.0003,4.0003,4.007,4.007,3.9749,3.8917,3.8929,3.8586,3.7923,3.7946,3.7978,3.8035,3.8035,3.8035,3.8035,3.7188,3.6843,3.6783,3.5943,3.5554,3.5504,3.5504,3.5504,3.5504,3.5504,3.5504,3.5609,0.0,0.0,2.4495,2.4444,2.4303,2.419,2.419,2.419,2.419,2.419,2.419,2.419,2.419,2.419,2.419,2.419,2.419,2.419,2.419,2.419,2.419,2.419,2.419,2.419,2.419,2.419,2.419,2.419,2.419,2.419,2.419,2.419,2.419,2.419,2.419,2.419,2.419,2.419,2.4663,2.5473,2.6312,2.6916,2.7417,2.8065,2.8102,2.7765,2.7765,2.7813,2.7799,2.7355,2.7291,2.721,2.5814,2.5624,2.5665,2.4598,2.4404,2.4472,2.4337,2.5355,2.637,2.593,2.7757,0.0,2.806,2.9403,3.0401,2.873,2.9709,3.0622,2.9851,3.0407,3.1072,3.136,3.141,3.2087,3.4015,3.4404,3.4726,3.5318,3.5656,3.6096,3.6721,3.6907,3.7246,3.7872,3.8041,3.87,4.0003,3.9529,3.9478,4.0054,4.007,3.9733,3.8975,3.8911,3.8858,3.8773,3.8714,3.9032,3.9679,3.9679,3.9679,3.9627,3.8799,3.8453,3.8325,3.6964,3.6054,3.5504,3.5504,3.5504,3.5504,3.5504,3.5504,3.5609,2.5022,2.4809,2.4607,2.4528,2.4428,2.4339,2.4339,2.4339,2.4339,2.4339,2.4247,2.419,2.419,2.419,2.419,2.419,2.419,2.419,2.419,2.419,2.419,2.419,2.419,2.419,2.419,2.419,2.419,2.419,2.419,2.419,2.419,2.419,2.419,2.419,2.419,2.419,2.419,2.419,2.4649,2.5476,2.6282,2.6966,2.7596,2.8397,2.8464,2.8156,2.8156,2.8047,2.7922,2.8087,2.83,2.8293,2.7126,2.7173,2.7362,2.6051,2.5895,2.612,2.5739,2.6561,2.7466,2.7107,2.8269,0.0,0.0,2.9298,2.9937,2.9417,2.9557,2.9697,2.9376,2.9574,2.9994,3.0569,3.0328,3.0987,3.3592,3.3626,3.3525,3.3914,3.4286,3.4675,3.5064,3.5419,3.6113,3.7263,3.7347,3.7821,3.8937,3.865,3.8616,3.8988,3.8988,3.8819,3.8464,3.8774,3.8958,3.9005,3.9327,3.9714,4.007,4.007,4.007,4.007,3.9262,3.8908,3.8799,3.7658,3.6995,3.6538,3.5797,3.5718,3.6054,3.6054,3.629,3.6646,2.5088,2.4917,2.476,2.462,2.4543,2.4512,2.4543,2.4561,2.4526,2.4512,2.4321,2.419,2.419,2.419,2.4318,2.463,2.4373,2.4337,2.463,2.4373,2.419,2.419,2.419,2.419,2.419,2.419,2.419,2.419,2.419,2.419,2.419,2.419,2.419,2.419,2.419,2.419,2.419,2.419,2.4649,2.5476,2.6282,2.709,2.7879,2.8705,2.8797,2.8515,2.8515,2.836,2.82,2.8881,2.9098,2.8959,2.8326,2.8514,2.8749,2.7564,2.766,2.8032,2.7571,2.8193,2.8908,2.8516,2.8956,2.9374,0.0,0.0,0.0,2.9798,2.939,2.9008,2.918,2.8899,2.8921,2.9836,2.9556,3.004,3.2442,3.2357,3.229,3.2865,3.2949,3.3203,3.3778,3.4235,3.5064,3.6451,3.6552,3.6958,3.7855,3.777,3.7753,3.7905,3.7905,3.7905,3.7905,3.8633,3.8988,3.9005,3.9732,4.007,4.007,4.007,4.007,4.007,3.942,3.9139,3.9086,3.8302,3.8035,3.7863,3.6477,3.6305,3.6843,3.6843,3.7263,3.769,2.5264,2.5012,2.4828,2.4924,2.4693,2.4543,2.4746,2.476,2.47,2.4528,2.4321,2.419,2.419,2.419,2.4777,2.6209,2.5016,2.4814,2.6227,2.4997,2.419,2.419,2.419,2.419,2.419,2.419,2.419,2.419,2.419,2.419,2.419,2.419,2.419,2.419,2.419,2.419,2.419,2.419,2.4649,2.5476,2.6282,2.709,2.7879,2.8705,2.8952,2.8929,2.8929,2.8905,2.8943,2.9375,2.9315,2.9004,2.8969,2.8737,2.8523,2.8767,2.8894,2.9107,2.974,3.0477,3.067,2.8937,2.9989,3.0766,2.8105,0.0,3.0938,2.9016,0.0,3.0676,2.9717,0.0,0.0,2.9541,2.9807,3.0091,3.0446,3.097,3.229,3.4928,3.3,3.2476,3.5115,3.4827,3.4844,3.569,3.5757,3.6383,3.7838,3.728,3.7212,3.7889,3.7905,3.7905,3.7905,3.8633,3.8988,3.9005,3.9732,4.007,4.007,4.007,4.007,4.007,4.002,3.9952,3.9901,3.9086,3.8799,3.869,3.7863,3.7589,3.7632,3.7632,3.769,3.7822,2.5303,2.5096,2.4924,2.4998,2.4885,2.4818,2.4885,2.5258,2.5476,2.538,2.5203,2.5096,2.5217,2.5234,2.5327,2.5553,2.5364,2.5327,2.5553,2.4817,2.4375,2.4375,2.4247,2.419,2.419,2.419,2.419,2.419,2.419,2.419,2.419,2.419,2.419,2.419,2.419,2.4447,2.4907,2.4907,2.5621,2.6814,2.7163,2.7787,2.8539,2.8865,2.8994,2.8994,2.8994,2.8994,2.9049,2.918,2.9759,3.0235,2.9323,2.9867,3.0698,2.9969,3.0061,3.0522,3.0867,3.1322,3.1458,3.0172,3.0688,3.104,2.9323,2.9757,3.0373,2.988,0.0,0.0,0.0,0.0,0.0,0.0,3.0018,3.0282,3.0682,3.0716,3.1441,3.3456,3.2205,3.1681,3.2933,3.3136,3.3169,3.3068,3.4252,3.5064,3.5284,3.5402,3.5791,3.6552,3.6586,3.6806,3.7246,3.799,3.8582,3.9005,3.9732,4.007,4.007,4.007,4.007,4.007,4.007,4.007,4.007,3.9731,3.961,3.9558,3.9279,3.8816,3.8414,3.8414,3.8761,3.9049,2.5303,2.5141,2.5022,2.5077,2.5034,2.5099,2.5394,2.5804,2.6166,2.6422,2.6261,2.6085,2.6016,2.6424,2.6461,2.5827,2.6348,2.6461,2.5827,2.5188,2.4735,2.4495,2.4506,2.452,2.452,2.452,2.452,2.452,2.43,2.43,2.452,2.452,2.4649,2.485,2.485,2.5181,2.5713,2.5713,2.6521,2.7787,2.7787,2.8282,2.8994,2.8994,2.8994,2.8994,2.8994,2.8994,2.9012,2.9255,2.9971,3.0577,2.9641,3.054,3.1715,3.054,3.0925,3.1733,3.1733,3.21,3.2216,3.1109,3.1022,3.0907,2.9882,2.9794,3.008,3.0523,3.0287,0.0,0.0,0.0,2.997,2.9959,0.0,3.061,3.0882,3.0779,3.1148,3.2315,3.2185,3.181,3.1385,3.2071,3.2298,3.1833,3.3085,3.3744,3.3423,3.3914,3.4539,3.5284,3.5723,3.6315,3.7077,3.7838,3.8565,3.9292,3.9631,3.9884,4.007,3.9868,3.9884,4.007,4.007,4.007,4.007,4.007,4.007,4.007,4.007,3.9731,3.9262,3.9262,3.961,4.002,2.5303,2.5141,2.5057,2.5264,2.5141,2.5344,2.6378,2.6393,2.6581,2.7433,2.7357,2.6934,2.6088,2.7513,2.8458,2.8301,2.8442,2.8442,2.8282,2.6628,2.5312,2.4513,2.506,2.5366,2.5366,2.5366,2.5366,2.5366,2.4575,2.4593,2.5366,2.5366,2.5768,2.6521,2.6521,2.6539,2.6557,2.6557,2.7034,2.7787,2.7787,2.8282,2.8994,2.8994,2.8994,2.8994,2.8994,2.8994,2.9104,2.9898,2.9696,2.9195,2.9934,3.021,3.0283,3.0228,3.1329,3.2577,3.2577,3.3146,3.3286,3.1365,3.0902,3.0477,2.8827,2.9701,3.0758,3.032,3.1414,3.2265,3.1494,3.1091,3.0595,2.9737,3.0594,0.0,0.0,3.1113,3.2014,3.2803,3.3529,3.3412,3.1944,3.2515,3.3085,3.3313,3.273,3.2662,3.3372,3.3423,3.3778,3.4506,3.596,3.711,3.7872,3.8599,3.9326,4.0037,3.936,3.9394,4.0054,3.9343,3.9411,4.007,4.007,4.007,4.007,4.007,4.007,4.007,4.007,4.007,4.007,4.007,4.007,4.0087,2.5303,2.5253,2.5214,2.5303,2.5234,2.5531,2.6456,2.7369,2.8523,3.0113,3.0095,3.0323,3.1312,3.144,3.1211,3.0628,3.0106,2.9532,2.8893,2.7502,2.6561,2.6298,2.6227,2.619,2.619,2.619,2.619,2.619,2.5915,2.5933,2.619,2.619,2.6337,2.6612,2.6612,2.6906,2.7383,2.7383,2.786,2.8594,2.8594,2.909,2.9751,2.9195,2.8994,2.8994,2.8994,2.8994,2.903,2.9329,2.9586,2.9843,3.0118,3.0577,3.1091,3.1641,3.2173,3.2724,3.3256,3.3587,3.3505,3.2336,3.2036,3.1616,2.9947,3.0447,3.0874,2.9672,3.0265,3.0925,3.0668,3.0497,3.0494,3.0757,3.1583,3.1738,0.0,3.0281,3.0939,3.2505,3.2191,3.1777,3.1561,3.1737,3.1393,3.0229,3.1273,3.1739,3.1241,3.2611,3.3744,3.4472,3.5487,3.6383,3.7144,3.7905,3.8633,3.936,3.9597,3.9834,4.007,3.9817,3.958,3.9394,3.9868,3.98,3.9394,3.9884,4.007,4.007,4.007,4.007,4.007,4.007,4.007,4.007,2.5774,2.5514,2.5303,2.5303,2.5553,2.6063,2.6928,2.8644,3.0381,3.1936,3.253,3.3154,3.4103,3.4237,3.3795,3.2699,3.2372,3.1602,3.0121,2.8902,2.7968,2.7365,2.7214,2.7126,2.7126,2.7059,2.7034,2.7034,2.6741,2.6759,2.7034,2.7034,2.7181,2.7457,2.7457,2.775,2.8227,2.8227,2.8539,2.8994,2.8994,2.9329,2.9732,2.9195,2.9177,2.9475,2.9751,2.9677,2.9475,2.9769,3.021,3.0632,3.0632,3.1182,3.1861,3.2118,3.2577,3.3091,3.3311,3.3587,3.3605,3.2816,3.2834,3.2614,3.0999,3.1458,3.188,3.0558,3.0925,3.1476,3.1476,3.1476,3.1458,3.1403,3.232,3.2507,0.0,3.0396,3.065,3.2192,3.166,3.1373,3.1961,3.1747,3.0973,2.9575,3.0404,3.0834,3.0556,3.2117,3.3422,3.432,3.544,3.6282,3.6772,3.7787,3.8531,3.9005,3.9462,3.9834,4.007,3.9817,3.9445,3.9039,3.9766,3.9665,3.9056,3.9783,4.007,4.007,4.007,4.007,4.007,4.007,4.007,4.007,2.6659,2.6043,2.5476,2.5437,2.6159,2.7005,2.7832,3.0121,3.2064,3.2929,3.4545,3.5353,3.4584,3.5892,3.6199,3.4584,3.5084,3.4468,3.2045,3.0841,2.9483,2.7847,2.8081,2.8222,2.8165,2.7978,2.7864,2.786,2.709,2.7108,2.786,2.786,2.8264,2.8994,2.8994,2.9017,2.9017,2.9017,2.9017,2.9017,2.9053,2.9095,2.9095,2.9168,2.9664,3.0404,3.1097,3.0895,3.0399,3.1152,3.1434,3.1434,3.1489,3.1978,3.2438,3.1715,3.2559,3.3587,3.2871,3.322,3.3623,3.2908,3.3293,3.344,3.188,3.2724,3.3605,3.2724,3.3183,3.3733,3.3733,3.3733,3.3256,3.1751,3.2761,3.3351,3.2177,3.1372,3.1201,3.1949,3.2011,3.2318,3.301,3.2408,3.1727,3.1161,3.0154,3.0051,3.1126,3.197,3.2935,3.4038,3.5812,3.6768,3.6768,3.8159,3.8886,3.8886,3.892,3.9326,4.0003,3.9309,3.8988,3.9039,3.9766,3.9665,3.9056,3.9783,4.007,4.007,4.007,4.007,4.007,4.007,4.007,4.007,2.7563,2.7871,2.7928,2.7332,2.7909,2.8525,2.8756,3.0948,3.3122,3.4641,3.6315,3.7757,3.8757,3.8719,3.845,3.8027,3.6469,3.5218,3.4584,3.2915,3.1474,3.0409,3.029,2.987,2.9077,2.9035,2.8889,2.8705,2.8503,2.8503,2.8705,2.8705,2.8792,2.8994,2.8994,2.9112,2.9289,2.9089,2.9112,2.9344,2.9938,3.0288,3.0544,3.1567,3.1837,3.1592,3.078,3.0891,3.1411,3.1634,3.1824,3.2064,3.2463,3.234,3.2164,3.2948,3.3054,3.2999,3.3385,3.3642,3.3899,3.4302,3.4532,3.4449,3.3403,3.3972,3.4137,3.2118,3.2357,3.2926,3.2926,3.2926,3.2981,3.3146,3.3036,3.2782,3.2501,3.177,3.155,3.2346,3.2437,3.251,3.2711,3.2025,3.1119,3.0086,3.0284,3.0208,2.9619,3.2493,3.4019,3.374,3.5555,3.6517,3.6517,3.7087,3.7347,3.7347,3.7922,3.8565,3.9276,3.9089,3.8988,3.9039,3.9766,3.9665,3.9056,3.9783,4.007,4.007,4.007,4.007,4.007,4.007,4.007,4.007,2.8409,2.9102,2.964,2.9563,3.0544,3.1083,3.0352,3.1756,3.3526,3.5276,3.6969,3.8354,3.9296,3.9662,3.9681,3.9315,3.7988,3.6699,3.557,3.4482,3.3312,3.2053,3.1435,3.0856,3.0244,2.9777,2.9415,2.916,2.916,2.9112,2.8994,2.8994,2.8994,2.8994,2.8994,2.9156,2.9392,2.9334,2.962,3.0132,3.0582,3.0828,0.0,3.2198,3.2464,3.2166,3.1734,3.1995,3.2572,3.2945,3.3161,3.3355,3.3663,3.343,3.3181,3.3809,3.3654,3.3363,3.3713,3.3807,3.3917,3.4376,3.4734,3.477,3.399,3.4431,3.4495,3.2797,3.2816,3.3128,3.3128,3.3128,3.3275,3.3733,3.2834,3.221,3.2559,3.221,3.1953,3.2063,3.2706,3.2724,3.1659,3.1458,3.0814,2.9428,3.0903,3.1333,3.0116,3.3779,3.5439,3.4438,3.6277,3.7271,3.7271,3.8096,3.8232,3.7655,3.8379,3.8836,3.8988,3.8667,3.87,3.9005,3.9428,3.9377,3.9056,3.9783,4.007,4.007,4.007,4.007,4.007,4.007,4.007,4.007,2.9583,3.0294,3.1121,3.1775,3.3256,3.391,3.2583,3.3064,3.4103,3.5641,3.7296,3.8334,3.8334,3.9527,4.0046,3.9354,3.9084,3.8027,3.5815,3.5565,3.4776,3.3141,3.2072,3.1435,3.1306,3.0281,2.9625,2.9434,2.9394,2.9289,2.9044,2.9044,2.9044,2.9044,2.9089,2.9225,2.9454,2.981,3.0385,3.1068,3.1276,3.1312,3.1366,3.2238,3.2541,3.2579,3.3392,3.3658,3.3734,3.4508,3.4793,3.4793,3.4754,3.4754,3.4694,3.4357,3.4288,3.4218,3.3979,3.3895,3.3887,3.3997,3.4513,3.4807,3.4119,3.4504,3.4752,3.3972,3.3807,3.3807,3.3807,3.3807,3.3807,3.3807,3.2632,3.1953,3.2669,3.2761,3.2467,3.1641,3.2871,0.0,3.043,3.1017,3.0889,2.9292,3.1628,3.2619,3.1458,3.4961,3.6539,3.5471,3.7202,3.8262,3.8513,3.9767,3.9852,3.8807,3.9311,3.9313,3.8948,3.8224,3.8311,3.9005,3.9089,3.914,3.9191,3.9817,4.007,4.007,4.007,4.007,4.007,4.007,4.007,4.007,3.2102,3.2929,3.3404,3.2923,3.4199,3.5416,3.5916,3.6642,3.7219,3.7526,3.9008,4.0046,4.0046,3.9719,3.945,3.9296,3.7988,3.6969,3.6526,3.5872,3.5045,3.4007,3.3096,3.221,3.1325,3.0407,2.9845,2.9643,2.9474,2.9372,2.933,2.933,2.933,2.9351,2.9494,2.9607,2.9735,3.0877,3.1317,3.1359,3.2749,3.2997,3.2708,3.4072,3.4292,3.3964,3.4813,3.4993,3.4843,3.4978,3.519,3.532,3.5105,3.5016,3.4981,3.4675,3.4593,3.4593,3.4569,3.4353,3.429,3.5014,3.5106,3.4954,3.4807,3.4899,3.4752,3.3972,3.3807,3.3807,3.3807,3.3807,3.3807,3.3807,3.355,3.3421,3.3568,3.3587,3.3293,3.2504,3.322,3.2852,3.043,3.1531,3.1733,3.0118,3.1675,3.2316,3.1439,3.3945,3.5294,3.5107,3.6317,3.7629,3.8942,3.8839,3.9014,3.9434,3.8447,3.8252,3.8725,3.8142,3.8311,3.9022,3.9631,3.9884,3.9901,4.002,4.007,4.007,4.007,4.007,4.007,4.007,4.007,4.007,3.341,3.393,3.4424,3.4976,3.6107,3.7254,3.8147,3.8965,3.9084,3.8123,3.8315,3.8527,3.8527,3.8584,3.8623,3.8623,3.7853,3.718,3.6738,3.6353,3.5757,3.4911,3.3603,3.266,3.2138,3.086,3.0095,2.9861,2.9643,2.957,2.9551,2.9454,2.9454,2.9551,2.9782,3.0108,3.0576,3.1366,3.2129,3.2867,3.3691,3.3829,3.3686,3.487,3.4846,3.4314,3.5199,3.5417,3.5304,3.5304,3.5383,3.5479,3.5354,3.5304,3.5239,3.4981,3.4908,3.4889,3.4734,3.4572,3.4536,3.4769,3.4711,3.4552,3.4403,3.4394,3.4284,3.388,3.3807,3.3807,3.3807,3.3807,3.3807,3.3807,3.3807,3.3807,3.3807,3.3807,3.3495,3.2706,3.2944,3.2394,3.0393,3.1274,3.1311,2.9714,3.1843,3.2687,3.1458,3.4504,3.6119,3.5697,3.7009,3.85,4.0117,4.0328,4.0293,3.996,3.9299,3.9022,3.9105,3.8112,3.8528,3.9966,3.9644,3.9732,4.007,4.007,4.007,4.007,4.007,4.007,4.007,4.007,4.007,4.007,3.4597,3.4828,3.538,3.6934,3.7977,3.8808,3.9513,4.0304,4.0265,3.8792,3.8007,3.7507,3.731,3.7892,3.8142,3.7757,3.7719,3.7353,3.6507,3.6449,3.6084,3.5257,3.3737,3.2814,3.2641,3.1179,3.0299,3.0089,2.9861,2.9763,2.9746,2.9607,2.9644,2.9848,3.0208,3.0739,3.1422,3.1994,3.2987,3.4218,3.4391,3.4468,3.4545,3.5238,3.5064,3.4564,3.5257,3.5493,3.5493,3.5493,3.5493,3.5493,3.5493,3.5493,3.5446,3.5258,3.519,3.5138,3.4926,3.4832,3.4734,3.4467,3.4338,3.4242,3.3935,3.3928,3.3979,3.3902,3.3954,3.3979,3.3902,3.3876,3.3868,3.3807,3.3807,3.3807,3.3807,3.3807,3.3495,3.2706,3.2614,3.1971,3.0356,3.076,3.0558,2.9104,3.1659,3.2889,3.1953,3.4945,3.6652,3.656,3.7771,3.9313,4.1093,4.1735,4.1512,4.0473,4.051,4.0145,3.9384,3.8537,3.9025,4.0354,3.9696,3.9678,4.007,4.007,4.007,4.007,4.007,4.007,4.007,4.007,4.007,4.007,3.6477,3.6689,3.7068,3.8078,3.8937,3.9535,3.9667,4.0319,4.0752,4.0569,4.0466,4.0096,3.9244,3.921,3.8618,3.6969,3.6834,3.6488,3.568,3.5622,3.5238,3.4353,3.341,3.2564,3.1833,3.0891,3.0398,3.0367,3.0109,2.9969,2.9969,2.9954,3.0075,3.0381,3.1181,3.1597,3.1751,3.3314,3.4064,3.4257,3.5064,3.5391,3.5391,3.5468,3.5449,3.5391,3.5468,3.5493,3.5493,3.5493,3.5493,3.5493,3.5493,3.5493,3.5493,3.5479,3.546,3.5446,3.5432,3.5258,3.507,3.5016,3.4832,3.4572,3.4242,3.4398,3.4529,3.4242,3.4401,3.4508,3.4218,3.4152,3.4074,3.3842,3.3807,3.3807,3.3807,3.3807,3.3495,3.2706,3.2614,3.1971,3.0356,3.0265,2.9953,2.9067,3.0632,3.2192,3.3513,3.3935,3.5128,3.7312,3.7514,3.8726,4.1093,4.1185,4.1152,4.1046,4.127,4.0601,3.9193,3.9993,3.9814,3.8884,4.0153,4.0477,4.007,4.007,4.007,4.007,4.007,4.007,4.007,4.007,4.007,4.007,3.6115,3.6694,3.7376,3.8252,3.917,3.9968,4.0513,4.085,4.1041,4.1042,4.0477,3.9954,3.9547,3.9026,3.858,3.8349,3.7334,3.6796,3.6988,3.6065,3.5122,3.4237,3.3372,3.2526,3.1718,3.0852,3.0398,3.0398,3.0652,3.0854,3.1021,3.0854,3.0915,3.1198,3.1545,3.2256,3.3237,3.391,3.4507,3.5007,3.5372,3.5493,3.5493,3.5493,3.5493,3.5493,3.5493,3.5493,3.5493,3.5493,3.5493,3.5493,3.5493,3.5493,3.5493,3.5493,3.5493,3.5493,3.5493,3.5432,3.5304,3.5138,3.5016,3.4851,3.4572,3.4593,3.4653,3.4529,3.4612,3.4653,3.4529,3.4334,3.4152,3.4068,3.3902,3.3807,3.3807,3.3807,3.3495,3.2706,3.2614,3.2173,3.1017,3.0485,3.0668,3.1806,3.1568,3.1678,3.232,3.3275,3.4926,3.7434,3.7019,3.8175,4.1075,4.1111,4.0873,4.0396,4.1476,4.1407,4.0315,4.0869,4.0678,4.0037,4.0643,4.0625,4.007,4.007,4.007,4.007,4.007,4.007,4.007,4.007,4.007,4.0138,3.6086,3.692,3.7861,3.8695,3.9636,4.0492,4.1113,4.1205,4.1192,4.1192,4.031,3.9666,3.9627,3.9271,3.893,3.871,3.7738,3.718,3.7296,3.618,3.5122,3.4237,3.3372,3.2526,3.1718,3.0852,3.0398,3.0398,3.0822,3.1142,3.1314,3.1109,3.1276,3.1718,3.1948,3.2852,3.4218,3.4468,3.4949,3.5493,3.5493,3.5493,3.5493,3.5493,3.5493,3.5493,3.5493,3.5493,3.5493,3.5493,3.5493,3.5493,3.5493,3.5493,3.5493,3.5493,3.5493,3.5493,3.5493,3.5493,3.5446,3.5254,3.5223,3.5157,3.4889,3.4889,3.4944,3.4944,3.4944,3.4908,3.4832,3.4615,3.4405,3.4223,3.4043,3.3928,3.3928,3.3928,3.3732,3.3259,3.2988,3.2569,3.1942,3.1125,3.1341,3.2963,3.2467,3.221,3.2449,3.3311,3.4926,3.7434,3.7165,3.8322,4.1075,4.135,4.0928,3.9918,4.1772,4.1974,4.0749,4.1216,4.1399,4.1402,4.1223,4.0844,4.0336,4.0336,4.0254,4.007,4.007,4.007,4.007,4.007,4.007,4.0155,3.7011,3.7936,3.8867,3.9726,4.0605,4.1191,4.1191,4.1191,4.1191,4.1191,4.0449,3.9844,3.9707,4.0469,3.9899,3.7261,3.7743,3.7454,3.5738,3.5565,3.5122,3.4237,3.3372,3.2526,3.1718,3.0852,3.0398,3.0398,3.0398,3.0398,3.0417,3.0398,3.0859,3.1737,3.2526,3.3372,3.4257,3.5122,3.5474,3.5493,3.5493,3.5493,3.5493,3.5493,3.5493,3.5493,3.5493,3.5493,3.5493,3.5493,3.5493,3.5493,3.5493,3.5493,3.5493,3.5493,3.5493,3.5493,3.5493,3.5493,3.5493,3.5493,3.5493,3.5432,3.5174,3.5304,3.5493,3.5493,3.5493,3.5417,3.5138,3.5088,3.4888,3.4292,3.42,3.4218,3.4218,3.4218,3.4292,3.4634,3.3921,3.3294,3.3011,3.2247,3.1689,3.1446,3.2871,3.4119,3.4899,3.4229,3.4926,3.7434,3.8267,3.946,4.1093,4.1901,4.1479,3.9918,4.2323,4.2213,3.9955,4.0962,4.1843,4.2655,4.2038,4.1446,4.0903,4.0903,4.0577,4.007,4.007,4.007,4.007,4.007,4.007,4.007,3.6333,3.7587,3.8691,3.8965,4.0234,4.1191,4.1191,4.1191,4.1191,4.1191,4.0957,4.0547,3.9902,3.9473,3.8882,3.8034,3.7599,3.7127,3.6526,3.5897,3.5161,3.4237,3.393,3.3122,3.1737,3.1429,3.1006,3.0398,3.1006,3.1295,3.1295,3.1852,3.2256,3.2564,3.341,3.4276,3.5103,3.5391,3.5493,3.5493,3.5493,3.5493,3.5493,3.5493,3.5493,3.5493,3.5493,3.5493,3.5493,3.5493,3.5493,3.5493,3.5493,3.5493,3.5493,3.5493,3.5493,3.5493,3.5493,3.5493,3.5493,3.5493,3.5493,3.5479,3.5383,3.5432,3.5493,3.5493,3.5493,3.546,3.5383,3.5223,3.5034,3.4832,3.4655,3.4551,3.4551,3.4551,3.4346,3.3884,3.4091,3.4014,3.333,3.3029,3.3243,3.4136,3.413,3.3857,3.3385,3.4724,3.6119,3.7441,3.8285,3.9478,4.1093,4.1901,4.1772,4.0744,4.2598,4.3094,4.2359,4.2699,4.2796,4.2711,4.248,4.208,4.1534,4.1534,4.1402,4.1241,4.1241,4.1241,4.1196,4.0797,4.1016,4.1469,3.5996,3.7402,3.8594,3.8594,4.0039,4.1191,4.1191,4.1191,4.1191,4.1191,4.0918,4.0508,3.9961,3.8769,3.7988,3.7988,3.7435,3.6929,3.6559,3.5975,3.5353,3.4757,3.4397,3.3743,3.266,3.2045,3.1455,3.0891,3.1121,3.1218,3.1237,3.2064,3.2602,3.2949,3.3814,3.468,3.5493,3.5493,3.5493,3.5493,3.5493,3.5493,3.5493,3.5493,3.5493,3.5493,3.5493,3.5493,3.5493,3.5493,3.5493,3.5493,3.5493,3.5493,3.5493,3.5493,3.5493,3.5493,3.5493,3.5493,3.5493,3.5493,3.5493,3.5493,3.5493,3.5493,3.5493,3.5493,3.5493,3.5493,3.5493,3.5369,3.5223,3.5122,3.4963,3.4851,3.4851,3.4851,3.4699,3.4255,3.4656,3.4754,3.4092,3.4301,3.4639,3.4987,3.5653,3.5298,3.3587,3.5275,3.667,3.7489,3.856,3.9918,4.1534,4.2359,4.2359,4.157,4.2561,4.3204,4.3497,4.3497,4.3339,4.3014,4.3014,4.2675,4.2121,4.2121,4.1979,4.181,4.181,4.197,4.2192,4.1586,4.1873,4.2521,3.6074,3.7441,3.8613,3.8672,4.0078,4.1191,4.1191,4.1191,4.1191,4.1191,4.0488,3.9961,3.9902,3.8398,3.7363,3.7305,3.7187,3.6777,3.5957,3.5788,3.5689,3.5624,3.4839,3.4326,3.4218,3.2667,3.1782,3.1621,3.0871,3.0494,3.0513,3.1448,3.2275,3.3026,3.3891,3.4737,3.5493,3.5493,3.5493,3.5493,3.5493,3.5493,3.5493,3.5493,3.5493,3.5493,3.5493,3.5493,3.5493,3.5493,3.5493,3.5493,3.5493,3.5493,3.5493,3.5493,3.5493,3.5493,3.5493,3.5493,3.5493,3.5493,3.5493,3.5493,3.5493,3.5493,3.5493,3.5493,3.5493,3.5493,3.5493,3.5493,3.5417,3.5174,3.5122,3.5122,3.5122,3.5122,3.5223,3.546,3.5565,3.5456,3.5157,3.5864,3.578,3.4419,3.7187,3.7848,3.5312,3.6046,3.6872,3.7551,3.9184,4.0781,4.2286,4.3094,4.3112,4.2378,4.2378,4.2782,4.3497,4.3497,4.3497,4.3497,4.3497,4.3214,4.275,4.275,4.2422,4.1937,4.1937,4.2399,4.303,4.2364,4.2684,4.3311,3.6855,3.7851,3.8809,3.9473,4.0488,4.1191,4.1191,4.1191,4.1191,4.1191,4.1016,4.0644,3.9961,3.8945,3.8027,3.7363,3.668,3.6172,3.5918,3.5867,3.5792,3.5682,3.5423,3.4974,3.4288,3.3205,3.2006,3.0717,3.1179,3.1391,3.1429,3.291,3.3699,3.393,3.4795,3.5315,3.5493,3.5493,3.5493,3.5493,3.5493,3.5493,3.5493,3.5493,3.5493,3.5493,3.5493,3.5493,3.5493,3.5493,3.5493,3.5493,3.5493,3.5493,3.5493,3.5493,3.5493,3.5493,3.5493,3.5493,3.5493,3.5493,3.5493,3.5493,3.5493,3.5493,3.5493,3.5493,3.5493,3.5493,3.5493,3.5493,3.5479,3.5417,3.5417,3.5417,3.5417,3.5417,3.5432,3.5493,3.6045,3.6152,3.5475,3.6128,3.6298,3.5555,3.6784,3.7368,3.6919,3.8267,3.8854,3.8432,4.0579,4.1919,4.2304,4.3094,4.3387,4.3222,4.3222,4.3314,4.3497,4.3497,4.3497,4.3497,4.3497,4.341,4.3286,4.3286,4.325,4.3105,4.3105,4.3597,4.4177,4.3091,4.3603,4.4624,3.7715,3.8281,3.8867,3.9746,4.0625,4.1191,4.1191,4.1191,4.1055,4.0664,4.0957,4.0879,4.0,3.9121,3.8418,3.7949,3.6738,3.5976,3.5957,3.5957,3.5895,3.5802,3.5756,3.5301,3.4408,3.3922,3.2833,3.1095,3.1487,3.1698,3.1737,3.341,3.4199,3.4237,3.5122,3.5493,3.5493,3.5493,3.5493,3.5493,3.5493,3.5493,3.5493,3.5493,3.5493,3.5493,3.5493,3.5493,3.5493,3.5493,3.5493,3.5493,3.5493,3.5493,3.5493,3.5493,3.5493,3.5493,3.5493,3.5493,3.5493,3.5493,3.5493,3.5493,3.5493,3.5493,3.5493,3.5493,3.5493,3.5493,3.5493,3.5493,3.5493,3.5493,3.5493,3.5493,3.5493,3.5493,3.5641,3.6007,3.643,3.668,3.6661,3.7411,3.7559,3.6729,3.8342,3.9015,3.8275,4.0357,4.1001,3.9845,4.1423,4.2488,4.2837,4.3277,4.3497,4.3497,4.3497,4.3497,4.3497,4.3497,4.3497,4.3497,4.3497,4.3497,4.3497,4.3497,4.3497,4.3497,4.3497,4.4213,4.5132,4.4191,4.4645,4.5605,3.8398,3.8594,3.8926,3.9922,4.0703,4.1191,4.1191,4.1191,4.0898,4.0019,4.0664,4.0879,4.0,3.9121,3.8594,3.8594,3.7012,3.5996,3.5996,3.5996,3.5976,3.5918,3.5908,3.5538,3.4732,3.4488,3.3564,3.1908,3.1768,3.1718,3.1756,3.3295,3.4064,3.4218,3.4834,3.518,3.5295,3.5161,3.518,3.5315,3.5315,3.5391,3.5493,3.5493,3.5493,3.5493,3.5493,3.5493,3.5493,3.5493,3.5493,3.5493,3.5493,3.5493,3.5493,3.5493,3.5493,3.5493,3.5493,3.5493,3.5493,3.5493,3.5493,3.5493,3.5493,3.5493,3.5493,3.5493,3.5493,3.5493,3.5493,3.5493,3.5532,3.5661,3.5584,3.5532,3.5661,3.568,3.593,3.6622,3.693,3.7334,3.7969,3.8796,3.8888,3.7882,4.0173,4.101,3.9554,4.1926,4.2745,4.1515,4.2121,4.2834,4.3563,4.3563,4.3563,4.3563,4.3513,4.3497,4.3497,4.3497,4.3497,4.3497,4.3497,4.3497,4.3497,4.3497,4.3497,4.3497,4.3497,4.4397,4.5645,4.5204,4.5584,4.6271,3.8281,3.8594,3.9101,4.0723,4.1113,4.1191,4.1191,4.1191,4.0898,4.0019,4.0664,4.0879,4.0,3.9121,3.8594,3.8594,3.7012,3.5996,3.5996,3.5996,3.5996,3.5976,3.5932,3.5834,3.5679,3.4187,3.2918,3.1908,3.1831,3.1768,3.1802,3.2699,3.3487,3.416,3.3564,3.3718,3.4353,3.3622,3.3737,3.4391,3.4391,3.4834,3.5493,3.5493,3.5493,3.5493,3.5493,3.5493,3.5493,3.5493,3.5493,3.5493,3.5493,3.5493,3.5493,3.5493,3.5493,3.5493,3.5493,3.5493,3.5493,3.5493,3.5493,3.5493,3.5493,3.5493,3.5493,3.5493,3.5493,3.5493,3.5493,3.5493,3.5718,3.6411,3.5949,3.5738,3.643,3.6507,3.6565,3.6699,3.8007,3.8715,3.8214,3.8849,3.9161,3.8804,3.9464,4.0272,4.1166,4.2018,4.2671,4.3112,4.324,4.3517,4.3924,4.3924,4.3924,4.3924,4.3664,4.3497,4.3497,4.3497,4.3497,4.3497,4.3497,4.3497,4.3497,4.3497,4.3497,4.3497,4.3497,4.4066,4.4894,4.4947,4.5516,4.6165,3.9668,3.9629,3.9707,4.0976,4.1191,4.1191,4.1191,4.1191,4.0898,4.0019,4.0664,4.0684,3.9355,3.8848,3.8418,3.7949,3.6738,3.5996,3.5996,3.5996,3.5996,3.5996,3.5976,3.5954,3.5949,3.3721,3.2588,3.2658,3.212,3.1835,3.1826,3.2596,3.3154,3.3487,3.3083,3.3122,3.3506,3.3564,3.3833,3.4237,3.4718,3.5141,3.5493,3.5493,3.5493,3.5493,3.5493,3.5493,3.5584,3.6007,3.6161,3.6161,3.6161,3.6161,3.6161,3.6161,3.5853,3.5493,3.5493,3.5493,3.5493,3.5493,3.5493,3.5493,3.5493,3.5493,3.5493,3.5493,3.5853,3.6161,3.6161,3.6161,3.643,3.7257,3.6334,3.5949,3.7219,3.7007,3.7046,3.7988,3.8849,3.9407,3.9523,3.9849,4.003,3.9923,4.0253,4.0858,4.1777,4.2473,4.3137,4.3754,4.3772,4.3943,4.4318,4.4087,4.4016,4.4016,4.3679,4.3497,4.3497,4.3497,4.3497,4.3497,4.3497,4.3497,4.3497,4.3497,4.3497,4.3534,4.3975,4.4378,4.482,4.5787,4.6168,4.6236,4.0605,4.0351,4.0176,4.1055,4.1191,4.1191,4.1191,4.1191,4.0898,4.0019,4.0488,4.0312,3.8769,3.8418,3.8027,3.7363,3.6504,3.5996,3.5996,3.5996,3.5996,3.5996,3.5996,3.5996,3.5996,3.3594,3.2656,3.332,3.2176,3.1599,3.1534,3.2131,3.2499,3.2602,3.241,3.2545,3.2929,3.341,3.3833,3.4257,3.493,3.5334,3.5493,3.5493,3.5493,3.5493,3.5493,3.5622,3.5872,3.6488,3.6834,3.7007,3.7007,3.7007,3.7007,3.7007,3.6565,3.6007,3.5622,3.5493,3.5532,3.5738,3.5795,3.5834,3.6026,3.6084,3.6084,3.6084,3.6603,3.7046,3.7007,3.7026,3.7334,3.8161,3.7046,3.6603,3.8084,3.7738,3.7796,3.9142,3.9503,3.9952,4.064,4.0868,4.0894,4.0731,4.1437,4.1958,4.2106,4.3052,4.3796,4.4224,4.4261,4.4401,4.4707,4.4401,4.4233,4.4136,4.3772,4.3563,4.3497,4.3497,4.3497,4.3497,4.3497,4.3497,4.3497,4.3497,4.3497,4.3552,4.4176,4.4544,4.4874,4.6305,4.6645,4.6504,3.9805,3.9941,4.0176,4.1055,4.1191,4.1191,4.1191,4.1191,4.0898,4.0019,3.9961,3.9648,3.8691,3.7871,3.7363,3.7305,3.6504,3.5996,3.5996,3.5996,3.5996,3.5996,3.5996,3.5996,3.5996,3.4219,3.332,3.3398,3.164,3.074,3.0698,3.0684,3.1083,3.1756,3.0948,3.1448,3.2852,3.2179,3.2776,3.4199,3.4257,3.4776,3.5493,3.5493,3.5493,3.5493,3.5493,3.5988,3.6622,3.668,3.7238,3.7892,3.7892,3.7892,3.7892,3.7892,3.7853,3.7488,3.593,3.5493,3.568,3.643,3.6622,3.6815,3.7623,3.7815,3.7815,3.7815,3.7964,3.8041,3.793,3.8007,3.8334,3.9084,3.8411,3.8142,3.9065,3.9142,3.9161,3.9277,3.995,4.0519,4.077,4.1339,4.1447,4.0831,4.2546,4.3283,4.25,4.3748,4.4675,4.5011,4.5011,4.5033,4.5074,4.5033,4.4853,4.4553,4.4146,4.3804,4.3497,4.3497,4.3497,4.3497,4.3497,4.3497,4.3497,4.3497,4.3497,4.3497,4.3552,4.4048,4.4819,4.5681,4.6434,4.7053,3.9629,3.9902,4.0176,4.1055,4.1191,4.1191,4.1191,4.1191,4.0898,4.0019,3.9902,3.9355,3.7949,3.75,3.707,3.6543,3.6191,3.5996,3.5996,3.5996,3.5996,3.5996,3.5996,3.5996,3.5996,3.4297,3.3398,3.3398,3.168,3.0779,3.0665,3.0634,3.0737,3.0948,3.0621,3.1102,3.2179,3.2352,3.3122,3.4237,3.4795,3.5199,3.5493,3.5493,3.5493,3.5493,3.5493,3.5699,3.6122,3.7161,3.7738,3.8084,3.8642,3.8815,3.87,3.8161,3.8373,3.8546,3.7373,3.7046,3.7123,3.743,3.7507,3.7584,3.7911,3.8007,3.8027,3.8118,3.8979,3.9758,3.98,4.0243,4.0693,4.0943,3.9788,3.9138,3.9931,3.9604,3.9681,4.0739,4.1181,4.1489,4.1603,4.2256,4.2376,4.1671,4.2713,4.335,4.3323,4.4338,4.5074,4.54,4.5419,4.5419,4.5419,4.5201,4.5052,4.4896,4.4535,4.4308,4.4165,4.3912,4.3804,4.3804,4.3597,4.3497,4.3497,4.3497,4.3497,4.3589,4.4599,4.4874,4.4929,4.6728,4.7278,4.7186,3.9258,3.9707,4.0098,4.0684,4.1016,4.1191,4.1191,4.1191,4.0898,4.0019,3.9668,3.8926,3.7461,3.7051,3.6641,3.6055,3.5996,3.5996,3.5996,3.6269,3.6406,3.6406,3.6406,3.6406,3.6406,3.4707,3.3809,3.3809,3.2129,3.123,3.1094,3.0831,3.0798,3.0936,3.0937,3.1537,3.2538,3.3115,3.3833,3.4661,3.5257,3.5493,3.5493,3.5493,3.5493,3.5493,3.5493,3.5853,3.6469,3.7603,3.8354,3.8892,3.9488,3.9681,3.9546,3.895,3.92,3.9546,3.895,3.8988,3.9065,3.8546,3.8411,3.8469,3.8719,3.8815,3.8965,3.9326,4.0361,4.1299,4.163,4.2159,4.2532,4.24,4.1369,4.0754,4.1239,4.0835,4.0912,4.2066,4.2297,4.2409,4.2502,4.3181,4.33,4.2558,4.3359,4.4035,4.4344,4.4917,4.5362,4.5586,4.5586,4.5586,4.5586,4.5362,4.5201,4.5096,4.4872,4.4682,4.4599,4.4175,4.4016,4.3986,4.3646,4.3497,4.3497,4.3497,4.3497,4.3626,4.4984,4.5351,4.5314,4.7223,4.7737,4.7572,3.8594,3.9297,3.9902,3.9902,4.0625,4.1191,4.1191,4.1191,4.0898,4.0019,3.9141,3.8281,3.7402,3.6523,3.6016,3.6016,3.6016,3.6016,3.6016,3.6836,3.7305,3.7305,3.7305,3.7305,3.7285,3.5586,3.4707,3.4707,3.3027,3.2148,3.1992,3.1113,3.1138,3.1909,3.1903,3.2786,3.4301,3.4302,3.4776,3.5493,3.5493,3.5493,3.5493,3.5493,3.5493,3.5512,3.5512,3.6584,3.8007,3.8007,3.9123,4.0489,4.0508,4.0508,4.0508,4.0508,4.0508,4.0508,4.0508,4.1143,4.1412,3.9719,3.9315,3.9527,4.0315,4.062,4.0947,4.1825,4.2167,4.2535,4.3275,4.3525,4.352,4.3258,4.3206,4.3195,4.3104,4.3104,4.3104,4.3104,4.3159,4.3272,4.341,4.4072,4.4195,4.3455,4.478,4.5586,4.5586,4.5586,4.5586,4.5586,4.5586,4.5586,4.5586,4.5586,4.5438,4.5096,4.5096,4.4919,4.458,4.4194,4.4016,4.3986,4.3664,4.3516,4.3497,4.3497,4.3497,4.3589,4.4397,4.5204,4.5993,4.6819,4.7627,4.8306,3.8476,3.9297,4.0098,4.0703,4.1035,4.1191,4.1191,4.1191,4.0898,4.0019,3.9668,3.918,3.8301,3.7422,3.7168,3.7773,3.7266,3.7168,3.7773,3.8066,3.8203,3.8203,3.7637,3.7012,3.6406,3.5273,3.4707,3.4707,3.3594,3.3027,3.2969,3.2148,3.2167,3.286,3.2238,3.2883,3.4431,3.443,3.4899,3.5641,3.5641,3.5622,3.5584,3.5584,3.5892,3.6353,3.6353,3.7065,3.8084,3.87,3.9623,4.07,4.1931,4.2316,4.22,4.1585,4.1412,4.1412,4.1412,4.1604,4.1527,4.0412,4.1046,4.17,4.0719,4.1505,4.2386,4.2128,4.3163,4.4208,4.4473,4.5056,4.5253,4.451,4.4303,4.4008,4.3261,4.3143,4.3316,4.3874,4.3951,4.4013,4.4156,4.4834,4.4958,4.4224,4.5049,4.5586,4.5586,4.5586,4.5586,4.5586,4.5586,4.5586,4.5586,4.5586,4.555,4.5438,4.5438,4.54,4.5302,4.5536,4.5167,4.4476,4.5277,4.5146,4.4342,4.4342,4.4342,4.4415,4.5241,4.5681,4.6067,4.7443,4.8104,4.8306,3.8437,3.9023,3.9644,4.0452,4.0645,4.0781,4.1074,4.1172,4.0898,4.0019,3.9902,3.9434,3.8223,3.793,3.7891,3.8066,3.7598,3.7676,3.8535,3.8594,3.8457,3.8105,3.8242,3.7754,3.6543,3.5664,3.5215,3.5215,3.4336,3.3906,3.3906,3.3066,3.3105,3.3828,3.3301,3.3803,3.5057,3.5048,3.529,3.5704,3.5704,3.5684,3.5654,3.5637,3.6122,3.6781,3.6781,3.7531,3.8584,3.9123,4.0065,4.12,4.2258,4.2816,4.3008,4.247,4.2316,4.2316,4.2316,4.2547,4.2585,4.1739,4.2316,4.2816,4.1758,4.239,4.3202,4.314,4.4042,4.4986,4.5427,4.5937,4.6094,4.5488,4.5312,4.5013,4.4328,4.4182,4.4335,4.4836,4.4913,4.4961,4.5056,4.5456,4.549,4.4972,4.5355,4.5586,4.5586,4.5586,4.5586,4.5586,4.5586,4.5586,4.5586,4.5586,4.5586,4.5586,4.5586,4.5586,4.5605,4.5759,4.5546,4.51,4.5709,4.5504,4.4727,4.5039,4.5002,4.4819,4.5938,4.6379,4.6526,4.7829,4.8306,4.8306,3.8535,3.8711,3.8954,3.9681,3.9926,4.0211,4.0877,4.1093,4.0898,4.0098,4.0019,3.9414,3.7812,3.8281,3.8437,3.7715,3.7578,3.7891,3.8789,3.8769,3.8359,3.7578,3.9043,3.9121,3.7441,3.6562,3.6074,3.5996,3.5215,3.4824,3.4805,3.3926,3.3984,3.4805,3.4726,3.5156,3.5918,3.5918,3.5843,3.5729,3.5729,3.5729,3.571,3.5723,3.6247,3.7016,3.7017,3.8035,3.945,3.9585,4.0642,4.195,4.2085,4.2681,4.3316,4.3239,4.3201,4.3201,4.3201,4.3739,4.4143,4.3489,4.3316,4.3278,4.3124,4.3275,4.367,4.4501,4.4805,4.5195,4.6113,4.6289,4.6269,4.6133,4.6113,4.6039,4.5843,4.5794,4.5796,4.5796,4.5853,4.589,4.5905,4.589,4.5815,4.5605,4.5586,4.5586,4.5586,4.5586,4.5586,4.5586,4.5586,4.5586,4.5586,4.5586,4.5586,4.5586,4.5586,4.5586,4.5586,4.5359,4.5475,4.5825,4.5589,4.524,4.4945,4.5681,4.5535,4.4966,4.6507,4.7113,4.7223,4.8012,4.8306,4.8306,3.9316,3.9629,3.9855,4.0596,4.0731,4.0779,4.0838,4.0957,4.0976,4.0781,4.0859,4.0762,4.0391,3.9902,3.9824,4.0312,3.9726,3.9707,4.0586,4.0,3.9531,3.9336,3.9707,3.9394,3.834,3.7461,3.668,3.5996,3.5801,3.5723,3.5703,3.4824,3.4883,3.5684,3.5,3.5176,3.5976,3.5976,3.5956,3.593,3.593,3.5891,3.5852,3.586,3.6757,3.7985,3.7874,3.8935,4.06,4.1854,4.2527,4.3047,4.4355,4.4913,4.4913,4.4239,4.4047,4.4047,4.4047,4.4162,4.4412,4.4932,4.5047,4.4701,4.3393,4.4218,4.5098,4.4635,4.5222,4.5879,4.6094,4.623,4.6289,4.6269,4.6172,4.6041,4.5901,4.5829,4.5796,4.5796,4.5815,4.5851,4.5897,4.5853,4.5757,4.5605,4.5586,4.5586,4.5586,4.5586,4.5586,4.5586,4.5586,4.5586,4.5586,4.5586,4.5586,4.5586,4.5586,4.5586,4.5624,4.6224,4.6374,4.624,4.7154,4.7005,4.6145,4.6635,4.6379,4.5736,4.6728,4.7113,4.7223,4.8012,4.8306,4.8306,4.0254,4.0134,4.003,4.0784,4.0602,4.0429,4.0711,4.0897,4.0992,4.0995,4.1113,4.1035,4.0625,4.0547,4.0703,4.1152,4.0391,4.0273,4.1133,4.0371,3.9902,3.9902,4.0293,3.9922,3.8633,3.8555,3.791,3.6621,3.6191,3.5996,3.5996,3.5527,3.5566,3.5976,3.5527,3.5566,3.5996,3.5996,3.5996,3.5996,3.5996,3.623,3.6562,3.6562,3.7572,3.8965,3.889,3.9662,4.0831,4.1585,4.2412,4.3258,4.4124,4.4951,4.5509,4.5047,4.4913,4.4913,4.4913,4.4913,4.5028,4.549,4.5586,4.5355,4.4489,4.5009,4.5603,4.5199,4.5583,4.6014,4.6091,4.6211,4.6308,4.6308,4.623,4.6124,4.5932,4.5872,4.5834,4.5796,4.5838,4.5897,4.5997,4.5886,4.5776,4.5699,4.5624,4.5586,4.5586,4.5586,4.5586,4.5586,4.5586,4.5586,4.5586,4.5586,4.5797,4.622,4.622,4.622,4.624,4.6701,4.7106,4.7495,4.7764,4.7691,4.7372,4.7779,4.7494,4.6812,4.7426,4.7682,4.7737,4.8141,4.8306,4.8306,4.0962,4.0364,3.9923,4.0665,4.0224,3.9992,4.0581,4.0831,4.0951,4.096,4.1073,4.0898,4.0195,4.0762,4.1191,4.1191,4.0547,4.043,4.1152,4.0527,4.0117,4.0117,4.0801,4.0527,3.9082,3.9609,3.9121,3.7519,3.6797,3.6367,3.6211,3.6211,3.6133,3.5996,3.5996,3.5996,3.5996,3.5996,3.6094,3.6211,3.6211,3.6738,3.7519,3.7519,3.8437,3.9723,3.9714,4.013,4.0716,4.0735,4.17,4.2931,4.3201,4.4259,4.5413,4.5547,4.5586,4.5586,4.5586,4.5586,4.5586,4.5586,4.5605,4.5624,4.5605,4.5586,4.5624,4.5738,4.5834,4.5935,4.6046,4.619,4.6308,4.6308,4.6308,4.6217,4.5978,4.5921,4.5873,4.5815,4.5866,4.5935,4.6069,4.5891,4.5796,4.5796,4.568,4.5586,4.5586,4.5586,4.5586,4.5586,4.574,4.5817,4.5817,4.5951,4.6394,4.7105,4.7259,4.7259,4.7105,4.7105,4.7759,4.8865,4.8071,4.7979,4.8445,4.8834,4.8478,4.7746,4.8236,4.8364,4.8306,4.8306,4.8306,4.8306,4.0723,4.0314,3.9912,4.0583,4.0611,4.0562,4.0543,4.0658,4.0745,4.0809,4.0935,4.1035,4.1016,4.1133,4.1191,4.1191,4.1094,4.1074,4.1191,4.1094,4.1016,4.1016,4.1133,4.1094,4.0859,4.0234,3.9414,3.8418,3.8301,3.7851,3.7129,3.7129,3.6719,3.5996,3.5996,3.5996,3.5996,3.5996,3.6445,3.7129,3.7129,3.7656,3.8418,3.8418,3.9023,3.9863,3.974,4.0132,4.0812,4.154,4.187,4.2239,4.3682,4.4297,4.4624,4.5374,4.5586,4.5586,4.5586,4.5586,4.5586,4.5586,4.5699,4.5738,4.5624,4.5586,4.5605,4.5605,4.5776,4.5905,4.5918,4.6124,4.6308,4.6308,4.6308,4.6257,4.6085,4.5965,4.5911,4.5892,4.5886,4.591,4.5931,4.5844,4.5796,4.5796,4.568,4.5586,4.5586,4.5586,4.5586,4.5586,4.6336,4.6721,4.6721,4.7413,4.7817,4.7952,4.8702,4.8663,4.7952,4.7952,4.8433,4.9298,4.8812,4.8696,4.8838,4.9249,4.8746,4.776,4.8531,4.8604,4.8306,4.8306,4.8306,4.8306,4.0757,4.06,4.0354,4.0658,4.0639,4.0581,4.0508,4.062,4.0718,4.0732,4.0891,4.1016,4.1074,4.1152,4.1191,4.1191,4.1191,4.1191,4.1191,4.1191,4.1191,4.1191,4.1191,4.1191,4.1191,4.082,4.0449,4.0059,3.8594,3.7676,3.7285,3.6797,3.6367,3.5996,3.5996,3.5996,3.5996,3.5996,3.6211,3.6621,3.7109,3.7812,3.8652,3.9141,3.9863,4.0664,4.1035,4.1345,4.1704,4.2419,4.2961,4.3426,4.4102,4.4624,4.5086,4.549,4.5586,4.5586,4.5586,4.5586,4.5586,4.5586,4.5699,4.5776,4.5738,4.5738,4.5738,4.5605,4.5738,4.587,4.5891,4.6058,4.6211,4.6289,4.6308,4.6243,4.6118,4.6048,4.5988,4.5911,4.5862,4.5868,4.5909,4.5834,4.5796,4.5796,4.568,4.5586,4.5586,4.5586,4.5817,4.6317,4.6701,4.7124,4.7567,4.7932,4.8336,4.8836,4.9221,4.9202,4.8836,4.8836,4.9298,5.0087,4.9429,4.9424,4.9904,4.9847,4.9519,4.9023,4.8945,4.8657,4.8306,4.8306,4.8306,4.8306]},{"header":{"parameterUnit":"m.s-1","parameterCategory":1,"la1":30.6,"la2":28.766,"lo1":-90.7593,"lo2":-88.6598,"dy":0.0162,"dx":0.0183,"nx":116,"ny":114,"refTime":"2023-06-02T06:00:00:Z","depth":0,"parameterNumber":3,"parameterNumberName":"V-component_of_WINDS"},"data":[0.0,0.0,0.0,0.0,0.0,0.0,0.0,0.0,0.0,0.0,0.0,0.0,0.0,0.0,0.0,0.0,0.0,0.0,0.0,0.0,0.0,0.0,0.0,0.0,0.0,0.0,0.0,0.0,0.0,0.0,0.0,0.0,0.0,0.0,0.0,0.0,0.0,0.0,0.0,0.0,0.0,0.0,0.0,0.0,0.0,0.0,0.0,0.0,0.0,0.0,0.0,0.0,0.0,0.0,0.0,0.0,0.0,0.0,0.0,0.0,0.0,0.0,0.0,0.0,0.0,0.0,0.0,0.0,0.0,0.0,0.0,0.0,0.0,0.0,0.0,0.0,0.0,0.0,0.0,0.0,0.0,0.0,0.0,0.0,0.0,0.0,0.0,0.0,0.0,0.0,0.0,0.0,0.0,0.0,0.0,0.0,0.0,0.0,0.0,0.0,0.0,0.0,0.0,0.0,0.0,0.0,0.0,0.0,0.0,0.0,0.0,0.0,0.0,0.0,0.0,0.0,0.0,0.0,0.0,0.0,0.0,0.0,0.0,0.0,0.0,0.0,0.0,0.0,0.0,0.0,0.0,0.0,0.0,0.0,0.0,0.0,0.0,0.0,0.0,0.0,0.0,0.0,0.0,0.0,0.0,0.0,0.0,0.0,0.0,0.0,0.0,0.0,0.0,0.0,0.0,0.0,0.0,0.0,0.0,0.0,0.0,0.0,0.0,0.0,0.0,0.0,0.0,0.0,0.0,0.0,0.0,0.0,0.0,0.0,0.0,0.0,0.0,0.0,0.0,0.0,0.0,0.0,0.0,0.0,0.0,0.0,0.0,0.0,0.0,0.0,0.0,0.0,0.0,0.0,0.0,0.0,0.0,0.0,0.0,0.0,0.0,0.0,0.0,0.0,0.0,0.0,0.0,0.0,0.0,0.0,0.0,0.0,0.0,0.0,0.0,0.0,0.0,0.0,0.0,0.0,0.0,0.0,0.0,0.0,0.0,0.0,0.0,0.0,0.0,0.0,0.0,0.0,0.0,0.0,0.0,0.0,0.0,0.0,0.0,0.0,0.0,0.0,0.0,0.0,0.0,0.0,0.0,0.0,0.0,0.0,0.0,0.0,0.0,0.0,0.0,0.0,0.0,0.0,0.0,0.0,0.0,0.0,0.0,0.0,0.0,0.0,0.0,0.0,0.0,0.0,0.0,0.0,0.0,0.0,0.0,0.0,0.0,0.0,0.0,0.0,0.0,0.0,0.0,0.0,0.0,0.0,0.0,0.0,0.0,0.0,0.0,0.0,0.0,0.0,0.0,0.0,0.0,0.0,0.0,0.0,0.0,0.0,0.0,0.0,0.0,0.0,0.0,0.0,0.0,0.0,0.0,0.0,0.0,0.0,0.0,0.0,0.0,0.0,0.0,0.0,0.0,0.0,0.0,0.0,0.0,0.0,0.0,0.0,0.0,0.0,0.0,0.0,0.0,0.0,0.0,0.0,0.0,0.0,0.0,0.0,0.0,0.0,0.0,0.0,0.0,0.0,0.0,0.0,0.0,0.0,0.0,0.0,0.0,0.0,0.0,0.0,0.0,0.0,0.0,0.0,0.0,0.0,0.0,0.0,0.0,0.0,0.0,0.0,0.0,0.0,0.0,0.0,0.0,0.0,0.0,0.0,0.0,0.0,0.0,0.0,0.0,0.0,0.0,0.0,0.0,0.0,0.0,0.0,0.0,0.0,0.0,0.0,0.0,0.0,0.0,0.0,0.0,0.0,0.0,0.0,0.0,0.0,0.0,0.0,0.0,0.0,0.0,0.0,0.0,0.0,0.0,0.0,0.0,0.0,0.0,0.0,0.0,0.0,0.0,0.0,0.0,0.0,0.0,0.0,0.0,0.0,0.0,0.0,0.0,0.0,0.0,0.0,0.0,0.0,0.0,0.0,0.0,0.0,0.0,0.0,0.0,0.0,0.0,0.0,0.0,0.0,0.0,0.0,0.0,0.0,0.0,0.0,0.0,0.0,0.0,0.0,0.0,0.0,0.0,0.0,0.0,0.0,0.0,0.0,0.0,0.0,0.0,0.0,0.0,0.0,0.0,0.0,0.0,0.0,0.0,0.0,0.0,0.0,0.0,0.0,0.0,0.0,0.0,0.0,0.0,0.0,0.0,0.0,0.0,0.0,0.0,0.0,0.0,0.0,0.0,0.0,0.0,0.0,0.0,0.0,0.0,0.0,0.0,0.0,0.0,0.0,0.0,0.0,0.0,0.0,0.0,0.0,0.0,0.0,0.0,0.0,0.0,0.0,0.0,0.0,0.0,0.0,0.0,0.0,0.0,0.0,0.0,0.0,0.0,0.0,0.0,0.0,0.0,0.0,0.0,0.0,0.0,0.0,0.0,0.0,0.0,0.0,0.0,0.0,0.0,0.0,0.0,0.0,0.0,0.0,0.0,0.0,0.0,0.0,0.0,0.0,0.0,0.0,0.0,0.0,0.0,0.0,0.0,0.0,0.0,0.0,0.0,0.0,0.0,0.0,0.0,0.0,0.0,0.0,0.0,0.0,0.0,0.0,0.0,0.0,0.0,0.0,0.0,0.0,0.0,0.0,0.0,0.0,0.0,0.0,0.0,0.0,0.0,0.0,0.0,0.0,0.0,0.0,0.0,0.0,0.0,0.0,0.0,0.0,0.0,0.0,0.0,0.0,0.0,0.0,0.0,0.0,0.0,0.0,0.0,0.0,0.0,0.0,0.0,0.0,0.0,0.0,0.0,0.0,0.0,0.0,0.0,0.0,0.0,0.0,0.0,0.0,0.0,0.0,0.0,0.0,0.0,0.0,0.0,0.0,0.0,0.0,0.0,0.0,0.0,0.0,0.0,0.0,0.0,0.0,0.0,0.0,0.0,0.0,0.0,0.0,0.0,0.0,0.0,0.0,0.0,0.0,0.0,0.0,0.0,0.0,0.0,0.0,0.0,0.0,0.0,0.0,0.0,0.0,0.0,0.0,0.0,0.0,0.0,0.0,0.0,0.0,0.0,0.0,0.0,0.0,0.0,0.0,0.0,0.0,0.0,0.0,0.0,0.0,0.0,0.0,0.0,0.0,0.0,0.0,0.0,0.0,0.0,0.0,0.0,0.0,0.0,0.0,0.0,0.0,0.0,0.0,0.0,0.0,0.0,0.0,0.0,0.0,0.0,0.0,0.0,0.0,0.0,0.0,0.0,0.0,0.0,0.0,0.0,0.0,0.0,0.0,0.0,0.0,0.0,0.0,0.0,0.0,0.0,0.0,0.0,0.0,0.0,0.0,0.0,0.0,0.0,0.0,0.0,0.0,0.0,0.0,0.0,0.0,0.0,0.0,0.0,0.0,0.0,0.0,0.0,0.0,0.0,0.0,0.0,0.0,0.0,0.0,0.0,0.0,0.0,0.0,0.0,0.0,0.0,0.0,0.0,0.0,0.0,0.0,0.0,0.0,0.0,0.0,0.0,0.0,0.0,0.0,0.0,0.0,0.0,0.0,0.0,0.0,0.0,0.0,0.0,0.0,0.0,0.0,0.0,0.0,0.0,0.0,0.0,0.0,0.0,0.0,0.0,0.0,0.0,0.0,0.0,0.0,0.0,0.0,0.0,0.0,0.0,0.0,0.0,0.0,0.0,0.0,0.0,0.0,0.0,0.0,0.0,0.0,0.0,0.0,0.0,0.0,0.0,0.0,0.0,0.0,0.0,0.0,0.0,0.0,0.0,0.0,0.0,0.0,0.0,0.0,0.0,0.0,0.0,0.0,0.0,0.0,0.0,0.0,0.0,0.0,0.0,0.0,0.0,0.0,0.0,0.0,0.0,0.0,0.0,0.0,0.0,0.0,0.0,0.0,0.0,0.0,0.0,0.0,0.0,0.0,0.0,0.0,0.0,0.0,0.0,0.0,0.0,0.0,0.0,0.0,0.0,0.0,0.0,0.0,0.0,0.0,0.0,0.0,0.0,0.0,0.0,0.0,0.0,0.0,0.0,0.0,0.0,0.0,0.0,0.0,0.0,0.0,0.0,0.0,0.0,0.0,0.0,0.0,0.0,0.0,0.0,0.0,0.0,0.0,0.0,0.0,0.0,0.0,0.0,0.0,0.0,0.0,0.0,0.0,0.0,0.0,0.0,0.0,0.0,0.0,0.0,0.0,0.0,0.0,0.0,0.0,0.0,0.0,0.0,0.0,0.0,0.0,0.0,0.0,0.0,0.0,0.0,0.0,0.0,0.0,0.0,0.0,0.0,0.0,0.0,0.0,0.0,0.0,0.0,0.0,0.0,0.0,0.0,0.0,0.0,0.0,0.0,0.0,0.0,0.0,0.0,0.0,0.0,0.0,0.0,0.0,0.0,0.0,0.0,0.0,0.0,0.0,0.0,0.0,0.0,0.0,0.0,0.0,0.0,0.0,0.0,0.0,0.0,0.0,0.0,0.0,0.0,0.0,0.0,0.0,0.0,0.0,0.0,0.0,0.0,0.0,0.0,0.0,0.0,0.0,0.0,0.0,0.0,0.0,0.0,0.0,0.0,0.0,0.0,0.0,0.0,0.0,0.0,0.0,0.0,0.0,0.0,0.0,0.0,0.0,0.0,0.0,0.0,0.0,0.0,0.0,0.0,0.0,0.0,0.0,0.0,0.0,0.0,0.0,0.0,0.0,0.0,0.0,0.0,0.0,0.0,0.0,0.0,0.0,0.0,0.0,0.0,0.0,0.0,0.0,0.0,0.0,0.0,0.0,0.0,0.0,0.0,0.0,0.0,0.0,0.0,0.0,0.0,0.0,0.0,0.0,0.0,0.0,0.0,0.0,0.0,0.0,0.0,0.0,0.0,0.0,0.0,0.0,0.0,0.0,0.0,0.0,0.0,0.0,0.0,0.0,0.0,0.0,0.0,0.0,0.0,0.0,0.0,0.0,0.0,0.0,0.0,0.0,0.0,0.0,0.0,0.0,0.0,0.0,0.0,0.0,0.0,0.0,0.0,0.0,0.0,0.0,0.0,0.0,0.0,0.0,0.0,0.0,0.0,0.0,0.0,0.0,0.0,0.0,0.0,0.0,0.0,0.0,0.0,0.0,0.0,0.0,0.0,0.0,0.0,0.0,0.0,0.0,0.0,0.0,0.0,0.0,0.0,0.0,0.0,0.0,0.0,0.0,0.0,0.0,0.0,0.0,0.0,0.0,0.0,0.0,0.0,0.0,0.0,0.0,0.0,0.0,0.0,0.0,0.0,0.0,0.0,0.0,0.0,0.0,0.0,0.0,0.0,0.0,0.0,0.0,0.0,0.0,0.0,0.0,0.0,0.0,0.0,0.0,0.0,0.0,0.0,0.0,0.0,0.0,0.0,0.0,0.0,0.0,0.0,0.0,0.0,0.0,0.0,0.0,0.0,0.0,0.0,0.0,0.0,0.0,0.0,0.0,0.0,0.0,0.0,0.0,0.0,0.0,0.0,0.0,0.0,0.0,0.0,0.0,0.0,0.0,0.0,0.0,0.0,0.0,0.0,0.0,0.0,0.0,0.0,0.0,0.0,0.0,0.0,0.0,0.0,0.0,0.0,0.0,0.0,0.0,0.0,0.0,0.0,0.0,0.0,0.0,0.0,0.0,0.0,0.0,0.0,0.0,0.0,0.0,0.0,0.0,0.0,0.0,0.0,0.0,0.0,0.0,0.0,0.0,0.0,0.0,0.0,0.0,0.0,0.0,0.0,0.0,0.0,0.0,0.0,0.0,0.0,0.0,0.0,0.0,0.0,0.0,0.0,0.0,0.0,0.0,0.0,0.0,0.0,0.0,0.0,0.0,0.0,0.0,0.0,0.0,0.0,0.0,0.0,0.0,0.0,0.0,0.0,0.0,0.0,0.0,0.0,0.0,0.0,0.0,0.0,0.0,0.0,0.0,0.0,0.0,0.0,0.0,0.0,0.0,0.0,0.0,0.0,0.0,0.0,0.0,0.0,0.0,0.0,0.0,0.0,0.0,0.0,0.0,0.0,0.0,0.0,0.0,0.0,0.0,0.0,0.0,0.0,0.0,0.0,0.0,0.0,0.0,0.0,0.0,0.0,0.0,0.0,0.0,0.0,0.0,0.0,0.0,0.0,0.0,1.6522,1.6773,0.0,0.0,0.0,0.0,0.0,0.0,0.0,0.0,0.0,0.0,0.0,0.0,0.0,0.0,0.0,0.0,0.0,0.0,0.0,0.0,0.0,0.0,0.0,0.0,0.0,0.0,0.0,0.0,0.0,0.0,0.0,0.0,0.0,0.0,0.0,0.0,0.0,0.0,1.9375,1.8882,1.8253,1.8912,1.9211,1.9226,0.0,0.0,0.0,0.0,0.0,0.0,0.0,0.0,0.0,0.0,0.0,0.0,0.0,0.0,0.0,0.0,0.0,0.0,0.0,0.0,0.0,0.0,0.0,0.0,0.0,0.0,0.0,0.0,0.0,0.0,0.0,0.0,0.0,0.0,0.0,0.0,0.0,0.0,0.0,0.0,0.0,0.0,0.0,0.0,0.0,0.0,0.0,0.0,0.0,0.0,0.0,0.0,0.0,0.0,0.0,0.0,0.0,0.0,0.0,0.0,0.0,0.0,0.0,0.0,0.0,0.0,0.0,0.0,0.0,0.0,1.6974,1.6685,0.0,0.0,0.0,0.0,0.0,0.0,0.0,0.0,0.0,0.0,0.0,0.0,0.0,0.0,0.0,0.0,0.0,0.0,0.0,0.0,0.0,0.0,0.0,1.6248,1.6368,1.5979,1.5858,1.6054,0.0,0.0,0.0,0.0,0.0,0.0,0.0,1.963,1.963,1.951,1.8852,1.8313,1.7876,1.8448,1.8702,1.8732,1.9271,0.0,0.0,0.0,0.0,0.0,0.0,0.0,0.0,0.0,0.0,0.0,0.0,0.0,0.0,0.0,0.0,0.0,0.0,0.0,0.0,0.0,0.0,0.0,0.0,0.0,0.0,0.0,0.0,0.0,0.0,0.0,0.0,0.0,0.0,0.0,0.0,0.0,0.0,0.0,0.0,0.0,0.0,0.0,0.0,0.0,0.0,0.0,0.0,0.0,0.0,0.0,0.0,0.0,0.0,0.0,0.0,0.0,0.0,0.0,0.0,0.0,0.0,0.0,1.9547,1.9773,2.01,2.01,2.01,1.9987,1.8078,1.7137,1.6936,1.6748,0.0,0.0,0.0,0.0,0.0,0.0,0.0,0.0,0.0,0.0,0.0,0.0,0.0,0.0,0.0,0.0,0.0,0.0,0.0,0.0,0.0,1.5873,1.6099,1.6547,1.6099,1.6054,1.6667,0.0,0.0,0.0,0.0,0.0,1.8837,1.939,1.9405,1.8837,1.8179,1.8071,1.8583,1.8672,1.8702,1.8702,1.8792,1.9151,1.9645,0.0,0.0,0.0,0.0,0.0,0.0,0.0,0.0,0.0,0.0,0.0,0.0,0.0,0.0,0.0,0.0,0.0,0.0,0.0,0.0,0.0,0.0,0.0,0.0,0.0,0.0,0.0,0.0,0.0,0.0,0.0,0.0,0.0,0.0,0.0,0.0,0.0,0.0,0.0,0.0,0.0,1.7706,1.7229,0.0,0.0,0.0,0.0,0.0,0.0,0.0,0.0,0.0,0.0,0.0,0.0,0.0,2.0205,2.1292,2.1051,2.1016,2.1167,2.1644,2.1669,2.1267,2.1267,2.1267,2.1217,2.0451,0.0,1.8618,1.7664,0.0,0.0,0.0,0.0,0.0,0.0,0.0,0.0,0.0,0.0,0.0,0.0,0.0,0.0,0.0,0.0,0.0,0.0,0.0,0.0,0.0,1.6323,1.6547,1.7204,1.7041,1.6832,1.6712,1.6712,0.0,0.0,0.0,1.8579,1.8702,1.9262,1.9079,1.8149,1.8238,1.8238,1.8164,1.8523,1.8702,1.8702,1.8702,1.8867,1.9136,1.9226,0.0,0.0,0.0,0.0,0.0,0.0,0.0,0.0,0.0,0.0,0.0,0.0,0.0,0.0,0.0,0.0,0.0,0.0,0.0,0.0,0.0,0.0,0.0,0.0,0.0,0.0,0.0,0.0,0.0,0.0,0.0,0.0,0.0,0.0,0.0,0.0,0.0,0.0,0.0,1.7229,1.7118,1.6879,1.6837,1.6879,0.0,0.0,0.0,0.0,0.0,0.0,0.0,0.0,0.0,2.1495,2.1385,2.1852,2.2994,2.2298,2.2422,2.3364,2.3602,2.3753,2.3791,2.3791,2.3791,2.3753,2.2912,2.2109,2.1341,1.9555,1.9015,1.9237,0.0,0.0,0.0,0.0,2.1097,2.1656,0.0,0.0,0.0,0.0,0.0,0.0,0.0,0.0,0.0,0.0,0.0,0.0,1.6891,1.6965,1.7234,1.7891,1.7787,1.7612,1.7408,1.7045,1.6985,1.7288,1.7961,1.8531,1.8891,1.9091,1.8964,1.8459,1.8807,1.8882,1.8747,1.9241,1.939,1.9211,1.9211,1.9121,1.8972,1.9121,1.9001,1.8747,0.0,0.0,0.0,0.0,0.0,0.0,0.0,0.0,0.0,0.0,0.0,0.0,0.0,0.0,0.0,0.0,0.0,0.0,0.0,0.0,0.0,0.0,0.0,0.0,0.0,0.0,0.0,0.0,0.0,0.0,0.0,0.0,0.0,0.0,0.0,0.0,0.0,1.7193,1.6991,1.6735,1.7093,1.7411,0.0,0.0,0.0,0.0,0.0,0.0,2.1245,2.2219,2.3123,2.3989,2.3592,2.391,2.5058,2.4073,2.428,2.5661,2.5661,2.5862,2.6226,2.6088,2.6025,2.5963,2.4883,2.4397,2.4081,2.1665,2.0703,2.077,2.0983,2.1685,2.2586,2.251,2.2634,2.2765,0.0,0.0,0.0,0.0,0.0,0.0,0.0,0.0,0.0,0.0,0.0,1.6921,1.7578,1.7637,1.7906,1.8597,1.8089,1.8165,1.9182,1.8006,1.7746,1.884,1.8449,1.8578,1.9338,1.894,1.9316,2.0557,1.9944,2.0273,2.15,2.153,2.1216,2.0617,2.0617,2.0258,1.9555,1.8343,1.8164,1.8668,1.8164,0.0,0.0,0.0,0.0,0.0,0.0,0.0,0.0,0.0,0.0,0.0,0.0,0.0,0.0,0.0,0.0,0.0,0.0,0.0,0.0,0.0,0.0,0.0,0.0,0.0,0.0,0.0,0.0,0.0,0.0,0.0,0.0,0.0,0.0,0.0,0.0,0.0,0.0,1.7378,1.8735,0.0,0.0,0.0,0.0,2.0941,2.2555,2.3873,2.451,2.5449,2.6531,2.7769,2.6883,2.6961,2.8166,2.7449,2.7344,2.7934,2.7934,2.7959,2.7959,2.7444,2.7193,2.713,2.6,2.5986,2.6469,2.3636,2.2597,2.2799,2.3378,2.3963,2.4462,2.4269,2.3869,2.3254,0.0,0.0,0.0,0.0,0.0,0.0,0.0,0.0,1.6009,1.6622,1.6712,1.7279,1.8822,1.8612,1.8807,1.9899,1.9626,1.9375,1.9401,1.9154,1.9044,1.9006,1.9252,1.9389,1.9386,1.9803,2.0019,2.0049,2.0677,2.1216,2.1695,2.1695,2.1575,2.1335,2.1335,2.1216,2.0887,1.9555,1.8693,1.8214,1.844,1.8019,0.0,0.0,0.0,0.0,0.0,0.0,0.0,0.0,0.0,0.0,0.0,0.0,0.0,0.0,0.0,0.0,0.0,0.0,0.0,0.0,0.0,0.0,0.0,0.0,0.0,0.0,0.0,0.0,0.0,0.0,0.0,0.0,0.0,0.0,0.0,0.0,0.0,1.9065,2.0013,0.0,2.1752,2.2452,2.336,2.4578,2.5653,2.6728,2.7825,2.7854,2.8307,2.9143,2.8157,2.7914,2.8749,2.8129,2.8084,2.8637,2.8637,2.8637,2.8612,2.8059,2.7808,2.7745,2.664,2.6699,2.7528,2.6516,2.5995,2.5901,2.6115,2.6634,2.7101,2.648,2.5881,2.5214,0.0,0.0,0.0,0.0,0.0,0.0,0.0,0.0,1.6084,1.6936,1.704,1.7787,1.9824,1.9435,1.9495,2.0617,2.0339,2.0042,1.9938,1.9971,1.9929,1.9877,2.0224,2.0236,1.9863,2.0617,2.0932,2.0692,2.1799,2.2458,2.2682,2.2682,2.2682,2.2667,2.2443,2.2338,2.2263,2.1171,1.976,1.8251,1.8266,1.799,1.7585,0.0,0.0,0.0,0.0,0.0,0.0,0.0,0.0,0.0,0.0,0.0,0.0,0.0,0.0,0.0,0.0,0.0,0.0,0.0,0.0,0.0,0.0,0.0,0.0,0.0,0.0,0.0,0.0,0.0,0.0,0.0,0.0,0.0,0.0,1.8961,1.9736,2.0855,2.2062,2.3354,2.4664,2.5584,2.6598,2.7844,2.8447,2.9245,3.0408,2.9729,2.9578,3.0256,2.9228,2.885,2.9214,2.8863,2.8863,2.9214,2.9214,2.9214,2.9202,2.8994,2.8886,2.8822,2.8283,2.8423,2.9072,2.9072,2.8845,2.8423,2.8314,2.836,2.8424,2.774,2.6984,2.6117,0.0,0.0,0.0,0.0,0.0,0.0,0.0,1.5507,1.6278,1.7518,1.7697,1.8459,2.0498,2.0094,1.9959,2.0662,2.0079,2.0085,2.0926,2.0352,2.0457,2.1552,2.1413,2.113,2.0767,2.1425,2.2084,2.2783,2.3355,2.3999,2.4612,2.4612,2.4612,2.4582,2.3954,2.3655,2.3625,2.2996,2.1311,1.8941,1.7678,1.757,1.812,0.0,0.0,0.0,0.0,0.0,0.0,0.0,0.0,0.0,0.0,0.0,0.0,0.0,0.0,0.0,0.0,0.0,0.0,0.0,0.0,0.0,0.0,0.0,0.0,0.0,0.0,0.0,0.0,0.0,0.0,0.0,0.0,0.0,1.9346,2.0564,2.1959,2.2858,2.5066,2.661,2.6948,2.9144,3.0526,3.0571,3.0935,3.1409,3.2105,3.0936,3.0526,3.1154,3.0279,2.9792,2.9792,2.9792,2.9792,2.9856,2.9856,2.9869,2.9921,3.0272,3.0434,3.0466,3.087,3.111,3.1252,3.119,3.0845,3.0332,2.9785,2.9101,2.8283,2.8093,2.712,2.5821,0.0,0.0,0.0,0.0,0.0,0.0,0.0,1.5712,1.6278,1.7518,1.7697,1.8459,2.0498,2.0094,1.9959,2.0662,2.0339,2.0398,2.0959,2.1066,2.137,2.1859,2.1509,2.1574,2.2154,2.2757,2.3415,2.4088,2.4747,2.5151,2.5345,2.5345,2.5345,2.533,2.5136,2.5061,2.497,2.3922,2.3096,2.225,2.0039,1.8993,1.8822,0.0,0.0,0.0,0.0,0.0,0.0,0.0,0.0,0.0,0.0,0.0,0.0,0.0,0.0,0.0,0.0,0.0,0.0,0.0,0.0,0.0,0.0,0.0,0.0,0.0,0.0,0.0,0.0,0.0,0.0,0.0,2.2154,2.318,2.2103,2.31,2.4574,2.6499,2.7616,2.8979,3.0746,3.0939,3.1322,3.2344,3.1834,3.1748,3.243,3.1492,3.1008,3.1167,3.0279,2.9792,2.9792,2.9792,3.0139,3.0833,3.0833,3.1193,3.1815,3.1578,3.1445,3.1404,3.1128,3.1364,3.1867,3.1208,3.1174,3.1507,3.0495,2.9557,2.8705,2.8066,2.6857,2.5625,0.0,0.0,0.0,0.0,0.0,0.0,0.0,1.6189,1.6652,1.7969,1.81,1.8792,2.0528,2.0094,1.9959,2.0662,2.0467,2.0516,2.0959,2.1488,2.1875,2.2114,2.22,2.2652,2.3475,2.4118,2.4642,2.5046,2.5689,2.6153,2.6437,2.6437,2.6737,2.726,2.6991,2.7006,2.723,2.6248,2.5658,2.5217,2.3128,2.1816,2.0983,2.0306,2.0401,2.0822,2.0631,2.1036,2.1575,2.0797,0.0,0.0,0.0,0.0,0.0,0.0,0.0,0.0,0.0,0.0,0.0,0.0,0.0,0.0,0.0,0.0,0.0,0.0,0.0,0.0,0.0,0.0,0.0,0.0,2.4741,2.5831,2.5564,2.5724,2.6563,2.846,2.9265,3.0287,3.1953,3.1889,3.2079,3.2814,3.2176,3.1974,3.2312,3.1698,3.1306,3.1306,3.0747,3.0357,3.0143,3.056,3.0853,3.118,3.1609,3.2105,3.2579,3.2653,3.2706,3.276,3.2825,3.2999,3.3152,3.2544,3.2046,3.1471,0.0,0.0,0.0,0.0,2.6892,2.5912,0.0,0.0,0.0,0.0,0.0,0.0,0.0,1.6681,1.7158,1.8455,1.8599,1.9075,2.0378,1.9975,1.9893,2.0543,2.035,2.0447,2.1006,2.1674,2.2161,2.2516,2.3292,2.4073,2.4791,2.5495,2.5839,2.5839,2.6572,2.7186,2.7679,2.7805,2.8442,2.9564,2.9041,2.9131,2.9654,2.9146,2.8577,2.7904,2.6587,2.5183,2.3751,2.2426,2.2622,2.3445,2.2323,2.2009,2.2113,2.1964,0.0,0.0,0.0,0.0,0.0,0.0,0.0,0.0,0.0,0.0,0.0,0.0,0.0,0.0,0.0,0.0,0.0,0.0,0.0,0.0,0.0,0.0,0.0,0.0,2.7801,2.8518,2.9026,2.8273,2.8239,2.9689,3.0413,3.1178,3.1916,3.2315,3.2561,3.2561,3.211,3.1847,3.1913,3.1567,0.0,0.0,0.0,3.1364,3.0912,3.1757,3.1973,3.1536,3.2393,3.282,3.2961,3.3808,3.4177,3.4245,3.5133,3.516,3.4592,3.4513,3.2992,3.0788,3.0446,2.9856,2.9131,2.7817,2.7067,2.6653,0.0,0.0,0.0,0.0,0.0,0.0,0.0,1.648,1.7048,1.794,1.8064,1.8354,1.9159,1.913,1.9302,1.9833,1.9858,2.0228,2.1175,2.1859,2.2731,2.385,2.4245,2.4986,2.6183,2.6856,2.7186,2.7186,2.8412,2.8801,2.8412,2.8951,2.9325,2.9594,2.9968,3.0208,3.0357,3.0776,3.0881,3.0642,2.934,2.7076,2.4372,2.3537,2.3385,2.3565,2.3325,2.3924,2.4687,2.3595,2.3864,2.4388,2.2802,2.1844,0.0,0.0,0.0,0.0,0.0,0.0,0.0,0.0,0.0,0.0,0.0,0.0,0.0,0.0,0.0,0.0,0.0,0.0,0.0,2.8126,2.8718,2.9313,3.0133,3.0105,3.065,3.2532,3.3298,3.3831,3.4284,3.2965,3.2093,3.2093,3.1345,3.109,3.1508,3.1405,3.1779,3.2633,3.2712,3.28,3.3003,3.3211,3.3345,3.3449,3.3671,0.0,3.4935,3.5133,3.5213,3.5213,3.5439,3.5429,3.523,3.442,3.2918,3.0963,2.9274,2.8507,2.829,2.8056,2.7871,2.7783,0.0,0.0,0.0,0.0,0.0,0.0,0.0,1.679,1.7242,1.8259,1.8381,1.8547,1.8849,1.8893,1.9132,1.9639,1.9874,2.0498,2.1728,2.2439,2.3421,2.4878,2.5394,2.6228,2.7575,2.7919,2.8248,2.8577,2.925,2.9564,2.9564,2.9879,3.0402,3.1061,3.1375,3.1689,3.2018,3.2362,3.2332,3.1958,3.1315,2.9864,2.7853,2.6228,2.5794,2.6019,2.5345,2.5525,2.5944,2.4941,2.5061,2.5375,2.4059,2.343,2.2906,0.0,0.0,0.0,0.0,0.0,0.0,0.0,0.0,0.0,0.0,0.0,0.0,0.0,0.0,2.5644,2.7106,0.0,2.8229,2.9268,2.9497,2.9769,3.0536,3.1746,3.2577,3.255,3.2724,3.301,3.3163,3.2318,3.1731,3.1731,3.1466,3.1524,3.1788,3.2077,3.2478,3.3032,3.3577,3.382,3.3734,3.4423,3.4697,3.4488,3.4689,3.4986,3.5504,3.5504,3.5504,3.5504,3.5504,3.5504,3.5424,3.4394,3.3449,3.2467,3.0954,2.9766,2.8913,2.8624,2.8511,2.8473,0.0,0.0,0.0,0.0,0.0,0.0,0.0,1.6832,1.7305,1.8285,1.8541,1.8612,1.8727,1.8727,1.9006,1.9639,2.0122,2.0942,2.2286,2.3253,2.4405,2.5899,2.6752,2.7679,2.8771,2.8906,2.9175,2.9579,2.9968,3.0268,3.0507,3.0776,3.148,3.2527,3.2647,3.3066,3.3694,3.3829,3.3574,3.308,3.2946,3.2572,3.1839,2.9445,2.8712,2.8801,2.7455,2.6811,2.6527,2.6123,2.5824,2.5555,2.5285,2.5016,2.4433,2.2772,2.2727,0.0,0.0,0.0,0.0,0.0,0.0,0.0,0.0,2.4492,2.5136,2.6482,2.729,2.8151,2.9418,2.9429,2.9509,3.0243,3.0138,3.0143,3.0683,3.2879,3.3823,3.2235,3.241,3.2439,3.1945,3.1851,3.1782,3.1549,3.1964,3.2265,3.2378,3.283,3.3326,3.3713,3.4581,3.4915,3.4692,3.5833,3.604,3.5256,3.5577,3.5624,3.5504,3.5504,3.5504,3.5504,3.5504,3.5504,3.5424,3.4394,3.4027,3.3876,3.2961,3.1549,3.0012,2.9542,2.9227,2.9038,0.0,0.0,0.0,0.0,0.0,0.0,0.0,0.0,1.6473,1.6727,1.7183,1.7666,1.8145,1.8185,1.8612,1.9603,2.028,2.1218,2.2555,2.4342,2.5946,2.734,2.8577,2.931,2.946,3.0013,3.0058,2.9579,3.133,3.1614,3.0537,3.1734,3.2377,3.2542,3.3125,3.3754,3.4412,3.5011,3.5235,3.5115,3.4502,3.4218,3.3978,3.2527,3.127,3.0118,2.8846,2.7604,2.6662,2.7186,2.6572,2.5794,2.6901,2.6437,2.5345,2.4492,2.3161,2.1844,2.156,2.1635,2.2353,2.4597,2.4837,2.5405,0.0,2.9265,2.928,3.0612,3.139,3.1797,3.1806,3.1475,3.1223,3.1103,3.0791,3.0708,3.1235,3.2771,3.402,3.4331,3.5967,3.6136,3.3794,3.3513,3.3122,3.2198,3.2177,3.2441,3.2955,3.3043,3.394,3.5814,3.5974,3.662,3.7851,3.8005,3.7521,3.6328,3.6335,3.6073,3.5504,3.5504,3.5504,3.5504,3.5504,3.5504,3.5424,3.4394,3.4027,3.3876,3.2961,3.196,3.1031,3.0966,3.0392,2.9691,0.0,0.0,0.0,0.0,0.0,0.0,0.0,0.0,0.0,1.64,1.6692,1.717,1.8025,1.865,1.9207,1.9639,2.0318,2.1228,2.2484,2.4474,2.6169,2.7466,2.8842,2.9939,3.0702,3.0971,3.1345,3.1854,3.2677,3.2796,3.2258,3.2826,3.329,3.3664,3.3948,3.4442,3.51,3.5385,3.5504,3.5489,3.519,3.4831,3.4322,3.3021,3.1674,3.0328,2.9056,2.7979,0.0,2.6587,2.6318,2.6273,2.6826,2.6363,2.548,2.4776,2.4313,2.3969,2.3969,2.4253,2.4807,2.5899,2.7126,2.8487,3.0133,3.0612,3.1195,3.2901,3.3784,3.407,3.3507,3.332,3.2839,3.1552,3.1217,3.1478,3.2636,3.338,3.4086,3.4913,3.6097,3.6207,3.447,3.4281,3.404,3.3255,3.2893,3.2955,3.3533,3.3257,3.3784,3.5278,3.5894,3.6803,3.8047,3.8273,3.8123,3.7584,3.721,3.6881,3.6611,3.6611,3.6417,3.6058,3.5669,3.5504,3.5439,3.5052,3.4839,3.4773,3.3822,3.282,3.196,3.1389,3.0633,2.9792,0.0,0.0,0.0,0.0,0.0,0.0,0.0,0.0,0.0,0.0,1.6297,1.6917,1.7972,1.9043,1.969,1.969,2.0318,2.1138,2.2186,2.418,2.5962,2.7469,2.8796,3.0264,3.1721,3.1809,3.2362,3.3499,3.3679,3.3664,3.3499,3.3679,3.4023,3.4472,3.4472,3.4861,3.5504,3.5504,3.5504,3.5504,3.5504,3.4981,3.4068,3.2736,3.118,2.9549,2.8442,2.75,2.6587,2.5435,2.5255,2.557,2.5771,2.5491,2.4985,2.4728,2.5086,2.5615,2.5615,2.6213,2.6991,2.753,2.9385,3.115,3.1509,3.2273,3.335,3.4966,3.5472,3.5317,3.4325,3.4067,3.3373,3.1496,3.1424,3.2066,3.3161,3.3605,3.4153,3.5187,3.5794,3.5939,3.5343,3.4967,3.4444,3.3721,3.3627,3.3798,3.4359,3.3862,3.4269,3.5778,3.6234,3.7021,3.8234,3.8705,3.8766,3.8377,3.7913,3.7584,3.7404,3.7404,3.6971,3.6207,3.5908,3.5669,3.5504,3.5504,3.5504,3.5439,3.4691,3.3671,3.2522,3.1815,3.0833,2.9792,0.0,0.0,0.0,0.0,0.0,0.0,0.0,0.0,0.0,0.0,0.0,0.0,0.0,1.9043,1.969,1.969,2.0318,2.0986,2.1657,2.3497,2.543,2.7494,2.8769,3.0353,3.2393,3.2482,3.2826,3.3499,3.4128,3.4128,3.3499,3.4143,3.4457,3.4472,3.4472,3.4861,3.5504,3.5504,3.5504,3.5504,3.5504,3.4711,3.338,3.2063,2.9939,2.7625,2.6901,2.5809,2.4567,2.3894,2.3281,2.2927,2.3652,2.3775,2.3821,2.459,2.5177,2.5615,2.5615,2.6557,2.7993,2.9909,3.1435,3.2781,3.4068,3.5385,3.6522,3.718,3.6538,3.5411,3.3935,3.319,3.2345,3.0867,3.1512,3.219,3.2202,3.3144,3.4153,3.5187,3.573,3.6201,3.6659,3.55,3.4275,3.3179,3.4037,3.4914,3.5495,3.498,3.5886,3.8566,3.7686,3.7891,3.9352,4.0023,3.9679,3.8392,3.8362,3.8018,3.7404,3.7404,3.6731,3.5564,3.6193,3.6088,3.5504,3.5504,3.5504,3.5504,3.5439,3.4274,3.2593,3.2593,3.1415,2.9792,0.0,0.0,0.0,0.0,0.0,0.0,0.0,0.0,0.0,0.0,0.0,0.0,0.0,0.0,0.0,0.0,1.9783,2.011,1.9939,2.2478,2.4287,2.4958,2.7422,2.9477,3.1165,3.1629,3.2392,3.3499,3.3724,3.3933,3.4143,3.4367,3.4726,3.516,3.516,3.5295,3.5504,3.5504,3.5504,3.5365,3.3977,3.3232,3.2542,2.9866,2.7756,2.6063,0.0,2.3714,2.3236,2.2562,2.1969,2.1691,2.2728,2.2509,2.2175,2.4102,2.5429,2.6452,2.735,2.8861,3.0567,3.2108,3.3499,3.4831,3.6133,3.6776,3.715,3.736,3.6788,3.5769,3.391,3.3375,3.2764,3.1327,3.1738,3.244,3.3144,3.396,3.4552,3.5018,3.4788,3.5003,3.6114,3.5516,3.4969,3.4699,3.435,3.4753,3.6148,3.5989,3.696,3.9384,3.9147,3.9252,4.0083,4.0292,3.9948,3.9065,3.9065,3.896,3.8721,3.8272,3.7584,3.6761,3.6567,3.6118,3.5504,3.5504,3.5504,3.5359,3.4056,3.3185,3.2464,3.1206,3.0355,2.9792,0.0,0.0,0.0,0.0,0.0,0.0,0.0,0.0,0.0,0.0,0.0,0.0,0.0,0.0,0.0,0.0,0.0,1.91,1.8737,2.0779,2.2259,2.2734,2.4864,2.6949,2.8788,2.9248,3.0235,3.1749,3.1988,3.2557,3.3425,3.3664,3.4262,3.513,3.513,3.528,3.5489,3.5235,3.4648,3.365,3.2265,3.1055,2.9859,2.7661,2.6044,0.0,2.2936,2.2173,2.1874,2.1201,2.108,2.1252,2.1606,2.1796,2.2338,2.4342,2.6258,2.8053,2.9864,3.145,3.2961,3.4502,3.5549,3.6462,3.7524,3.7584,3.7396,3.7272,3.6566,3.5296,3.3156,3.25,3.191,3.0669,3.0809,3.1466,3.2756,3.3197,3.3684,3.4446,3.4194,3.4485,3.585,3.5361,3.505,3.5165,3.5175,3.57,3.7026,3.7463,3.8655,4.0631,4.0162,3.9989,4.0412,4.0636,4.0427,3.9768,3.9529,3.929,3.905,3.8841,3.8138,3.7075,3.6896,3.6312,3.5504,3.5504,3.5504,3.5359,3.3754,3.289,3.2393,3.0846,3.0075,2.9792,0.0,0.0,0.0,0.0,0.0,0.0,0.0,0.0,0.0,0.0,0.0,0.0,0.0,0.0,0.0,0.0,0.0,0.0,1.8087,1.8661,1.9555,2.0903,2.1522,2.3045,2.556,2.5618,2.6528,2.839,2.9047,3.0018,3.1215,3.1945,3.293,3.4155,3.4155,3.4528,3.5081,3.4424,3.2791,3.0557,3.0395,2.8562,2.5828,2.5561,2.4725,2.343,2.2203,2.1321,2.0662,1.9974,2.0647,2.1615,2.0549,2.1975,2.4232,2.5533,2.7769,3.0387,3.2916,3.4143,3.5175,3.7,3.7479,3.7674,3.8187,3.7814,3.7208,3.6867,3.5741,3.4016,3.1583,3.0626,2.9947,2.9101,2.9026,2.9603,3.121,3.1461,3.1998,3.3541,3.4065,3.4808,3.6026,3.5101,3.4564,3.4756,3.6225,3.7454,3.8228,3.9292,4.0675,4.2387,4.0876,4.0169,4.0502,4.1055,4.0995,4.0337,3.9709,3.908,3.8467,3.9125,3.8362,3.6567,3.715,3.6686,3.5504,3.5504,3.5504,3.5424,3.4394,3.3449,3.2464,3.1536,3.0633,2.9792,0.0,0.0,0.0,0.0,0.0,0.0,0.0,0.0,0.0,0.0,0.0,0.0,0.0,0.0,0.0,0.0,0.0,0.0,1.6969,1.788,1.857,1.8977,2.0407,2.1757,2.3022,2.3475,2.4198,2.5148,2.6258,2.6934,2.7267,2.8373,2.9044,2.9459,2.9459,2.9559,2.9703,2.9531,2.9054,2.8351,2.723,2.6657,2.622,2.4653,2.3841,2.349,2.2712,2.1994,2.1335,2.0677,2.1635,2.3255,2.4031,2.536,2.708,2.9331,3.1539,3.3484,3.4666,3.6552,3.8153,3.8138,3.8527,3.8597,3.7565,3.6937,3.6011,3.4228,3.3346,3.2198,2.9832,2.9952,3.0308,2.9644,3.0244,3.1047,3.1888,3.3429,3.4268,3.3778,3.459,3.5628,3.6565,3.507,3.4594,3.5845,3.6418,3.7335,3.8684,4.0262,4.1703,4.2996,4.2659,4.2257,4.1863,4.1055,4.0322,3.9664,3.9499,3.9334,3.917,3.9334,3.8586,3.718,3.7345,3.6686,3.5504,3.5504,3.5504,3.5424,3.4394,3.3449,3.2464,3.1536,3.0633,2.9792,0.0,0.0,0.0,0.0,0.0,0.0,0.0,0.0,0.0,0.0,0.0,0.0,0.0,0.0,0.0,0.0,0.0,0.0,0.0,1.7112,1.7492,1.7527,1.8468,1.9297,1.9973,2.0575,2.1227,2.1839,2.307,2.3836,2.4193,2.5137,2.592,2.6511,2.6511,2.6652,2.6962,2.6905,2.6218,0.0,0.0,2.4451,2.4013,2.3374,2.333,2.352,2.2906,2.2817,2.3011,2.3221,2.4014,2.5209,2.6944,2.8322,2.9774,3.2138,3.4023,3.5618,3.6615,3.793,3.8883,3.8026,3.7907,3.7587,3.5951,3.4911,3.3691,3.1557,3.1284,3.0602,2.7867,2.8758,2.9578,2.8502,2.9239,3.0319,3.1361,3.3101,3.4179,3.3837,3.4953,3.5924,3.626,3.5289,3.5097,3.6251,3.6655,3.7504,3.8932,4.0645,4.2111,4.325,4.3045,4.2596,4.1938,4.0905,4.0217,3.9843,3.9559,3.9424,3.9424,3.9424,3.8841,3.7838,3.7838,3.712,3.5938,3.5938,3.5774,3.5359,3.3973,3.3031,3.2464,3.1044,3.0433,3.0118,0.0,0.0,0.0,0.0,0.0,0.0,0.0,0.0,0.0,0.0,0.0,0.0,0.0,0.0,0.0,0.0,0.0,0.0,0.0,0.0,1.638,1.638,1.638,1.6625,1.705,1.7656,1.8249,1.8755,1.9952,2.0882,2.15,2.2144,2.3041,2.411,2.411,2.4403,2.4959,2.4852,2.3571,2.1653,2.2853,2.2346,2.1046,0.0,2.3143,2.3535,2.2996,2.3595,2.4821,2.6452,2.7096,2.759,2.9609,3.1135,3.2512,3.4405,3.58,3.705,3.8155,3.8682,3.8609,3.7368,3.6681,3.5714,3.3924,3.247,3.0979,2.8986,2.9245,2.896,2.6128,2.7338,2.8271,2.6904,2.7544,2.8825,3.0583,3.2024,3.3222,3.3909,3.5313,3.5968,3.5684,3.5655,3.5855,3.632,3.687,3.7798,3.907,4.0688,4.2111,4.325,4.2776,4.2132,4.1384,4.0816,4.0442,4.0262,3.9694,3.9424,3.9424,3.9424,3.9035,3.8392,3.8392,3.7704,3.6611,3.6611,3.6267,3.5598,3.3842,3.3057,3.2828,3.0911,3.043,3.0678,0.0,0.0,0.0,0.0,0.0,0.0,0.0,0.0,0.0,0.0,1.5045,1.5776,0.0,0.0,0.0,0.0,0.0,0.0,0.0,0.0,0.0,1.5776,1.5776,1.5808,1.5884,1.6498,1.6863,1.6935,1.8143,1.8583,1.8248,1.9271,1.9655,1.9368,1.9368,1.942,1.9558,1.9523,1.9259,1.9041,2.0704,2.1176,2.1091,2.2805,0.0,0.0,2.3475,2.3954,2.5045,2.8068,2.9774,3.1016,3.3006,3.4547,3.58,3.6837,3.7676,3.8213,3.8042,3.881,3.9311,3.7524,3.6695,3.5554,3.2428,3.0542,2.8946,2.738,2.6934,2.6631,2.5952,2.6614,2.7367,2.7725,2.836,2.9515,3.1637,3.2975,3.3896,3.4487,3.5638,3.6294,3.6207,3.6219,3.6257,3.6358,3.6539,3.7443,3.9646,4.0929,4.2111,4.325,4.3225,4.2596,4.1384,4.1265,4.0666,3.9589,3.9469,3.9424,3.9424,3.9424,3.9035,3.8392,3.8392,3.7958,3.724,3.724,3.718,3.6963,3.6141,3.5653,3.5153,3.2908,3.1997,3.1705,0.0,0.0,0.0,0.0,0.0,0.0,0.0,1.3588,1.3669,1.3403,1.4141,1.4903,1.5543,1.5864,0.0,0.0,0.0,0.0,0.0,0.0,0.0,0.0,1.6051,1.6051,1.6051,1.6666,1.6823,1.6522,0.0,1.7498,1.6936,1.7472,1.76,1.7325,1.7325,1.7325,1.735,1.7652,1.7777,1.7979,2.0075,2.09,2.1091,0.0,0.0,0.0,2.3595,2.4268,2.5435,2.738,2.9514,3.1748,3.4241,3.5311,3.5897,3.6937,3.7528,3.7816,3.768,3.8243,3.8411,3.6055,3.4861,3.3357,3.0008,2.8187,2.6764,2.5139,2.5288,2.538,2.4606,2.5824,2.6896,2.6804,2.7507,2.885,3.1072,3.2328,3.3445,3.4587,3.5692,3.6358,3.6358,3.6358,3.6358,3.6358,3.6358,3.715,3.8917,4.0646,4.2111,4.325,4.3329,4.2701,4.1384,4.1384,4.0726,3.9424,3.9424,3.9424,3.9424,3.9424,3.923,3.8931,3.8931,3.8542,3.7913,3.7913,3.7426,3.6512,3.5739,3.4978,3.4142,3.2248,3.1641,3.1562,0.0,0.0,0.0,0.0,0.0,0.0,0.0,1.319,1.2881,1.2881,1.3334,1.4003,1.5084,1.5454,1.582,0.0,0.0,0.0,0.0,0.0,0.0,0.0,0.0,0.0,1.592,0.0,0.0,1.6293,1.6784,0.0,0.0,0.0,0.0,0.0,1.6522,1.6522,1.6547,1.6999,1.72,0.0,0.0,2.0751,2.0955,0.0,0.0,0.0,0.0,2.3985,2.4911,2.584,2.7737,3.0219,3.3084,3.4394,3.5053,3.5662,3.6289,3.681,3.6788,3.7142,3.6936,3.4528,3.288,3.1072,2.7984,2.6327,2.5061,2.3621,2.4103,2.4437,2.356,2.4864,2.5999,2.5668,2.6339,2.7783,3.0269,3.1537,3.2842,3.4525,3.5692,3.6358,3.6358,3.6358,3.6358,3.6358,3.6358,3.6977,3.8379,4.0462,4.2111,4.325,4.3195,4.2641,4.1594,4.1309,4.0651,3.9634,3.9484,3.9424,3.9424,3.9424,3.9424,3.9424,3.9424,3.911,3.8601,3.8601,3.7863,3.6563,3.5339,3.4451,3.3643,3.177,3.1343,3.1559,0.0,0.0,0.0,0.0,0.0,0.0,0.0,1.2929,1.2881,1.2881,1.2978,1.3238,1.3909,1.4949,1.582,0.0,0.0,0.0,0.0,0.0,0.0,0.0,0.0,0.0,0.0,0.0,0.0,1.5676,1.5736,0.0,0.0,0.0,0.0,0.0,0.0,1.6522,1.6522,1.6572,0.0,0.0,0.0,0.0,0.0,0.0,0.0,0.0,0.0,2.2463,2.2331,2.424,2.5054,2.5755,2.8313,3.1685,3.4353,3.3028,3.4033,3.5581,3.5048,3.5373,3.542,3.4186,3.2315,3.0156,2.7821,2.6038,2.4747,2.4249,2.3688,2.3475,2.4073,2.3777,2.3915,2.5347,2.5686,2.6892,3.0156,3.1537,3.2842,3.4525,3.5692,3.6358,3.6358,3.6358,3.6358,3.6358,3.6358,3.7335,3.9637,4.0916,4.2111,4.325,4.2761,4.2387,4.2267,4.1085,4.0427,4.0307,3.9709,3.9424,3.9424,3.9424,3.9424,3.9424,3.9424,3.9394,3.9334,3.9334,3.9218,3.8939,3.7229,3.6885,3.6954,3.3775,3.2725,3.262,0.0,0.0,0.0,0.0,0.0,0.0,1.2812,1.2881,1.2725,1.2295,1.2608,1.3007,1.3178,1.3971,1.4915,0.0,0.0,0.0,0.0,0.0,0.0,0.0,0.0,0.0,0.0,0.0,1.5017,1.5588,1.5588,0.0,0.0,0.0,0.0,0.0,0.0,1.6522,1.6522,1.6522,0.0,0.0,0.0,0.0,0.0,0.0,0.0,0.0,0.0,0.0,2.1876,2.3045,2.3822,2.4442,2.5175,2.7346,2.9908,3.0871,3.1824,3.2797,3.3884,3.4876,3.5203,3.3759,3.224,3.0331,2.7444,2.5774,2.457,2.3773,2.3305,2.3198,2.3543,2.3305,2.3516,2.4908,2.4858,2.5799,2.9139,2.9967,3.1223,3.3909,3.4901,3.5642,3.6295,3.6358,3.6358,3.6358,3.6358,3.707,3.8738,3.9258,4.0632,4.325,4.2393,4.2069,4.2372,4.1444,4.0786,4.0382,3.9738,3.9424,3.9424,3.9424,3.9031,3.8472,3.9104,3.9017,3.8472,3.9104,3.862,3.7453,3.7451,3.6423,3.4886,3.3807,3.2828,3.1983,0.0,0.0,0.0,0.0,0.0,1.2529,1.2832,1.2715,1.2403,1.1873,1.2236,1.254,1.2492,1.3273,1.4133,1.4994,0.0,0.0,0.0,0.0,0.0,0.0,0.0,0.0,0.0,0.0,1.4468,1.5084,1.5188,1.5349,0.0,0.0,1.6207,1.5825,0.0,0.0,0.0,0.0,0.0,0.0,0.0,0.0,0.0,0.0,0.0,0.0,0.0,0.0,0.0,0.0,0.0,2.2834,2.2808,2.3825,2.5545,2.798,2.9474,3.0746,3.2466,3.3859,3.45,3.3156,3.1738,2.993,2.7175,2.5485,2.4305,2.3278,2.3078,2.3078,2.3078,2.3276,2.3703,2.4657,2.477,2.5711,2.8536,2.9214,3.0419,3.3081,3.3897,3.4675,3.5768,3.6169,3.6358,3.6358,3.6358,3.6883,3.8017,3.7599,3.8891,4.2208,4.1331,4.1266,4.2125,4.1104,4.0619,4.0681,3.9828,3.9424,3.9424,3.9424,3.9017,3.8308,3.8708,3.8708,3.8308,3.8368,3.7724,3.6696,3.6788,3.5534,3.3564,3.3364,3.2572,3.1612,0.0,0.0,0.0,0.0,0.0,0.0,0.0,1.2295,1.1814,1.1814,1.1814,1.1814,1.1814,1.2986,1.3826,1.3815,0.0,0.0,0.0,0.0,0.0,0.0,0.0,0.0,0.0,0.0,1.319,1.3815,1.422,1.4725,1.5319,1.5973,1.6326,1.6303,0.0,0.0,0.0,0.0,0.0,0.0,0.0,0.0,0.0,0.0,0.0,0.0,0.0,0.0,0.0,0.0,0.0,0.0,0.0,2.1518,2.1983,2.4205,2.7205,2.993,3.0495,3.1851,3.2968,3.2365,3.057,2.8511,2.6841,2.5184,2.3841,2.3263,2.3078,2.3078,2.3078,2.3602,2.4167,2.4732,2.5724,2.7017,2.8687,2.9892,3.1009,3.2102,3.2742,3.3533,3.4625,3.5717,3.6358,3.6358,3.6358,3.6883,3.8017,3.644,3.6845,3.9885,3.9291,3.976,4.1573,3.9715,3.959,4.1354,4.0053,3.9424,3.9424,3.9424,3.9424,3.9337,3.8308,3.8383,3.9192,3.7084,3.6852,3.7601,3.5534,3.4746,3.4515,3.281,3.2215,3.2127,0.0,0.0,0.0,0.0,0.0,0.0,0.0,1.2295,1.1665,1.1166,1.1516,1.1616,1.1166,1.2335,1.32,1.32,0.0,0.0,0.0,0.0,0.0,0.0,0.0,0.0,0.0,0.0,1.32,1.3815,1.3915,1.4074,1.4312,1.5337,1.5577,1.5257,1.6093,1.6522,0.0,0.0,0.0,0.0,0.0,0.0,2.1064,0.0,0.0,0.0,0.0,0.0,0.0,0.0,0.0,0.0,0.0,0.0,0.0,2.2189,2.4427,2.7064,2.7826,2.8651,2.9187,2.8638,2.7724,2.6614,2.5578,2.4644,2.3954,2.3766,2.3728,2.3728,2.3728,2.3879,2.4293,2.5209,2.5636,2.659,2.8637,2.9578,3.0733,3.2579,3.4299,3.5454,3.5805,3.6157,3.6358,3.6358,3.6358,3.6534,3.6883,3.637,3.7246,3.9812,3.8512,3.8646,4.0404,3.9383,3.8931,3.9126,3.8224,3.76,3.7238,3.7238,3.6866,3.6174,3.654,3.654,3.6174,3.6212,3.5987,3.5695,3.5668,3.4884,3.3615,3.3817,3.3174,3.224,0.0,0.0,0.0,0.0,0.0,0.0,0.0,1.2039,1.1366,1.1216,1.1316,1.1366,1.1216,1.2206,1.2881,1.2881,0.0,0.0,0.0,0.0,0.0,0.0,0.0,0.0,0.0,1.3017,1.32,1.3815,1.3717,1.3713,1.3713,1.4909,1.5291,1.4956,1.6017,1.6522,0.0,0.0,0.0,0.0,0.0,0.0,2.0124,0.0,0.0,0.0,0.0,0.0,0.0,0.0,0.0,0.0,0.0,0.0,0.0,0.0,2.2224,2.4083,2.5099,2.5946,2.6493,2.6474,2.5925,2.5296,2.49,2.423,2.3665,2.3665,2.3665,2.374,2.3954,2.4167,2.4594,2.5448,2.6126,2.703,2.8423,2.9478,3.0758,3.2541,3.4525,3.5742,3.5742,3.6119,3.6282,3.6069,3.6245,3.6182,3.5768,3.5742,3.6442,3.7918,3.7284,3.7569,3.8931,3.8464,3.8133,3.8117,3.7441,3.6819,3.6198,3.6198,3.5894,3.5278,3.5507,3.5507,0.0,3.5116,3.4884,3.4746,3.4966,3.4249,3.3129,3.3624,3.3206,3.2554,0.0,0.0,0.0,0.0,0.0,0.0,0.0,0.0,1.1065,1.1715,1.1216,1.1065,1.1715,1.2452,1.2881,1.2881,0.0,0.0,0.0,0.0,0.0,0.0,0.0,0.0,0.0,1.323,1.3182,1.3732,1.3581,1.3496,1.3457,1.4703,1.5274,1.53,1.6138,1.6522,0.0,0.0,0.0,0.0,0.0,0.0,0.0,0.0,0.0,0.0,0.0,0.0,0.0,0.0,0.0,0.0,0.0,0.0,0.0,0.0,0.0,0.0,0.0,2.3428,2.4459,2.5396,2.4777,2.4121,2.4589,2.3891,0.0,2.3188,2.3128,2.3376,2.3954,2.4469,2.5008,2.5573,2.7005,2.8072,2.816,2.9679,3.116,3.2152,3.3796,3.4788,3.4675,3.5692,3.6119,3.5529,3.5994,3.5843,3.4776,3.4726,3.47,3.4663,3.5692,3.6526,3.7108,3.7059,3.727,3.7813,3.7181,3.6577,3.5974,3.5974,3.5974,3.5974,3.4966,3.5129,3.5814,3.3869,3.3713,3.4511,3.3471,3.3081,3.3006,3.2466,3.2616,3.3006,0.0,0.0,0.0,0.0,0.0,0.0,0.0,0.0,0.0,0.0,1.1216,1.1065,1.1715,1.2452,1.2881,0.0,0.0,0.0,0.0,0.0,0.0,0.0,0.0,0.0,0.0,1.3293,1.3293,1.3104,1.3391,1.334,1.3077,1.4279,1.482,1.4912,1.5981,1.6522,0.0,0.0,0.0,0.0,0.0,0.0,0.0,0.0,0.0,0.0,1.9058,1.9208,0.0,0.0,0.0,0.0,0.0,0.0,0.0,0.0,1.9134,1.932,1.8425,0.0,2.0313,2.1551,2.1373,2.1365,0.0,2.3265,2.3203,2.3703,2.3791,2.3966,2.4519,2.4732,2.5146,2.6101,2.6942,2.777,2.8612,3.0909,3.2591,3.2842,3.4713,3.5479,3.4211,3.5466,3.5956,3.4989,3.5429,3.5441,3.4763,3.4726,3.4525,3.411,3.4751,3.513,3.534,3.5669,3.5557,3.4912,3.4696,3.4337,3.3869,3.3869,3.3869,3.3784,3.3556,3.3628,3.3784,3.3313,3.324,3.3484,3.324,3.3081,3.3056,3.2918,3.2955,3.3056,0.0,0.0,0.0,0.0,0.0,0.0,0.0,0.0,0.0,0.0,0.0,0.0,0.0,0.0,0.0,0.0,0.0,0.0,0.0,0.0,0.0,0.0,0.0,0.0,1.3334,1.3431,1.3441,1.3334,1.3629,1.3477,1.2929,1.4047,1.4631,1.4744,1.5976,1.666,0.0,0.0,0.0,0.0,1.9007,0.0,0.0,0.0,0.0,0.0,1.8832,1.8869,0.0,1.9258,1.9447,1.9447,0.0,0.0,0.0,0.0,1.8326,1.8482,1.7256,1.7739,1.885,1.9998,2.0535,2.1202,2.2749,2.3078,2.3165,2.354,2.3602,2.3853,2.4669,2.482,2.5259,2.6615,2.7306,2.8134,2.9515,3.1198,3.2591,3.337,3.4726,3.5366,3.4713,3.5692,3.5805,3.4449,3.509,3.509,3.4022,3.4211,3.4085,3.3533,3.406,3.4462,3.4726,3.5014,3.4864,3.4274,3.4022,3.3608,3.3081,3.3081,3.3081,3.3081,3.3081,3.3081,3.3081,3.3081,3.3081,3.3081,3.3081,3.3081,3.3081,3.3081,3.3081,3.3081,0.0,0.0,0.0,0.0,0.0,0.0,0.0,0.0,0.0,0.0,0.0,0.0,0.0,0.0,0.0,0.0,0.0,0.0,0.0,0.0,0.0,0.0,0.0,1.3152,1.3637,1.3571,1.3531,1.3637,1.389,1.3643,1.2939,1.3895,1.4521,1.488,1.592,1.6698,0.0,0.0,0.0,0.0,1.8581,0.0,0.0,0.0,0.0,0.0,0.0,0.0,0.0,1.8819,1.8983,1.8995,1.912,0.0,0.0,0.0,0.0,0.0,1.7397,1.8025,1.9028,1.984,2.0923,2.2029,2.2932,2.3078,2.3078,2.3078,2.314,2.359,2.4632,2.4958,2.5561,2.7042,2.7959,2.9076,3.0758,3.1512,3.2403,3.3746,3.4537,3.5064,3.5278,3.5868,3.5592,3.4022,3.4763,3.465,3.3156,3.352,3.3558,3.3093,3.3533,3.4035,3.4587,3.46,3.46,3.4587,3.4035,3.3533,3.3081,3.3081,3.3081,3.3081,3.3081,3.3081,3.3081,3.3081,3.3081,3.3081,3.3081,3.3081,3.3081,3.3081,3.3081,3.3081,0.0,0.0,0.0,0.0,0.0,0.0,0.0,0.0,0.0,0.0,0.0,0.0,0.0,0.0,0.0,0.0,0.0,0.0,0.0,0.0,0.0,0.0,1.2881,1.2929,1.3065,1.3341,1.3351,1.3065,1.341,1.335,1.2929,1.3577,1.443,1.5454,1.5676,1.6057,1.6722,0.0,0.0,0.0,1.8581,0.0,0.0,0.0,0.0,0.0,0.0,0.0,0.0,1.8681,1.8983,1.9058,1.9547,0.0,0.0,0.0,0.0,0.0,1.7233,1.86,2.0002,2.0696,2.108,2.1632,2.2845,2.3078,2.3078,2.3078,2.3527,2.4054,2.4707,2.5586,2.644,2.7168,2.8938,3.0809,3.2466,3.3571,3.4135,3.3922,3.5203,3.5592,3.4286,3.5077,3.5177,3.3985,3.406,3.3834,3.3119,3.3156,3.3169,3.3081,3.3156,3.347,3.4022,3.4022,3.4022,3.4022,3.347,3.3156,3.3081,3.3081,3.3081,3.3081,3.3081,3.3081,3.3081,3.3081,3.3081,3.3081,3.3081,3.3081,3.3081,3.3081,3.3081,3.3081,0.0,0.0,0.0,0.0,0.0,0.0,0.0,0.0,0.0,0.0,0.0,0.0,0.0,0.0,0.0,0.0,0.0,0.0,0.0,0.0,0.0,1.2881,1.319,1.3372,1.3372,1.3481,1.3431,1.3372,1.3669,1.3516,1.2929,1.3505,1.4272,1.5107,1.5326,1.6182,1.743,1.7884,1.8129,1.8317,0.0,0.0,0.0,0.0,0.0,0.0,0.0,0.0,0.0,0.0,1.7751,1.7933,1.7862,0.0,0.0,0.0,0.0,0.0,1.6859,1.7932,1.9199,2.0068,2.1711,2.3207,2.3553,2.3602,2.369,2.3991,2.4017,2.4356,2.5498,2.6364,2.7469,2.9214,3.062,3.1851,3.293,3.3508,3.396,3.4299,3.4751,3.4851,3.4387,3.4801,3.4638,3.3533,3.3734,3.3658,3.3106,3.3081,3.3081,3.3081,3.3081,3.3345,3.3884,3.3608,3.3608,3.3884,3.3345,3.3081,3.3081,3.3081,3.3081,3.3056,3.2754,3.2604,3.2604,3.2604,3.2604,3.2641,3.2955,3.3081,3.3081,3.3081,3.3081,3.3081,0.0,0.0,0.0,0.0,0.0,0.0,0.0,0.0,0.0,0.0,0.0,0.0,0.0,0.0,0.0,0.0,0.0,0.0,0.0,0.0,1.2881,1.2881,1.3457,1.3815,1.3815,1.3658,1.3668,1.3815,1.3801,1.3516,1.2929,1.3372,1.392,1.449,1.4796,1.6007,1.778,1.7748,1.8189,1.8783,0.0,0.0,0.0,0.0,0.0,0.0,0.0,0.0,0.0,0.0,0.0,0.0,0.0,0.0,0.0,1.6652,1.6379,1.6285,1.6618,1.7438,1.8465,1.9492,2.1942,2.4087,2.4062,2.4154,2.4381,2.5071,2.4971,2.5159,2.6414,2.7318,2.8687,3.1173,3.2164,3.2855,3.3558,3.3759,3.4161,3.5002,3.4625,3.45,3.5052,3.4751,3.4236,3.352,3.3608,3.352,3.3106,3.3081,3.3081,3.3081,3.3081,3.3282,3.3709,3.3294,3.3357,3.3884,3.3345,3.3081,3.3081,3.3081,3.3081,3.3043,3.2466,3.2215,3.2202,3.2077,3.2102,3.2252,3.2704,3.2955,3.3081,3.3081,3.3081,3.3081,0.0,0.0,0.0,0.0,0.0,0.0,0.0,0.0,0.0,0.0,0.0,0.0,0.0,0.0,0.0,0.0,0.0,0.0,0.0,0.0,1.2881,1.2881,1.3457,1.3815,1.3815,1.381,1.381,1.3815,1.326,1.2939,1.2881,1.2929,1.3286,1.3873,1.3905,1.4871,1.6561,1.7099,1.769,1.8267,1.8267,0.0,0.0,0.0,0.0,0.0,0.0,0.0,0.0,0.0,0.0,0.0,0.0,0.0,1.6539,1.6549,1.6036,1.5722,1.6994,1.8012,1.8912,1.9705,2.1028,2.2492,2.3871,2.4504,2.5059,2.6126,2.6716,2.708,2.7205,2.8536,3.0168,3.1876,3.3068,3.4148,3.5215,3.5805,3.6157,3.6232,3.5768,3.5642,3.6182,3.4851,3.4135,3.4575,3.3696,3.3119,3.3081,3.3081,3.3081,3.3081,3.3081,3.3093,3.3131,3.3093,3.3357,3.3884,3.3345,3.3081,3.3081,3.3081,3.3081,3.3043,3.2466,3.2215,3.2177,3.1662,3.175,3.2215,3.2252,3.2604,3.3081,3.3081,3.3081,3.3081,0.0,0.0,0.0,0.0,0.0,0.0,0.0,0.0,0.0,0.0,0.0,0.0,0.0,0.0,0.0,0.0,0.0,0.0,0.0,0.0,1.2881,1.2881,1.3457,1.3815,1.3815,1.3815,1.3815,1.3815,1.2716,1.2236,1.2236,1.2236,1.2764,1.3779,1.3657,1.4623,1.6408,1.6555,1.742,1.8719,1.8719,1.8392,0.0,0.0,0.0,0.0,0.0,0.0,0.0,0.0,1.565,1.6277,1.5331,1.5226,1.5461,1.5461,1.5246,1.5164,1.5936,1.7022,1.7985,1.8307,1.9489,2.1274,2.3694,2.5093,2.605,2.6816,2.7682,2.8524,2.9227,3.0143,3.1336,3.2993,3.3909,3.4801,3.5893,3.5931,3.5855,3.5855,3.5064,3.46,3.4801,3.3947,3.347,3.3684,3.3319,3.3081,3.3081,3.3081,3.3081,3.3081,3.3081,3.3081,3.3081,3.3081,3.3006,3.2855,3.3006,3.3081,3.3081,3.3081,3.288,3.2503,3.1951,3.1524,3.121,3.0997,3.1223,3.1763,3.2478,3.288,3.3081,3.3081,3.3081,3.3081,0.0,0.0,0.0,0.0,0.0,0.0,0.0,0.0,0.0,0.0,0.0,0.0,0.0,0.0,0.0,0.0,0.0,0.0,1.2881,1.2881,1.2881,1.2881,1.3457,1.3627,1.3178,1.3369,1.3474,1.3474,1.215,1.1616,1.1814,1.1823,1.2423,1.3525,1.3363,1.4237,1.582,1.5735,1.6784,1.8437,1.8252,1.8076,0.0,0.0,0.0,0.0,0.0,0.0,0.0,0.0,1.4644,1.5329,1.4262,1.4316,1.4785,1.4785,1.4873,1.5019,1.5176,1.6172,1.7207,1.7344,1.8765,2.0813,2.3251,2.5181,2.6639,2.7619,2.8687,2.9704,3.047,3.1035,3.1825,3.3156,3.4135,3.4977,3.5742,3.5667,3.5479,3.5303,3.4462,3.3972,3.4148,3.3508,3.3156,3.3319,3.3181,3.3081,3.3081,3.3081,3.3081,3.3081,3.3081,3.2993,3.2805,3.2805,3.2516,3.1951,3.2528,3.2717,3.2554,3.2729,3.2491,3.1938,3.1738,3.1248,3.062,3.0796,3.1173,3.1725,3.2503,3.2918,3.3081,3.3081,3.3081,3.3081,0.0,0.0,0.0,0.0,0.0,0.0,0.0,0.0,0.0,0.0,0.0,0.0,0.0,0.0,0.0,0.0,0.0,0.0,1.2881,1.2881,1.2881,1.2881,1.3457,1.3188,1.1814,1.2434,1.2773,1.2773,1.1449,1.1166,1.1765,1.1792,1.2215,1.2881,1.2881,1.3528,1.4599,1.4599,1.5608,1.7219,1.6633,1.6825,1.7313,0.0,0.0,0.0,0.0,0.0,0.0,0.0,1.439,1.4457,1.4711,1.4775,1.4775,1.4775,1.5078,1.5312,1.4902,1.5732,1.6836,1.7275,1.9008,2.0969,2.2513,2.4491,2.6584,2.8533,2.9824,3.062,3.0633,3.1047,3.1574,3.2127,3.3633,3.4713,3.4726,3.519,3.5328,3.4776,3.4223,3.411,3.465,3.3721,3.3307,3.3847,3.3382,3.3081,3.3068,3.3081,3.3081,3.3068,3.3081,3.2805,3.2227,3.2215,3.1938,3.1386,3.1938,3.1913,3.1411,3.1964,3.1913,3.1424,3.1964,3.1587,3.0645,3.1173,3.1725,3.2215,3.2227,3.2566,3.3081,3.3081,3.3081,3.3081,0.0,0.0,0.0,0.0,0.0,0.0,0.0,0.0,0.0,0.0,0.0,0.0,0.0,0.0,0.0,0.0,0.0,0.0,1.2881,1.2881,1.2881,1.2881,1.3065,1.2735,1.1814,1.1057,1.0704,1.0704,1.0762,1.0914,1.1116,1.1575,1.2197,1.2881,1.2881,1.3308,1.4026,1.4026,1.4821,1.6109,1.6752,1.6907,1.6791,0.0,0.0,0.0,0.0,0.0,0.0,0.0,0.0,0.0,1.3997,1.4092,1.4326,1.4326,1.4639,1.4941,1.4814,1.5732,1.6904,1.7637,1.8765,2.0132,2.178,2.4326,2.716,3.0096,3.0605,3.0846,3.1599,3.1863,3.2152,3.2729,3.3571,3.4274,3.4663,3.4525,3.4324,3.4161,3.3658,3.3382,3.3545,3.3269,3.3144,3.3307,3.3169,3.2893,3.2491,3.2855,3.2893,3.2478,3.2867,3.2805,3.2227,3.2215,3.175,3.0846,3.1009,3.1399,3.1976,3.2139,3.1913,3.1386,3.1173,3.0683,3.0105,3.1022,3.1725,3.2252,3.2667,3.2918,3.3081,3.3081,3.3081,3.3081,0.0,0.0,0.0,0.0,0.0,0.0,0.0,0.0,0.0,0.0,0.0,0.0,0.0,0.0,0.0,0.0,0.0,0.0,0.0,1.2881,1.2881,1.2881,1.2608,1.199,1.1015,0.9961,0.951,0.9814,1.0218,1.0517,1.0813,1.1466,1.2187,1.2881,1.2881,1.3104,1.342,1.342,1.3994,1.4931,1.5902,1.6209,1.6133,0.0,0.0,0.0,0.0,0.0,0.0,0.0,0.0,0.0,1.3854,1.3873,1.4077,1.4077,1.4316,1.46,1.4941,1.5869,1.7021,1.8223,1.9297,2.0497,2.2289,2.5039,2.7893,3.0538,3.1121,3.1449,3.2089,3.1769,3.1613,3.1958,3.2281,3.243,3.2539,3.2942,3.3076,3.2843,3.2997,3.3081,3.3081,3.2867,3.283,3.3056,3.2667,3.2353,3.2227,3.234,3.2252,3.1901,3.2227,3.2139,3.1587,3.1574,3.1148,3.0294,3.0507,3.0959,3.1574,3.1574,3.1273,3.0733,3.0419,3.047,3.0771,3.0984,3.1675,3.2566,3.2692,3.2729,3.2767,3.2993,3.293,3.2767,0.0,0.0,0.0,0.0,0.0,0.0,0.0,0.0,0.0,0.0,0.0,0.0,0.0,0.0,0.0,0.0,0.0,0.0,0.0,0.0,1.2881,1.2774,1.2089,1.1116,0.9814,0.9159,0.9113,0.9814,0.9865,1.021,1.0914,1.1566,1.2236,1.2881,1.2881,1.2881,1.2881,1.2881,1.3238,1.3779,1.443,1.5006,1.5454,1.5546,0.0,0.0,0.0,0.0,0.0,0.0,0.0,0.0,1.4126,1.4107,1.4087,1.4126,1.4107,1.4272,1.5225,1.6094,1.7158,1.8955,2.041,2.1846,2.3525,2.5957,2.8343,3.0067,3.1283,3.2139,3.1959,3.1114,3.0351,3.0265,3.0147,2.9959,2.9463,3.0777,3.162,3.1033,3.2028,3.276,3.266,3.2309,3.2234,3.2794,3.1964,3.1587,3.2039,3.1637,3.1361,3.1323,3.1361,3.1135,3.062,3.062,3.0331,2.9804,3.0306,3.0545,3.0545,3.0595,3.0319,2.9792,2.9792,3.0658,3.1989,3.1022,3.1524,3.288,3.2403,3.2215,3.2277,3.2867,3.2742,3.2365,0.0,0.0,0.0,0.0,0.0,0.0,0.0,0.0,0.0,0.0,0.0,0.0,0.0,0.0,0.0,0.0,0.0,0.0,0.0,0.0,1.2657,1.208,1.1366,1.061,0.9814,0.9159,0.9113,0.9814,1.032,1.0914,1.1616,1.2295,1.2774,1.2881,1.2881,1.2881,1.2881,1.2881,1.2968,1.3182,1.4226,1.4478,1.4269,1.5171,1.4949,0.0,0.0,0.0,0.0,0.0,0.0,0.0,1.4531,1.4414,1.4145,1.4541,1.4404,1.4394,1.5596,1.6318,1.7305,1.9697,2.1523,2.2773,2.3209,2.4743,2.6573,2.8328,3.0192,3.1302,3.0446,3.0348,3.0091,2.9301,2.9127,2.9184,2.9373,2.9444,2.942,2.9306,2.9816,2.9926,2.9219,3.0185,3.0675,3.0556,3.11,3.1273,3.0972,3.1235,3.1198,3.0796,3.1173,3.1135,3.062,3.062,3.0331,2.9792,2.9917,2.9967,2.998,3.0419,3.0319,2.9792,2.9792,3.0244,3.0947,3.0708,3.1072,3.1788,3.2089,3.2215,3.2277,3.2867,3.3006,3.2918,0.0,0.0,0.0,0.0,0.0,0.0,0.0,0.0,0.0,0.0,0.0,0.0,0.0,0.0,0.0,0.0,0.0,0.0,0.0,0.0,1.2039,1.1366,1.0661,1.002,0.9361,0.9309,0.9614,1.0261,1.0965,1.1466,1.1814,1.2559,1.2881,1.2881,1.2881,1.2881,1.2881,1.2881,1.2881,1.2998,1.3859,1.4037,1.3847,1.4471,1.4451,1.4077,1.3991,0.0,0.0,0.0,0.0,0.0,0.0,0.0,1.4453,1.4463,1.4307,1.4321,1.5459,1.6387,1.7715,2.0498,2.2178,2.3135,2.3135,2.4232,2.5488,2.6329,2.8242,2.9665,2.9071,2.8665,2.8221,2.7699,2.7083,2.6806,2.6957,2.7323,2.761,2.761,2.8288,2.8588,2.817,2.9083,2.9689,2.9761,3.0331,3.062,3.062,3.062,3.0507,3.0231,3.0482,3.0495,3.0218,3.0218,3.008,2.9792,2.9792,2.9792,2.9804,3.0093,3.0068,2.9792,2.9792,3.0105,3.0633,3.0884,3.1148,3.1474,3.2303,3.2303,3.1913,3.2767,3.2905,3.2704,0.0,0.0,0.0,0.0,0.0,0.0,0.0,0.0,0.0,0.0,0.0,0.0,0.0,0.0,0.0,0.0,0.0,0.0,0.0,0.0,0.0,1.0661,1.0115,0.9465,0.8804,0.9465,1.0115,1.0813,1.1366,1.1665,1.1814,1.2559,1.2881,1.2881,1.2881,1.2881,1.2881,1.2881,1.2881,1.2929,1.342,1.3637,1.3637,1.3637,1.3865,1.406,1.367,1.373,1.4092,1.4521,0.0,0.0,0.0,0.0,1.4629,1.4414,1.4194,1.4282,1.5264,1.6592,1.8379,2.1191,2.2461,2.3047,2.3125,2.38,2.4542,2.4542,2.6259,2.7768,2.7595,2.679,2.6057,2.5878,2.5007,2.4336,2.4404,2.5229,2.5878,2.5878,2.6831,2.7436,2.7271,2.8057,2.8763,2.9212,2.9542,2.9993,3.0457,3.0043,2.9792,2.9792,2.9792,2.9792,2.9792,2.9792,2.9792,2.9792,2.9792,2.9792,2.9792,2.9792,2.9792,2.9792,2.9792,3.0105,3.0645,3.0972,3.1173,3.1348,3.229,3.2139,3.1512,3.2554,3.2692,3.2416,0.0,0.0,0.0,0.0,0.0,0.0,0.0,0.0,0.0,0.0,0.8804,0.0,0.0,0.0,0.0,0.0,0.0,0.0,0.9909,0.0,0.0,0.9909,0.9865,0.9465,0.8804,0.9465,1.0115,1.0813,1.0864,1.1216,1.1814,1.2559,1.2881,1.2881,1.2881,1.2881,1.2881,1.2881,1.2881,1.2929,1.2968,1.3017,1.3017,1.3017,1.3056,1.3155,1.3429,1.3545,1.3652,1.4029,1.4165,0.0,0.0,0.0,1.4355,1.5039,1.4717,1.4404,1.5644,1.7471,1.9492,2.1406,2.2246,2.2685,2.3057,2.3222,2.3299,2.3299,2.5158,2.6412,2.5391,2.5398,2.5254,2.4307,2.3957,2.4004,2.4365,2.4283,2.4127,2.4127,2.4544,2.4555,2.3799,2.5969,2.7211,2.6945,2.8706,2.9829,2.9892,2.9829,2.9792,2.9792,2.9792,2.9792,2.9792,2.9792,2.9792,2.9792,2.9792,2.9792,2.9792,2.9792,2.9792,2.9792,2.9792,3.0105,3.0583,3.0181,3.0294,3.0733,3.0884,3.1122,3.1461,3.2089,3.2591,3.2905,0.0,0.0,0.0,0.0,0.0,0.0,0.0,0.0,0.0,0.0,0.0,0.8804,0.0,0.0,0.0,0.9211,0.9263,0.9413,0.9762,0.9465,0.9413,0.9762,0.9814,0.9666,0.9361,1.0364,1.0864,1.0813,1.1166,1.1316,1.1266,1.1584,1.2068,1.2651,1.2407,1.2634,1.3213,1.2988,1.2881,1.2881,1.2881,1.2881,1.2881,1.2881,1.2881,1.29,1.3096,1.3154,1.3223,1.3643,1.3779,1.3857,1.4287,0.0,0.0,0.0,1.4424,1.4834,1.6387,1.7666,1.8984,2.0713,2.166,2.2275,2.2695,2.2969,2.3135,2.3135,2.3887,2.4478,2.3963,2.3961,2.3937,2.3506,2.3428,2.3486,2.3672,2.3545,2.3428,2.3428,2.3584,2.3555,2.3174,2.4729,2.5773,2.5568,2.7046,2.7971,2.7971,2.853,2.8858,2.8858,2.9456,2.9792,2.9792,2.9792,2.9792,2.9792,2.9792,2.9792,2.9792,2.9792,2.9792,2.9792,2.9792,2.993,3.0168,3.0231,3.0218,3.0218,3.0821,3.1185,3.1449,3.2001,3.2378,3.2554,0.0,0.0,0.0,0.0,0.0,0.0,0.0,0.0,0.0,0.0,0.0,0.0,0.0,0.0,0.0,0.0,0.8804,0.9008,0.951,0.9061,0.9008,0.951,0.9562,0.9614,0.9814,1.0762,1.1116,1.0813,1.1116,1.1065,1.0517,1.0364,1.0924,1.2009,1.1959,1.2507,1.334,1.3125,1.2978,1.2881,1.2881,1.2881,1.2881,1.2881,1.2881,1.2881,1.2881,1.2881,1.293,1.3242,1.335,1.3418,1.3848,1.3975,0.0,0.0,0.0,1.4951,1.6465,1.7275,1.8066,1.9678,2.082,2.166,2.209,2.2598,2.2978,2.2978,2.3066,2.3135,2.3135,2.3135,2.3135,2.3135,2.3135,2.3135,2.3135,2.3135,2.3135,2.3135,2.3135,2.3135,2.3135,2.4125,2.4787,2.4787,2.5891,2.6483,2.6483,2.729,2.7844,2.8096,2.8937,2.9534,2.9792,2.9792,2.9792,2.9792,2.9792,2.9792,2.9792,2.9792,2.9792,2.9792,2.9792,2.988,3.0018,3.0294,3.0244,3.0068,3.0721,3.1072,3.1248,3.165,3.1888,3.1989,0.0,0.0,0.0,0.0,0.0,0.0,0.0,0.0,0.0,0.0,0.0,0.0,0.8804,0.8804,0.8804,0.8804,0.8804,0.8804,0.8857,0.8804,0.8804,0.8857,0.8857,0.0,0.9762,0.9865,1.0218,1.0813,1.0218,0.9865,0.9814,0.9211,0.9532,1.0686,1.1895,1.2647,1.2939,1.3311,1.3242,1.2881,1.2881,1.2881,1.2881,1.2881,1.2881,1.2881,1.2881,1.2881,1.2881,1.29,1.291,1.2988,1.3408,1.3545,1.3613,0.0,0.0,0.0,1.5264,1.6143,1.7109,1.8408,1.9697,2.0752,2.1201,2.1943,2.2549,2.2549,2.2861,2.3135,2.3135,2.3135,2.3135,2.3135,2.3135,2.3135,2.3135,2.3135,2.3135,2.3135,2.3135,2.3135,2.3135,2.4125,2.4787,2.4787,2.5891,2.6483,2.6483,2.6554,2.7046,2.8084,2.8176,2.8688,2.9792,2.9792,2.9792,2.9792,2.9792,2.9792,2.9792,2.9792,2.9792,2.9792,2.9792,3.0093,3.0532,3.0043,3.0131,3.052,3.0055,3.0193,3.0658,3.0683,3.1009,3.1361,0.0,0.0,0.0,0.0,0.0,0.0,0.0,0.0,0.0,0.0,0.0,0.0,0.0,0.8804,0.8804,0.8804,0.8804,0.8804,0.8804,0.8804,0.8804,0.8804,0.9211,0.9562,0.9814,1.0218,1.0364,1.0167,0.9917,0.9562,0.9159,0.891,0.9274,1.0098,1.1019,1.1857,1.2656,1.2995,1.3174,1.3262,1.2988,1.3037,1.3252,1.2988,1.3047,1.3281,1.3281,1.3457,1.3682,1.3682,1.3506,1.3311,1.3457,1.332,1.3184,1.3613,1.373,1.3975,1.5107,1.5644,1.626,1.7842,1.8789,1.9512,2.0225,2.084,2.1338,2.1631,2.1816,2.2002,2.2285,2.2773,2.3135,2.3135,2.3135,2.3135,2.3135,2.3135,2.3135,2.3135,2.3135,2.3135,2.3135,2.3464,2.3714,2.3714,2.4059,2.4307,2.4307,2.4967,2.5619,2.5942,2.6707,2.7614,2.8688,2.9443,2.9792,2.9792,2.9792,2.9792,2.9792,2.9792,2.9792,2.9792,2.9792,2.9905,3.0068,2.988,2.9905,3.0068,2.9867,3.0131,3.062,3.062,3.0733,3.0871,0.0,0.0,0.0,0.0,0.0,0.0,0.0,0.0,0.0,0.0,0.0,0.0,0.0,0.0,0.8804,0.8804,0.8804,0.8804,0.8804,0.8804,0.8804,0.8804,0.9211,0.9562,0.9814,1.0012,1.0012,0.9814,0.9562,0.9263,0.8804,0.8804,0.9061,0.951,1.0167,1.1115,1.2289,1.2776,1.3167,1.3496,1.3359,1.3467,1.3691,1.3408,1.3477,1.3721,1.3721,1.3896,1.4077,1.4077,1.3857,1.3506,1.3506,1.3213,1.2939,1.3213,1.3398,1.3691,1.4541,1.5078,1.5723,1.7031,1.7891,1.8574,1.915,1.9834,2.0391,2.0547,2.081,2.1143,2.1582,2.2119,2.2549,2.2695,2.2715,2.2715,2.2715,2.2715,2.2715,2.2715,2.2842,2.293,2.293,2.3057,2.3135,2.3135,2.3135,2.3135,2.3135,2.38,2.4372,2.4787,2.588,2.7046,2.8096,2.8846,2.9443,2.9792,2.9792,2.9792,2.9792,2.9792,2.9792,2.9792,2.9792,2.9792,2.9792,2.9792,2.9792,2.9792,2.9792,3.0018,3.0331,3.0331,3.0331,3.0369,0.0,0.0,0.0,0.0,0.0,0.0,0.0,0.0,0.0,0.8804,0.0,0.0,0.0,0.0,0.0,0.8804,0.8804,0.8804,0.8804,0.8804,0.8804,0.8804,0.8804,0.9113,0.9762,0.9106,0.9106,0.9762,0.9106,0.8804,0.8804,0.8804,0.8804,0.8804,0.9465,1.0517,1.1819,1.2662,1.3171,1.3503,1.3849,1.4024,1.4097,1.4087,1.4087,1.4097,1.4097,1.4107,1.4116,1.4116,1.3887,1.3545,1.3516,1.3232,1.29,1.2881,1.3174,1.3486,0.0,0.0,0.0,1.5928,1.7012,1.7959,1.7988,1.8955,1.9727,1.9336,1.9922,2.0644,2.1074,2.1162,2.1318,2.1738,2.1855,2.1885,2.1885,2.1885,2.1885,2.1885,2.2246,2.25,2.251,2.2881,2.3125,2.3135,2.3135,2.3135,2.3135,2.3135,2.3637,2.4702,2.5891,2.6964,2.8004,2.8084,2.8597,2.9714,2.9702,2.9702,2.9714,2.9714,2.9714,2.9714,2.9714,2.9792,2.9792,2.9792,2.9792,2.9792,2.9792,2.9792,2.9792,2.9792,2.9792,2.988,0.0,0.0,0.0,0.0,0.0,0.0,0.0,0.0,0.8804,0.0,0.0,0.0,0.8804,0.8804,0.8804,0.8804,0.8804,0.8804,0.8804,0.8804,0.8804,0.8804,0.8804,0.891,0.9061,0.891,0.891,0.9061,0.891,0.8804,0.8804,0.8804,0.8804,0.8811,0.9008,0.9562,1.0379,1.1139,1.179,1.2338,1.2173,1.2715,1.3718,1.3369,1.3827,1.4609,1.4609,1.4805,1.5059,1.5059,1.4775,1.4326,1.3701,1.3428,1.3271,1.2969,1.2959,1.3125,1.3428,0.0,0.0,0.0,0.0,0.0,1.7412,1.7832,1.8135,1.832,1.8789,1.9209,1.9326,1.9609,1.9863,1.999,2.1064,2.1885,2.1885,2.1885,2.1885,2.1885,2.1992,2.2178,2.248,2.2617,2.2812,2.3115,2.3135,2.3135,2.3135,2.3135,2.3222,2.3551,2.4713,2.5368,2.5703,2.7267,2.7855,2.7383,2.8187,2.8187,2.7383,2.7383,2.7383,2.7464,2.8199,2.8597,2.8597,2.9456,2.9792,2.9792,2.9792,2.9792,2.9792,2.9792,2.9792,2.988,0.0,0.0,0.0,0.0,0.0,0.0,0.8804,0.8804,0.8804,0.0,0.0,0.0,0.8804,0.8804,0.8804,0.8804,0.8804,0.8804,0.8804,0.8804,0.8804,0.8804,0.8804,0.8804,0.8804,0.8804,0.8804,0.8804,0.8804,0.8804,0.8804,0.8804,0.8804,0.8804,0.8804,0.9008,0.9413,0.9814,1.0714,1.1886,1.1845,1.2459,1.3319,1.3035,1.3615,1.4573,1.4573,1.5022,1.5654,1.5469,1.5127,1.4668,1.3984,1.3769,1.3682,1.3271,1.3271,1.3418,1.3486,1.3945,1.457,1.5244,0.0,0.0,1.6719,1.6706,1.6645,1.6712,1.7054,1.7387,1.7558,1.8093,1.8603,1.8955,1.9873,2.0596,2.0781,2.0957,2.1064,2.1064,2.1387,2.1709,2.1953,2.2139,2.2353,2.2598,2.2783,2.2959,2.3125,2.3135,2.3135,2.3135,2.3714,2.4296,2.4787,2.6108,2.6614,2.6472,2.7116,2.7128,2.6483,2.6483,2.6483,2.6565,2.7602,2.8096,2.8176,2.9365,2.9792,2.9792,2.9792,2.9792,2.9792,2.9792,2.9792,2.988,0.0,0.0,0.0,0.8586,0.8752,0.8804,0.8804,0.8804,0.8804,0.0,0.8804,0.8804,0.8804,0.8804,0.8804,0.8804,0.8804,0.8804,0.8804,0.8804,0.8804,0.8804,0.8804,0.8804,0.8804,0.8804,0.8804,0.8804,0.8804,0.8804,0.8804,0.8804,0.8804,0.8804,0.8804,0.8804,0.8804,0.8804,0.9857,1.1647,1.2085,1.2511,1.283,1.287,1.3364,1.4094,1.4094,1.48,1.5677,1.5361,1.4984,1.4551,1.4291,1.4092,1.3961,1.3649,1.3848,1.4,1.3682,1.4199,1.4932,1.5264,1.5781,0.0,1.6145,1.5946,1.5579,1.5032,1.5387,1.5863,1.5987,1.6817,1.7695,1.8447,1.8494,1.875,1.9287,1.9678,1.9932,1.998,2.0684,2.1182,2.123,2.1582,2.1836,2.1885,2.2236,2.2646,2.3115,2.3096,2.3096,2.3135,2.3135,2.3531,2.4555,2.4681,2.5178,2.6063,2.6202,2.6224,2.6141,2.6141,2.6141,2.6141,2.7267,2.7763,2.7844,2.9106,2.9702,2.9792,2.9792,2.9792,2.9792,2.9792,2.9792,2.988,0.0,0.0,0.7723,0.7883,0.8427,0.8804,0.8804,0.8804,0.8804,0.8804,0.8804,0.8804,0.8804,0.8804,0.8804,0.8804,0.8804,0.8804,0.8804,0.8804,0.8804,0.8804,0.8804,0.8804,0.8804,0.8804,0.8804,0.8804,0.8804,0.8804,0.8804,0.8804,0.8804,0.8804,0.8804,0.8804,0.8804,0.8804,0.916,0.9778,1.01,1.0806,1.1638,1.1913,1.2512,1.3243,1.3243,1.3415,1.3709,1.424,1.3981,1.3492,1.4383,1.4203,1.3718,1.3917,1.4019,1.4058,1.398,1.4639,1.5225,1.4971,1.6025,0.0,1.6282,1.6805,1.7025,1.5276,1.6299,1.7149,1.5872,1.6855,1.7939,1.8105,1.8135,1.8525,1.9639,1.9863,2.0049,2.0391,2.0586,2.084,2.1201,2.1309,2.1504,2.1865,2.1963,2.2344,2.3096,2.2822,2.2793,2.3125,2.3135,2.3055,2.2958,2.4196,2.4281,2.3297,2.4545,2.4628,2.3724,2.3724,2.3724,2.381,2.4957,2.5452,2.5608,2.7602,2.8937,2.9792,2.9792,2.9792,2.9792,2.9792,2.9792,2.988,0.5433,0.6416,0.7289,0.7616,0.7996,0.8262,0.8262,0.8262,0.8262,0.8262,0.8586,0.8804,0.8804,0.8804,0.8804,0.8804,0.8804,0.8804,0.8804,0.8804,0.8804,0.8804,0.8804,0.8804,0.8804,0.8804,0.8804,0.8804,0.8804,0.8804,0.8804,0.8804,0.8804,0.8804,0.8804,0.8804,0.8804,0.8804,0.8971,0.921,0.9566,1.0082,1.0732,1.1043,1.1717,1.2389,1.2389,1.2634,1.3094,1.3699,1.3574,1.3269,1.3747,1.3696,1.3493,1.3274,1.3408,1.3525,1.3327,1.4197,1.5068,1.4871,1.5994,0.0,0.0,1.6074,1.5584,1.4667,1.4737,1.4806,1.4487,1.556,1.6712,1.756,1.751,1.7891,1.9394,1.9414,1.9355,1.958,1.9795,2.0019,2.0244,2.0449,2.085,2.1514,2.1562,2.1836,2.248,2.2314,2.2295,2.251,2.251,2.2412,2.2207,2.3183,2.3293,2.2519,2.3513,2.3627,2.3135,2.3135,2.3135,2.3135,2.4296,2.4787,2.4957,2.6614,2.7626,2.8291,2.9378,2.9443,2.8937,2.8937,2.8609,2.8247,0.5218,0.5982,0.675,0.7176,0.7503,0.767,0.7503,0.7509,0.7557,0.767,0.8315,0.8804,0.8804,0.8804,0.8851,0.8965,0.8871,0.8858,0.8965,0.8871,0.8804,0.8804,0.8804,0.8804,0.8804,0.8804,0.8804,0.8804,0.8804,0.8804,0.8804,0.8804,0.8804,0.8804,0.8804,0.8804,0.8804,0.8804,0.8971,0.921,0.9566,0.986,1.0147,1.0448,1.0982,1.1593,1.1593,1.1965,1.2629,1.3162,1.3108,1.2893,1.3059,1.307,1.3026,1.2707,1.2825,1.2997,1.2783,1.375,1.4809,1.4844,1.5804,1.6619,0.0,0.0,0.0,1.3737,1.2932,1.2538,1.3068,1.4173,1.5458,1.6795,1.6893,1.7344,1.873,1.8682,1.8643,1.8975,1.9023,1.917,1.9502,1.9766,2.0244,2.1045,2.1103,2.1338,2.1855,2.1807,2.1797,2.1885,2.1885,2.1885,2.1885,2.2305,2.251,2.2519,2.2939,2.3135,2.3135,2.3135,2.3135,2.3135,2.4039,2.4457,2.4542,2.5714,2.6141,2.6389,2.8371,2.8621,2.7763,2.7763,2.7197,2.6637,0.4625,0.566,0.6421,0.5869,0.6848,0.7503,0.6804,0.675,0.6966,0.7616,0.8315,0.8804,0.8804,0.8804,0.9018,0.9539,0.9105,0.9031,0.9546,0.9098,0.8804,0.8804,0.8804,0.8804,0.8804,0.8804,0.8804,0.8804,0.8804,0.8804,0.8804,0.8804,0.8804,0.8804,0.8804,0.8804,0.8804,0.8804,0.8971,0.921,0.9566,0.986,1.0147,1.0448,1.0681,1.0744,1.0744,1.0807,1.1038,1.2018,1.1696,1.1206,1.2822,1.2719,1.2181,1.3034,1.332,1.3418,1.3632,1.4131,1.4547,1.4665,1.5695,1.6273,1.4787,0.0,1.5425,1.2617,0.0,1.398,1.2767,0.0,0.0,1.5707,1.6607,1.7373,1.7578,1.7881,1.8643,2.0166,1.9053,1.875,2.0273,2.0107,2.0117,2.0605,2.0644,2.1006,2.1846,2.1523,2.1484,2.1875,2.1885,2.1885,2.1885,2.2305,2.251,2.2519,2.2939,2.3135,2.3135,2.3135,2.3135,2.3135,2.3222,2.3299,2.3387,2.4542,2.4957,2.5126,2.6389,2.6812,2.6719,2.6719,2.6637,2.6483,0.4519,0.5277,0.5869,0.5542,0.6032,0.6303,0.6032,0.6473,0.6946,0.7218,0.7946,0.8276,0.777,0.7715,0.7743,0.7873,0.7755,0.7743,0.7873,0.8063,0.8156,0.8156,0.8586,0.8804,0.8804,0.8804,0.8804,0.8804,0.8804,0.8804,0.8804,0.8804,0.8804,0.8804,0.8804,0.8898,0.9004,0.9004,0.9325,0.976,0.9886,1.0114,1.0388,1.0577,1.0624,1.0624,1.0624,1.0624,1.0645,1.1128,1.12,1.1154,1.1625,1.184,1.1861,1.1956,1.2145,1.2254,1.2393,1.3135,1.376,1.3671,1.4555,1.5307,1.4461,1.4193,1.3842,1.2683,0.0,0.0,0.0,0.0,0.0,0.0,1.5212,1.5596,1.5887,1.5735,1.6542,1.9122,1.8594,1.8291,1.9014,1.9131,1.915,1.9092,1.9775,2.0244,2.0371,2.0439,2.0664,2.1103,2.1123,2.125,2.1504,2.1934,2.2275,2.2519,2.2939,2.3135,2.3135,2.3135,2.3135,2.3135,2.3135,2.3135,2.3135,2.3637,2.38,2.3887,2.4307,2.4967,2.5546,2.5546,2.5052,2.4638,0.4519,0.5058,0.5433,0.5273,0.5378,0.5449,0.5282,0.6135,0.6706,0.6649,0.7406,0.7665,0.6971,0.6957,0.6967,0.692,0.6937,0.6967,0.692,0.7461,0.774,0.7723,0.8498,0.8925,0.8925,0.8925,0.8925,0.8925,0.8844,0.8844,0.8925,0.8925,0.8971,0.9045,0.9045,0.9165,0.9359,0.9359,0.9653,1.0114,1.0114,1.0294,1.0624,1.0624,1.0624,1.0624,1.0624,1.0624,1.0631,1.0648,1.0909,1.1129,1.0788,1.1116,1.1543,1.1116,1.1256,1.155,1.155,1.2242,1.3016,1.2886,1.3489,1.4085,1.3697,1.3032,1.246,1.241,1.1626,0.0,0.0,0.0,1.2722,1.3574,0.0,1.4355,1.4647,1.4681,1.553,1.8005,1.8117,1.7906,1.7666,1.7961,1.8273,1.8379,1.9102,1.9482,1.9297,1.958,1.9941,2.0371,2.0625,2.0967,2.1406,2.1846,2.2266,2.2685,2.2881,2.3027,2.3135,2.3018,2.3027,2.3135,2.3135,2.3135,2.3135,2.3135,2.3135,2.3135,2.3135,2.3637,2.4296,2.4296,2.38,2.3222,0.4519,0.5058,0.5269,0.4625,0.5058,0.5329,0.4829,0.537,0.5893,0.6019,0.6694,0.7091,0.6929,0.7115,0.736,0.7649,0.7422,0.7422,0.7644,0.7824,0.7859,0.7729,0.8629,0.917,0.917,0.917,0.917,0.917,0.8945,0.8951,0.917,0.917,0.9379,0.9653,0.9653,0.9659,0.9666,0.9666,0.984,1.0114,1.0114,1.0294,1.0624,1.0624,1.0624,1.0624,1.0624,1.0624,1.0665,1.0882,1.0808,1.0698,1.0895,1.0995,1.1022,1.1002,1.1403,1.1857,1.1857,1.2064,1.2362,1.2672,1.2721,1.2624,1.2014,1.2303,1.2349,1.1261,1.1512,1.1744,1.1463,1.2091,1.2595,1.2318,1.3541,0.0,0.0,1.5512,1.6754,1.735,1.7734,1.7579,1.6718,1.7017,1.7777,1.9136,1.8896,1.8857,1.9268,1.9297,1.9502,1.9922,2.0762,2.1426,2.1865,2.2285,2.2705,2.3115,2.2725,2.2744,2.3125,2.2715,2.2754,2.3135,2.3135,2.3135,2.3135,2.3135,2.3135,2.3135,2.3135,2.3135,2.3135,2.3135,2.3135,2.3144,0.4519,0.468,0.4787,0.4519,0.4677,0.479,0.4725,0.5568,0.6063,0.5785,0.6465,0.6792,0.637,0.6325,0.6279,0.6301,0.6125,0.6008,0.601,0.6921,0.7491,0.7417,0.8775,0.9532,0.9532,0.9532,0.9532,0.9532,0.9432,0.9439,0.9532,0.9532,0.9586,0.9686,0.9686,0.9793,0.9967,0.9967,1.014,1.0408,1.0408,1.0588,1.0828,1.0698,1.0624,1.0624,1.0624,1.0624,1.0638,1.0675,1.0768,1.0862,1.0962,1.1129,1.1316,1.1516,1.171,1.1911,1.2104,1.2225,1.2278,1.217,1.2137,1.1978,1.1421,1.1535,1.162,1.0873,1.1015,1.1256,1.1162,1.1402,1.1629,1.1653,1.2282,1.2582,0.0,1.3088,1.3775,1.3798,1.5441,1.6191,1.5308,1.5394,1.5738,1.6243,1.698,1.7593,1.8037,1.8828,1.9482,1.9902,2.0488,2.1006,2.1445,2.1885,2.2305,2.2725,2.2861,2.2998,2.3135,2.2988,2.2852,2.2744,2.3018,2.2978,2.2744,2.3027,2.3135,2.3135,2.3135,2.3135,2.3135,2.3135,2.3135,2.3135,0.4545,0.4556,0.4519,0.4519,0.4563,0.4596,0.4748,0.5568,0.6043,0.5703,0.625,0.652,0.6013,0.6037,0.5959,0.5766,0.5708,0.5572,0.5311,0.6341,0.6908,0.6823,0.845,0.9407,0.9407,0.9715,0.984,0.984,0.9733,0.974,0.984,0.984,0.9893,0.9993,0.9993,1.01,1.0274,1.0274,1.0388,1.0624,1.0624,1.0675,1.0822,1.0698,1.0692,1.0728,1.0828,1.0802,1.0728,1.0835,1.0995,1.1149,1.1149,1.1349,1.1597,1.169,1.1857,1.2044,1.2124,1.2225,1.2231,1.1944,1.1951,1.187,1.1283,1.145,1.1603,1.1122,1.1256,1.1456,1.1456,1.1456,1.145,1.143,1.1764,1.1992,0.0,1.2204,1.2461,1.2438,1.3931,1.4797,1.4313,1.4218,1.4361,1.4745,1.5743,1.6395,1.6418,1.8078,1.9102,1.922,2.0256,2.0947,2.123,2.1816,2.2246,2.2519,2.2783,2.2998,2.3135,2.2988,2.2773,2.2539,2.2959,2.29,2.2549,2.2969,2.3135,2.3135,2.3135,2.3135,2.3135,2.3135,2.3135,2.3135,0.4701,0.4592,0.4549,0.4543,0.4613,0.4762,0.4908,0.5311,0.5654,0.5806,0.6091,0.6234,0.6098,0.6329,0.6383,0.6098,0.6186,0.6078,0.565,0.6135,0.6334,0.6046,0.7787,0.8763,0.8813,0.9633,1.0073,1.014,0.986,0.9866,1.014,1.014,1.0287,1.0624,1.0624,1.0561,1.0561,1.0561,1.0561,1.0561,1.0575,1.0518,1.0518,1.0544,1.0724,1.0916,1.1242,1.1168,1.0989,1.1261,1.1286,1.1286,1.1306,1.156,1.1726,1.1543,1.185,1.2225,1.1964,1.2091,1.2238,1.1977,1.2118,1.2171,1.1603,1.1911,1.2231,1.1911,1.2078,1.2278,1.2278,1.2278,1.2104,1.1557,1.1924,1.2469,1.3164,1.2914,1.2765,1.3152,1.3259,1.3386,1.3757,1.3424,1.3631,1.4697,1.5116,1.5147,1.468,1.7088,1.8256,1.7814,1.9953,2.1121,2.1121,2.2031,2.2451,2.2451,2.2471,2.2705,2.3096,2.2695,2.251,2.2539,2.2959,2.29,2.2549,2.2969,2.3135,2.3135,2.3135,2.3135,2.3135,2.3135,2.3135,2.3135,0.486,0.4914,0.4925,0.4819,0.4921,0.503,0.507,0.5457,0.584,0.6108,0.6403,0.6658,0.6834,0.6827,0.678,0.6705,0.643,0.621,0.6098,0.6622,0.6834,0.6672,0.7763,0.8636,0.9168,0.9364,0.9806,1.0448,1.0374,1.0374,1.0448,1.0448,1.0551,1.0624,1.0624,1.0238,0.9658,1.0301,1.0238,0.9676,0.9872,0.955,0.9047,1.0105,0.9962,0.9358,1.0674,1.0712,1.0206,1.0278,0.9806,0.9346,1.0314,1.0508,1.0606,1.1749,1.2031,1.2011,1.2151,1.2245,1.2338,1.2485,1.2654,1.2538,1.2158,1.2365,1.2425,1.169,1.1777,1.1984,1.1984,1.1984,1.2004,1.2064,1.2024,1.2094,1.2232,1.1957,1.1875,1.2255,1.2289,1.2317,1.2393,1.2054,1.218,1.2848,1.3325,1.3687,1.3891,1.576,1.6684,1.6365,1.841,1.9519,1.9519,2.0876,2.1562,2.1562,2.1894,2.2266,2.2676,2.2568,2.251,2.2539,2.2959,2.29,2.2549,2.2969,2.3135,2.3135,2.3135,2.3135,2.3135,2.3135,2.3135,2.3135,0.5009,0.5131,0.5226,0.5213,0.5386,0.5481,0.5352,0.5599,0.5911,0.622,0.6519,0.6763,0.6929,0.6993,0.6997,0.6932,0.6698,0.6471,0.6352,0.6547,0.6626,0.6448,0.7185,0.7837,0.8245,0.8538,0.9134,1.004,1.004,1.0238,1.0624,1.0624,1.0624,1.0624,1.0624,1.011,0.9338,0.939,0.9197,0.8854,0.8986,0.8767,0.0,0.9233,0.9156,0.8694,0.9702,0.9782,0.9417,0.9603,0.9274,0.8937,0.9653,0.9823,0.9908,1.123,1.1506,1.1569,1.2104,1.2305,1.2345,1.2512,1.2728,1.2741,1.2371,1.2532,1.264,1.1937,1.1944,1.2058,1.2058,1.2058,1.2111,1.2278,1.1951,1.1724,1.185,1.1724,1.163,1.167,1.1904,1.1911,1.1523,1.145,1.1444,1.1518,1.2564,1.3059,1.2629,1.5128,1.6244,1.5423,1.74,1.8481,1.8481,1.9621,2.0328,2.0658,2.1165,2.1749,2.251,2.2324,2.2344,2.2519,2.2764,2.2734,2.2549,2.2969,2.3135,2.3135,2.3135,2.3135,2.3135,2.3135,2.3135,2.3135,0.5216,0.5342,0.5488,0.5603,0.5864,0.5979,0.5745,0.583,0.6013,0.6285,0.6576,0.6759,0.6759,0.697,0.7061,0.6939,0.6892,0.6705,0.6315,0.6271,0.6132,0.5844,0.6452,0.6825,0.6869,0.748,0.8285,0.9139,0.9268,0.9658,1.0428,1.0428,1.0428,1.0428,1.0301,0.9849,0.9075,0.8127,0.7787,0.8035,0.8088,0.8025,0.7893,0.8187,0.8264,0.8274,0.8403,0.8548,0.8724,0.9005,0.8998,0.8917,0.9069,0.9069,0.9296,1.034,1.0565,1.0789,1.17,1.2003,1.2083,1.2123,1.2477,1.2755,1.2418,1.2559,1.2735,1.2365,1.2305,1.2305,1.2305,1.2305,1.2305,1.2305,1.1877,1.163,1.1891,1.1924,1.1817,1.1516,1.1964,0.0,1.1076,1.1289,1.1243,1.0661,1.2379,1.2849,1.145,1.466,1.5888,1.4602,1.6466,1.7538,1.7552,1.8333,1.9115,1.9773,2.0247,2.1124,2.2148,2.1958,2.2119,2.2519,2.2568,2.2598,2.2627,2.2988,2.3135,2.3135,2.3135,2.3135,2.3135,2.3135,2.3135,2.3135,0.5661,0.5806,0.5815,0.5731,0.603,0.6325,0.6414,0.6461,0.6563,0.6617,0.6878,0.7061,0.7061,0.7004,0.6956,0.6929,0.6698,0.6519,0.6441,0.6325,0.6179,0.5996,0.5985,0.6261,0.6873,0.695,0.7372,0.8221,0.8941,0.9402,0.953,0.953,0.953,0.9466,0.8807,0.835,0.8107,0.6634,0.6443,0.7168,0.7486,0.7089,0.6358,0.7476,0.7289,0.6448,0.6688,0.7279,0.7964,0.8075,0.748,0.6945,0.7783,0.8084,0.8237,0.9291,0.9593,0.9593,0.975,1.0421,1.1141,1.1377,1.2088,1.2808,1.2755,1.2788,1.2735,1.2365,1.2305,1.2305,1.2305,1.2305,1.2305,1.2305,1.2211,1.2164,1.2218,1.2225,1.2118,1.183,1.2091,1.1957,1.1076,1.1476,1.155,1.0962,1.1764,1.2002,1.1443,1.2776,1.346,1.3126,1.4857,1.5973,1.643,1.7496,1.8192,1.8493,1.9274,1.9913,2.0482,2.147,2.2119,2.2529,2.2881,2.3027,2.3037,2.3105,2.3135,2.3135,2.3135,2.3135,2.3135,2.3135,2.3135,2.3135,0.5891,0.5983,0.5992,0.601,0.5235,0.507,0.6469,0.6783,0.6892,0.6722,0.6756,0.6793,0.6793,0.6803,0.681,0.681,0.6675,0.6556,0.6478,0.641,0.6305,0.6156,0.5925,0.598,0.632,0.6138,0.6465,0.7307,0.8221,0.8619,0.8613,0.9075,0.9075,0.8613,0.7702,0.7367,0.7341,0.6097,0.5955,0.6463,0.6625,0.6423,0.6016,0.6699,0.6616,0.6051,0.6207,0.6644,0.7022,0.7022,0.6718,0.6416,0.6872,0.7022,0.7249,0.8237,0.8542,0.8618,0.9145,0.9669,1.0148,1.0796,1.1362,1.1897,1.2437,1.2518,1.2478,1.2331,1.2305,1.2305,1.2305,1.2305,1.2305,1.2305,1.2305,1.2305,1.2305,1.2305,1.2191,1.1904,1.1991,1.179,1.1062,1.1383,1.1396,1.0815,1.159,1.1897,1.145,1.2559,1.3146,1.2993,1.4114,1.4972,1.55,1.6191,1.6793,1.7375,1.7806,1.8404,1.9178,2.0264,2.1137,2.1926,2.2544,2.2939,2.3135,2.3135,2.3135,2.3135,2.3135,2.3135,2.3135,2.3135,2.3135,2.3135,0.6023,0.6063,0.6079,0.6263,0.4495,0.3908,0.6347,0.6474,0.6467,0.6753,0.6702,0.6614,0.6495,0.6681,0.6725,0.6658,0.6651,0.6586,0.6437,0.6427,0.6363,0.6217,0.5949,0.5786,0.5755,0.5498,0.5752,0.6396,0.7307,0.7697,0.7762,0.842,0.8291,0.7442,0.6766,0.6534,0.6607,0.593,0.5817,0.6034,0.6064,0.6078,0.6091,0.6213,0.6183,0.6095,0.6217,0.6338,0.6338,0.6338,0.6338,0.6338,0.6338,0.6338,0.649,0.7253,0.748,0.7629,0.8466,0.8846,0.9145,0.9965,1.0335,1.0714,1.1768,1.1848,1.17,1.1922,1.1774,1.17,1.1922,1.1996,1.2077,1.2305,1.2305,1.2305,1.2305,1.2305,1.2191,1.1904,1.187,1.1637,1.1049,1.1196,1.1122,1.0665,1.1523,1.1971,1.163,1.2719,1.334,1.3307,1.3748,1.4309,1.4957,1.519,1.5624,1.625,1.6573,1.7144,1.7948,1.9005,1.9992,2.1119,2.1891,2.2563,2.3135,2.3135,2.3135,2.3135,2.3135,2.3135,2.3135,2.3135,2.3135,2.3135,0.6268,0.6304,0.6286,0.6287,0.4522,0.3894,0.6371,0.5129,0.4643,0.6789,0.7044,0.689,0.6655,0.6738,0.6723,0.6519,0.6495,0.6434,0.6291,0.6281,0.6213,0.6057,0.5891,0.5742,0.5613,0.5447,0.5428,0.5491,0.64,0.685,0.685,0.6915,0.6461,0.5631,0.5709,0.5714,0.5741,0.5874,0.6006,0.604,0.6183,0.624,0.624,0.6254,0.6251,0.624,0.6254,0.6338,0.6338,0.6338,0.6338,0.6338,0.6338,0.6338,0.6338,0.6416,0.6412,0.649,0.6567,0.7253,0.7936,0.8084,0.8765,0.9669,1.0714,1.0271,0.982,1.0714,1.019,0.9895,1.0789,1.0932,1.1236,1.215,1.2305,1.2305,1.2305,1.2305,1.2191,1.1904,1.187,1.1637,1.1049,1.1015,1.0902,1.0651,1.1149,1.1717,1.2198,1.2351,1.2786,1.3581,1.3654,1.4095,1.4957,1.499,1.508,1.5143,1.6361,1.6714,1.6335,1.812,1.9418,2.0349,2.1125,2.2092,2.3135,2.3135,2.3135,2.3135,2.3135,2.3135,2.3135,2.3135,2.3135,2.3135,0.4594,0.5402,0.6339,0.6315,0.4549,0.297,0.2744,0.3215,0.3952,0.4858,0.497,0.4906,0.4856,0.592,0.6716,0.6676,0.6583,0.6488,0.6522,0.6359,0.6193,0.6037,0.5884,0.5735,0.5593,0.544,0.5428,0.5428,0.6376,0.6558,0.603,0.6558,0.636,0.5501,0.5562,0.5688,0.5861,0.5979,0.6084,0.6173,0.6237,0.6338,0.6338,0.6338,0.6338,0.6338,0.6338,0.6338,0.6338,0.6338,0.6338,0.6338,0.6338,0.6338,0.6338,0.6338,0.6338,0.6338,0.6338,0.6567,0.7022,0.7629,0.8084,0.8689,0.9669,0.9593,0.9448,0.982,0.9599,0.9448,0.982,1.0415,1.0932,1.1316,1.1922,1.2305,1.2305,1.2305,1.2191,1.1904,1.187,1.171,1.1289,1.1096,1.1162,1.1577,1.149,1.153,1.1764,1.2111,1.2712,1.3532,1.3474,1.3895,1.495,1.4963,1.4877,1.4703,1.561,1.5791,1.5476,1.7138,1.8968,2.0842,2.1157,2.1943,2.3135,2.3135,2.3135,2.3135,2.3135,2.3135,2.3135,2.3135,2.3135,2.3174,0.4351,0.4288,0.4481,0.4409,0.3206,0.1679,0.0179,0.1439,0.2519,0.2519,0.2554,0.2513,0.2511,0.3781,0.5212,0.6652,0.6654,0.6556,0.6576,0.638,0.6193,0.6037,0.5884,0.5735,0.5593,0.544,0.5428,0.5428,0.6131,0.6124,0.5521,0.6188,0.615,0.5593,0.5633,0.5793,0.6034,0.6078,0.6162,0.6338,0.6338,0.6338,0.6338,0.6338,0.6338,0.6338,0.6338,0.6338,0.6338,0.6338,0.6338,0.6338,0.6338,0.6338,0.6338,0.6338,0.6338,0.6338,0.6338,0.6338,0.649,0.7173,0.7326,0.7633,0.8618,0.8618,0.8389,0.8389,0.8389,0.8542,0.8765,0.9437,1.011,1.0708,1.1391,1.1848,1.1848,1.1848,1.1697,1.1209,1.1037,1.1056,1.1077,1.0869,1.1022,1.1997,1.1817,1.1724,1.181,1.2124,1.2712,1.3532,1.3527,1.3948,1.495,1.505,1.4897,1.4529,1.5204,1.5277,1.4932,1.6443,1.8324,2.0305,2.0666,2.1489,2.2589,2.2589,2.2775,2.3135,2.3135,2.3135,2.3135,2.3135,2.3135,2.3184,0.6276,0.2902,0.0085,0.0087,0.0089,0.0,0.0,0.0,0.0,0.0,0.0,0.0087,0.0087,0.0088,0.1829,0.6319,0.674,0.6688,0.6302,0.6271,0.6193,0.6037,0.5884,0.5735,0.5593,0.544,0.5428,0.5428,0.5428,0.5428,0.5432,0.5428,0.5511,0.5596,0.5735,0.5884,0.604,0.6193,0.6335,0.6338,0.6338,0.6338,0.6338,0.6338,0.6338,0.6338,0.6338,0.6338,0.6338,0.6338,0.6338,0.6338,0.6338,0.6338,0.6338,0.6338,0.6338,0.6338,0.6338,0.6338,0.6338,0.6338,0.6338,0.6567,0.7557,0.7022,0.6338,0.6338,0.6338,0.6644,0.7629,0.7859,0.8456,1.0484,1.0783,1.0789,1.0789,1.0789,1.0484,0.9442,0.901,0.9233,1.0329,1.009,1.0297,1.1368,1.1964,1.2418,1.2788,1.2458,1.2712,1.3532,1.3928,1.4362,1.4957,1.5251,1.5097,1.4529,1.5404,1.5364,1.4543,1.6342,1.7439,1.7777,1.9047,2.0215,2.1293,2.1293,2.2031,2.3135,2.3135,2.3135,2.3135,2.3135,2.3135,2.3135,0.1984,0.0902,0.0,0.0,0.0,0.0,0.0,0.0,0.0,0.0,0.0,0.0,0.0,0.0,0.0594,0.1993,0.362,0.5135,0.6441,0.641,0.62,0.6037,0.5983,0.584,0.5596,0.5542,0.5467,0.5428,0.5467,0.5518,0.5518,0.5616,0.5688,0.5742,0.5891,0.6044,0.619,0.624,0.6338,0.6338,0.6338,0.6338,0.6338,0.6338,0.6338,0.6338,0.6338,0.6338,0.6338,0.6338,0.6338,0.6338,0.6338,0.6338,0.6338,0.6338,0.6338,0.6338,0.6338,0.6338,0.6338,0.6338,0.6338,0.6416,0.6718,0.6567,0.6338,0.6338,0.6338,0.6412,0.6718,0.7326,0.8008,0.8685,0.9367,0.9744,0.9744,0.9744,0.9606,0.9,0.9055,0.9194,0.9322,0.9238,0.9768,1.1174,1.1254,1.1575,1.2151,1.2639,1.3146,1.3627,1.3935,1.4369,1.4957,1.5251,1.5204,1.483,1.5504,1.5685,1.5418,1.5964,1.675,1.7692,1.8141,1.8956,2.0034,2.0034,2.0305,2.0674,2.0674,2.0674,2.0764,2.1578,2.2039,2.2516,0.0,0.0,0.0,0.0,0.0,0.0,0.0,0.0,0.0,0.0,0.0,0.0,0.0,0.0,0.0,0.0,0.1389,0.2744,0.4004,0.5457,0.6234,0.6129,0.6143,0.6026,0.5759,0.565,0.5617,0.5447,0.5488,0.5504,0.5508,0.5654,0.5749,0.581,0.5962,0.6115,0.6338,0.6338,0.6338,0.6338,0.6338,0.6338,0.6338,0.6338,0.6338,0.6338,0.6338,0.6338,0.6338,0.6338,0.6338,0.6338,0.6338,0.6338,0.6338,0.6338,0.6338,0.6338,0.6338,0.6338,0.6338,0.6338,0.6338,0.6338,0.6338,0.6338,0.6338,0.6338,0.6338,0.6338,0.6338,0.6795,0.7326,0.7706,0.8313,0.877,0.877,0.877,0.8491,0.7908,0.8081,0.8263,0.8421,0.8473,0.92,1.0948,1.1241,1.164,1.2225,1.2839,1.3347,1.3552,1.4035,1.4529,1.5117,1.5418,1.5418,1.513,1.5491,1.5725,1.5832,1.5832,1.6204,1.6943,1.6943,1.7677,1.8864,1.8864,1.9131,1.9497,1.9497,1.9571,1.9787,2.1075,2.1798,2.2371,0.0,0.0,0.0,0.0,0.0,0.0,0.0,0.0,0.0,0.0,0.0,0.0,0.0,0.0,0.0,0.0,0.0,0.0,0.0,0.3682,0.5892,0.6041,0.6222,0.6207,0.6034,0.5834,0.5676,0.5576,0.5443,0.5446,0.5449,0.5545,0.5691,0.5823,0.5976,0.6125,0.6338,0.6338,0.6338,0.6338,0.6338,0.6338,0.6338,0.6338,0.6338,0.6338,0.6338,0.6338,0.6338,0.6338,0.6338,0.6338,0.6338,0.6338,0.6338,0.6338,0.6338,0.6338,0.6338,0.6338,0.6338,0.6338,0.6338,0.6338,0.6338,0.6338,0.6338,0.6338,0.6338,0.6338,0.6338,0.6338,0.6644,0.7557,0.7706,0.7706,0.7706,0.7706,0.7326,0.6412,0.6271,0.6651,0.7633,0.7787,0.8673,1.0605,1.1636,1.2389,1.2852,1.312,1.342,1.3667,1.4262,1.4843,1.5391,1.5685,1.5691,1.5424,1.5424,1.5571,1.5832,1.5832,1.5832,1.5832,1.5832,1.648,1.7598,1.7598,1.8226,1.9222,1.9222,1.9434,1.9837,2.1353,2.2101,2.2546,0.0,0.0,0.0,0.0,0.0,0.0,0.0,0.0,0.0,0.0,0.0,0.0,0.0,0.0,0.0,0.0,0.0,0.0,0.0,0.0939,0.2189,0.375,0.5452,0.6246,0.62,0.593,0.5644,0.5416,0.5498,0.5535,0.5542,0.5803,0.5942,0.5983,0.6135,0.6227,0.6338,0.6338,0.6338,0.6338,0.6338,0.6338,0.6338,0.6338,0.6338,0.6338,0.6338,0.6338,0.6338,0.6338,0.6338,0.6338,0.6338,0.6338,0.6338,0.6338,0.6338,0.6338,0.6338,0.6338,0.6338,0.6338,0.6338,0.6338,0.6338,0.6338,0.6338,0.6338,0.6338,0.6338,0.6338,0.6338,0.6416,0.6644,0.6644,0.6644,0.6644,0.6644,0.6567,0.6338,0.6356,0.6537,0.6655,0.6777,0.7715,0.9777,1.0461,1.1514,1.3346,1.3928,1.4142,1.3988,1.477,1.5257,1.5398,1.5685,1.5792,1.5732,1.5732,1.5765,1.5832,1.5832,1.5832,1.5832,1.5832,1.6015,1.6292,1.6292,1.6386,1.6655,1.6655,1.6845,1.7402,1.9751,2.0914,2.1764,0.0,0.0,0.0,0.0,0.0,0.0,0.0,0.0,0.0,0.0,0.0,0.0,0.0,0.0,0.0,0.0,0.0,0.0,0.0,0.0,0.047,0.1641,0.4628,0.6304,0.63,0.6134,0.5789,0.5413,0.5552,0.5589,0.5596,0.5891,0.603,0.6037,0.6193,0.6338,0.6338,0.6338,0.6338,0.6338,0.6338,0.6338,0.6338,0.6338,0.6338,0.6338,0.6338,0.6338,0.6338,0.6338,0.6338,0.6338,0.6338,0.6338,0.6338,0.6338,0.6338,0.6338,0.6338,0.6338,0.6338,0.6338,0.6338,0.6338,0.6338,0.6338,0.6338,0.6338,0.6338,0.6338,0.6338,0.6338,0.6338,0.6338,0.6338,0.6338,0.6338,0.6338,0.6285,0.6349,0.6424,0.6468,0.6464,0.6597,0.7301,0.8903,1.0095,1.1464,1.29,1.4291,1.4923,1.4502,1.5077,1.5464,1.5591,1.5752,1.5832,1.5832,1.5832,1.5832,1.5832,1.5832,1.5832,1.5832,1.5832,1.5832,1.5832,1.5832,1.5832,1.5832,1.5832,1.6092,1.6762,1.8758,2.0346,2.1753,0.0,0.0,0.0,0.0,0.0,0.0,0.0,0.0,0.0,0.0,0.0,0.0,0.0,0.0,0.0,0.0,0.0,0.0,0.0,0.0,0.0,0.0,0.3458,0.547,0.5812,0.5849,0.5692,0.5411,0.553,0.5593,0.5599,0.5871,0.6006,0.6034,0.6142,0.6203,0.6224,0.62,0.6203,0.6227,0.6227,0.624,0.6338,0.6338,0.6338,0.6338,0.6338,0.6338,0.6338,0.6338,0.6338,0.6338,0.6338,0.6338,0.6338,0.6338,0.6338,0.6338,0.6338,0.6338,0.6338,0.6338,0.6338,0.6338,0.6338,0.6338,0.6338,0.6338,0.6338,0.6338,0.6338,0.6338,0.6345,0.6288,0.6274,0.6345,0.6288,0.6291,0.6335,0.6458,0.6512,0.6583,0.6695,0.6841,0.7208,0.7966,1.0109,1.1663,1.2377,1.4539,1.5558,1.511,1.5331,1.5485,1.5534,1.5534,1.5534,1.5534,1.573,1.5832,1.5832,1.5832,1.5832,1.5832,1.5832,1.5832,1.5832,1.5832,1.5832,1.5832,1.5832,1.6159,1.6839,1.8149,1.9821,2.1577,0.0,0.0,0.0,0.0,0.0,0.0,0.0,0.0,0.0,0.0,0.0,0.0,0.0,0.0,0.0,0.0,0.0,0.0,0.0,0.0,0.0,0.0,0.0627,0.18,0.3593,0.3593,0.4188,0.5411,0.5398,0.553,0.5679,0.5766,0.5905,0.6023,0.5918,0.5945,0.6057,0.5928,0.5949,0.6064,0.6064,0.6142,0.6338,0.6338,0.6338,0.6338,0.6338,0.6338,0.6338,0.6338,0.6338,0.6338,0.6338,0.6338,0.6338,0.6338,0.6338,0.6338,0.6338,0.6338,0.6338,0.6338,0.6338,0.6338,0.6338,0.6338,0.6338,0.6338,0.6338,0.6338,0.6338,0.6338,0.6298,0.642,0.6339,0.6302,0.6424,0.6437,0.6447,0.6471,0.6702,0.6739,0.6652,0.6763,0.6905,0.7017,0.9475,1.1548,1.298,1.4571,1.5531,1.5691,1.5738,1.5197,1.4166,1.4166,1.4166,1.4166,1.5248,1.5832,1.5832,1.5832,1.5832,1.5832,1.5832,1.5832,1.5832,1.5832,1.5832,1.5832,1.5832,1.6039,1.6562,1.816,1.9086,1.9954,0.0,0.0,0.0,0.0,0.0,0.0,0.0,0.0,0.0,0.0,0.0,0.0,0.0,0.0,0.0,0.0,0.0,0.0,0.0,0.0,0.0,0.0,0.0,0.0471,0.1412,0.1399,0.1779,0.2499,0.3447,0.4474,0.554,0.5674,0.5771,0.5905,0.5833,0.584,0.5908,0.5918,0.5966,0.6037,0.6122,0.6196,0.6338,0.6338,0.6338,0.6338,0.6338,0.6338,0.6274,0.6349,0.6376,0.6376,0.6376,0.6376,0.6376,0.6376,0.6322,0.6338,0.6338,0.6338,0.6338,0.6338,0.6338,0.6338,0.6338,0.6338,0.6338,0.6338,0.6322,0.6376,0.6376,0.6376,0.6424,0.6569,0.6407,0.6339,0.6563,0.6525,0.6532,0.6698,0.6763,0.686,0.688,0.6222,0.6072,0.686,0.8832,1.0662,1.2177,1.2985,1.3808,1.4746,1.4752,1.4172,1.2813,1.3584,1.3878,1.3878,1.5146,1.5832,1.5832,1.5832,1.5832,1.5832,1.5832,1.5832,1.5832,1.5832,1.5832,1.5845,1.6005,1.6152,1.6424,1.7462,1.8419,1.9388,0.0,0.0,0.0,0.0,0.0,0.0,0.0,0.0,0.0,0.0,0.0,0.0,0.0,0.0,0.0,0.0,0.0,0.0,0.0,0.0,0.0,0.0,0.0,0.0,0.0,0.0,0.0,0.0,0.1405,0.2973,0.4783,0.5377,0.5657,0.5749,0.5715,0.5739,0.5806,0.5891,0.5966,0.604,0.6159,0.623,0.6338,0.6338,0.6338,0.6338,0.6338,0.6281,0.6325,0.6434,0.6495,0.6525,0.6525,0.6525,0.6525,0.6525,0.6447,0.6349,0.6281,0.6338,0.6345,0.6302,0.6312,0.6318,0.6352,0.6363,0.6363,0.6363,0.6454,0.6532,0.6525,0.6529,0.6583,0.6729,0.6532,0.6454,0.6715,0.6654,0.6664,0.6902,0.6877,0.6686,0.6346,0.5744,0.5838,0.6999,0.8525,0.988,1.0987,1.1536,1.2146,1.2995,1.3006,1.2522,1.1458,1.2522,1.3102,1.3494,1.4752,1.5534,1.5832,1.5832,1.5832,1.5832,1.5832,1.5832,1.5832,1.5832,1.5832,1.5852,1.6079,1.6213,1.6333,1.6854,1.7789,1.8789,0.0,0.0,0.0,0.0,0.0,0.0,0.0,0.0,0.0,0.0,0.0,0.0,0.0,0.0,0.0,0.0,0.0,0.0,0.0,0.0,0.0,0.0,0.0,0.0,0.0,0.0,0.0,0.0,0.0138,0.1141,0.2956,0.4654,0.5481,0.5599,0.5457,0.5545,0.5793,0.5674,0.5779,0.603,0.604,0.6132,0.6338,0.6338,0.6338,0.6338,0.6338,0.6346,0.6458,0.6468,0.6566,0.6681,0.6681,0.6681,0.6681,0.6681,0.6675,0.661,0.6335,0.6338,0.6291,0.6424,0.6458,0.6491,0.6634,0.6668,0.6668,0.6668,0.6609,0.6622,0.6688,0.6702,0.6759,0.6892,0.6773,0.6725,0.6888,0.6902,0.6905,0.6926,0.7044,0.6236,0.4105,0.5902,0.7215,0.7108,0.8753,0.9695,0.9617,1.1111,1.1346,1.0288,1.0288,1.019,1.0096,1.019,1.0872,1.2042,1.3392,1.4657,1.5832,1.5832,1.5832,1.5832,1.5832,1.5832,1.5832,1.5832,1.5832,1.5832,1.5852,1.6032,1.6313,1.6627,1.7015,1.7592,0.0,0.0,0.0,0.0,0.0,0.0,0.0,0.0,0.0,0.0,0.0,0.0,0.0,0.0,0.0,0.0,0.0,0.0,0.0,0.0,0.0,0.0,0.0,0.0,0.0,0.0,0.0,0.0,0.0,0.0336,0.1071,0.4033,0.542,0.5457,0.5399,0.5484,0.5674,0.5705,0.584,0.6037,0.6135,0.6207,0.6338,0.6338,0.6338,0.6338,0.6338,0.6295,0.6369,0.6552,0.6654,0.6715,0.6814,0.6844,0.6824,0.6729,0.6766,0.6797,0.659,0.6532,0.6546,0.66,0.6614,0.6627,0.6685,0.6702,0.6705,0.6636,0.6698,0.6297,0.4711,0.5835,0.6992,0.7035,0.6837,0.6813,0.7041,0.6983,0.6997,0.7183,0.7261,0.685,0.5847,0.6882,0.7567,0.7629,0.8109,0.882,0.9604,1.0338,1.0096,0.8825,0.8726,0.8726,0.8726,0.9608,1.0194,1.0779,1.2037,1.2915,1.3397,1.4268,1.4657,1.4657,1.5439,1.5832,1.5832,1.5832,1.5832,1.5865,1.6233,1.6333,1.6353,1.7007,1.7208,1.7291,0.0,0.0,0.0,0.0,0.0,0.0,0.0,0.0,0.0,0.0,0.0,0.0,0.0,0.0,0.0,0.0,0.0,0.0,0.0,0.0,0.0,0.0,0.0,0.0,0.0,0.0,0.0,0.0,0.0,0.0,0.0068,0.2562,0.3986,0.4554,0.5177,0.549,0.5664,0.5765,0.5966,0.6112,0.6217,0.6338,0.6338,0.6338,0.6338,0.6338,0.6338,0.6322,0.643,0.663,0.6763,0.6858,0.6963,0.6997,0.6973,0.6868,0.6912,0.6973,0.6868,0.6875,0.6888,0.6797,0.6773,0.6783,0.6827,0.6844,0.6783,0.6757,0.6845,0.6172,0.3734,0.4152,0.5222,0.6337,0.6737,0.7094,0.7272,0.72,0.7214,0.7417,0.7458,0.7382,0.7303,0.7032,0.7149,0.7984,0.7841,0.8161,0.9224,0.9343,0.892,0.8038,0.8038,0.8038,0.8038,0.892,0.9608,0.9998,1.0877,1.1556,1.195,1.3295,1.3878,1.3974,1.5242,1.5832,1.5832,1.5832,1.5832,1.5879,1.6373,1.6506,1.6493,1.7188,1.7375,1.7315,0.0,0.0,0.0,0.0,0.0,0.0,0.0,0.0,0.0,0.0,0.0,0.0,0.0,0.0,0.0,0.0,0.0,0.0,0.0,0.0,0.0,0.0,0.0,0.0,0.0,0.0,0.0,0.0,0.0,0.0,0.0,0.0,0.0951,0.2792,0.4555,0.5487,0.5663,0.5894,0.6132,0.6338,0.6338,0.6338,0.6338,0.6338,0.6338,0.6342,0.6342,0.6451,0.6702,0.6702,0.6898,0.7139,0.7143,0.7143,0.7143,0.7143,0.7143,0.7143,0.7143,0.7255,0.7302,0.7004,0.6932,0.697,0.7109,0.7071,0.7128,0.7093,0.7056,0.6357,0.3976,0.1615,0.114,0.4547,0.6361,0.7422,0.76,0.76,0.76,0.76,0.7513,0.7435,0.7557,0.6096,0.5917,0.7858,0.7997,0.8038,0.8038,0.8038,0.8038,0.8038,0.8038,0.8038,0.8038,0.8038,0.8627,0.9998,0.9998,1.0681,1.1945,1.3301,1.3878,1.3974,1.5248,1.5838,1.5832,1.5832,1.5832,1.5865,1.6159,1.6453,1.674,1.7041,1.7335,1.7582,0.0,0.0,0.0,0.0,0.0,0.0,0.0,0.0,0.0,0.0,0.0,0.0,0.0,0.0,0.0,0.0,0.0,0.0,0.0,0.0,0.0,0.0,0.0,0.0,0.0,0.0,0.0,0.0,0.0,0.0,0.0,0.0,0.0281,0.086,0.1337,0.2372,0.3695,0.5222,0.5997,0.6285,0.6285,0.6281,0.6274,0.6274,0.6329,0.641,0.641,0.6536,0.6715,0.6824,0.6987,0.7177,0.7394,0.7461,0.7441,0.7333,0.7302,0.7302,0.7302,0.7336,0.7322,0.7126,0.7238,0.7353,0.718,0.7225,0.6808,0.4986,0.597,0.582,0.1845,0.0492,0.0296,0.136,0.5048,0.776,0.7725,0.7607,0.7638,0.7736,0.775,0.7267,0.6206,0.67,0.7423,0.7997,0.8045,0.8038,0.8038,0.8038,0.8038,0.8038,0.8038,0.8038,0.8038,0.8038,0.8237,0.8627,0.8627,0.8825,0.9217,1.0618,1.1786,1.2543,1.4167,1.5325,1.6139,1.6139,1.6139,1.6166,1.6466,1.6627,1.6767,1.7268,1.7508,1.7582,0.0,0.0,-0.0605,-0.2474,-0.1242,0.0,0.0,0.0,0.0,0.0,0.0,0.0,0.0,0.0,0.0,0.0,0.0,0.0,0.0,0.0,0.0,0.0,0.0,0.0,0.0,0.0,0.0,0.0,0.0,0.0,0.0,0.0,0.0,0.0,0.0,0.059,0.1684,0.2989,0.4099,0.5018,0.5018,0.5015,0.509,0.5964,0.6369,0.6568,0.6568,0.6702,0.6803,0.6898,0.7065,0.7265,0.7451,0.755,0.7584,0.7489,0.7461,0.7461,0.7461,0.7502,0.7509,0.736,0.7461,0.755,0.7363,0.7379,0.6649,0.4154,0.395,0.3442,0.0496,0.0,0.0,0.0,0.2672,0.5527,0.7517,0.779,0.7818,0.7906,0.7919,0.7524,0.6533,0.7403,0.8021,0.8031,0.7997,0.8038,0.8038,0.8038,0.8038,0.8038,0.8038,0.8038,0.8038,0.8038,0.8038,0.8038,0.8038,0.8038,0.8041,0.9518,1.083,1.219,1.3757,1.5115,1.6279,1.6393,1.638,1.6313,1.672,1.6881,1.6934,1.7408,1.7582,1.7582,0.0,0.0,-0.1531,-0.6285,-0.3493,-0.0526,-0.0357,-0.0179,0.0,0.0,0.0,0.0,0.0,0.0,0.0,0.0,0.0,0.0,0.0,0.0,0.0,0.0,0.0,0.0,0.0,0.0,0.0,0.0,0.0,0.0,0.0,0.0,0.0,0.0,0.0,0.0,0.0,0.0,0.1095,0.2812,0.2812,0.2812,0.3046,0.5021,0.5984,0.6361,0.6694,0.6878,0.6956,0.698,0.7166,0.7397,0.7421,0.7526,0.7638,0.7624,0.7617,0.7617,0.7617,0.7712,0.7784,0.7668,0.7638,0.7631,0.7604,0.7533,0.6819,0.4481,0.1858,0.0,0.0,0.0,0.0,0.0,0.0,0.1809,0.6954,0.7869,0.7972,0.7972,0.7982,0.7885,0.7682,0.7885,0.7975,0.8041,0.8038,0.8038,0.8038,0.8038,0.8038,0.8038,0.8038,0.8038,0.8038,0.8038,0.8038,0.8038,0.8038,0.8038,0.8038,0.9331,1.0708,1.2279,1.3612,1.4918,1.6137,1.6627,1.6573,1.6366,1.6927,1.7148,1.7188,1.7475,1.7582,1.7582,0.0,0.0,-0.1479,-0.6248,-0.6269,-0.4917,-0.3124,-0.1251,0.0,0.0,0.0,0.0,0.0,0.0,0.0,0.0,0.0,0.0,0.0,0.0,0.0,0.0,0.0,0.0,0.0,0.0,0.0,0.0,0.0,0.0,0.0,0.0,0.0,0.0,0.0,0.0,0.0,0.0,0.0235,0.0706,0.0706,0.0705,0.0704,0.1174,0.2409,0.4076,0.6083,0.6953,0.7068,0.738,0.7499,0.759,0.7821,0.7919,0.7919,0.7801,0.7767,0.7767,0.7767,0.7787,0.7831,0.7923,0.7943,0.7882,0.7651,0.7697,0.7648,0.697,0.3162,0.0,0.0,0.0,0.0,0.0,0.0,0.1105,0.442,0.6645,0.7972,0.7972,0.7975,0.716,0.5027,0.6751,0.7965,0.8041,0.8038,0.8038,0.8038,0.8038,0.8038,0.8038,0.8038,0.8038,0.8038,0.8038,0.8038,0.8038,0.8038,0.8038,0.8045,0.8463,0.9435,1.0782,1.2525,1.3923,1.5105,1.6514,1.6881,1.6647,1.7007,1.7148,1.7188,1.7475,1.7582,1.7582,0.0,-0.184,-0.3854,-0.5188,-0.634,-0.6675,-0.545,-0.4208,-0.2597,-0.0268,0.0,0.0,0.0,0.0,0.0,0.0,0.0,0.0,0.0,0.0,0.0,0.0,0.0,0.0,0.0,0.0,0.0,0.0,0.0,0.0,0.0,0.0,0.0,0.0,0.0,0.0,0.0,0.0,0.0,0.0,0.0,0.0,0.0,0.0,0.0656,0.2127,0.5639,0.6993,0.7108,0.7333,0.7478,0.7628,0.778,0.7926,0.8024,0.7943,0.7919,0.7919,0.7919,0.7919,0.794,0.8021,0.8038,0.7997,0.7845,0.7936,0.7939,0.7868,0.5698,0.3016,0.0503,0.0,0.0,0.0,0.0,0.0906,0.3615,0.6345,0.7979,0.7972,0.6851,0.5027,0.231,0.5634,0.7969,0.7955,0.8045,0.8038,0.8038,0.8038,0.8038,0.8038,0.8038,0.8038,0.8038,0.8038,0.8075,0.815,0.815,0.815,0.8153,0.8235,0.9157,1.0638,1.1467,1.2556,1.392,1.564,1.6122,1.6005,1.7028,1.7355,1.7375,1.7522,1.7582,1.7582,-0.1073,-0.4421,-0.6502,-0.4543,-0.5832,-0.7142,-0.7064,-0.7108,-0.5573,-0.1162,-0.0269,0.0,0.0,0.0,0.0,0.0,0.0,0.0,0.0,0.0,0.0,0.0,0.0,0.0,0.0,0.0,0.0,0.0,0.0,0.0,0.0,0.0,0.0,0.0,0.0,0.0,0.0,0.0,0.0,0.0,0.0,0.0,0.0,0.0,0.0,0.052,0.4437,0.6446,0.7088,0.7091,0.7353,0.757,0.7617,0.7804,0.8007,0.8031,0.8038,0.8038,0.8038,0.8038,0.8038,0.8038,0.8041,0.8045,0.8041,0.8038,0.8045,0.7962,0.7979,0.6456,0.1608,0.0302,0.0,0.0,0.0,0.1109,0.4225,0.6556,0.7985,0.7975,0.5632,0.3313,0.1508,0.5432,0.7972,0.7972,0.7952,0.8038,0.8038,0.8038,0.8038,0.8038,0.8065,0.8079,0.8079,0.8102,0.818,0.8306,0.8333,0.8333,0.8306,0.8306,0.9175,1.0498,1.0657,1.1408,1.2529,1.4349,1.5053,1.5169,1.6609,1.7364,1.7582,1.7582,1.7582,1.7582,-0.5361,-0.6656,-0.7037,-0.67,-0.6887,-0.7061,-0.7058,-0.7078,-0.618,-0.3481,-0.134,0.0,0.0,0.0,0.0,0.0,0.0,0.0,0.0,0.0,0.0,0.0,0.0,0.0,0.0,0.0,0.0,0.0,0.0,0.0,0.0,0.0,0.0,0.0,0.0,0.0,0.0,0.0,0.0,0.0,0.0,0.0,0.0,0.0,0.0,0.0087,0.0694,0.3599,0.7104,0.7138,0.7289,0.7448,0.7702,0.7811,0.7868,0.8001,0.8038,0.8038,0.8038,0.8038,0.8038,0.8038,0.7955,0.7962,0.8045,0.8038,0.8041,0.8041,0.7969,0.7065,0.4017,0.1611,0.0,0.0,0.0,0.1716,0.6785,0.7795,0.7992,0.7989,0.5634,0.4724,0.6762,0.7569,0.7972,0.7972,0.7952,0.8038,0.8038,0.8038,0.8038,0.8038,0.817,0.8238,0.8238,0.836,0.8431,0.8455,0.8587,0.8581,0.8455,0.8455,0.8649,0.9026,1.0375,1.0907,1.1163,1.2851,1.4093,1.5059,1.5535,1.6499,1.7582,1.7582,1.7582,1.7582,-0.6729,-0.7068,-0.7115,-0.7078,-0.7074,-0.7064,-0.7143,-0.7071,-0.6723,-0.5725,-0.2322,0.0,0.0,0.0,0.0,0.0,0.0,0.0,0.0,0.0,0.0,0.0,0.0,0.0,0.0,0.0,0.0,0.0,0.0,0.0,0.0,0.0,0.0,0.0,0.0,0.0,0.0,0.0,0.0,0.0,0.0,0.0,0.0,0.0,0.0,0.0,0.0,0.1353,0.3557,0.634,0.7286,0.7462,0.7677,0.7868,0.795,0.8021,0.8038,0.8038,0.8038,0.8038,0.8038,0.8038,0.7955,0.7969,0.7962,0.7962,0.7962,0.8041,0.7962,0.7163,0.452,0.181,0.0,0.0,0.0,0.0807,0.3225,0.6062,0.8006,0.7992,0.6956,0.6651,0.7889,0.7979,0.7972,0.7972,0.7952,0.8038,0.8038,0.8038,0.8079,0.8167,0.8235,0.8309,0.8387,0.8452,0.8523,0.8611,0.8679,0.8676,0.8611,0.8611,0.8693,0.8832,0.9384,0.9719,0.9813,1.1394,1.2346,1.3021,1.4731,1.628,1.7582,1.7582,1.7582,1.7582]}]]